[[{"header":{"parameterUnit":"m.s-1","parameterCategory":1,"la1":31.0,"la2":29.5877,"lo1":-88.7671,"lo2":-86.6584,"dy":0.0162,"dx":0.0185,"nx":115,"ny":88,"refTime":"2024-06-21T06:00:00:Z","depth":0,"parameterNumber":2,"parameterNumberName":"U-component_of_WINDS"},"data":[0.0,0.0,0.0,0.0,0.0,0.0,0.0,0.0,0.0,0.0,0.0,0.0,0.0,0.0,0.0,0.0,0.0,0.0,0.0,0.0,0.0,0.0,0.0,0.0,0.0,0.0,0.0,0.0,0.0,0.0,0.0,0.0,0.0,0.0,0.0,0.0,0.0,0.0,0.0,0.0,0.0,0.0,0.0,0.0,0.0,0.0,0.0,0.0,0.0,0.0,0.0,0.0,0.0,0.0,0.0,0.0,0.0,0.0,0.0,0.0,0.0,0.0,0.0,0.0,0.0,0.0,0.0,0.0,0.0,0.0,0.0,0.0,0.0,0.0,0.0,0.0,0.0,0.0,0.0,0.0,0.0,0.0,0.0,0.0,0.0,0.0,0.0,0.0,0.0,0.0,0.0,0.0,0.0,0.0,0.0,0.0,0.0,0.0,0.0,0.0,0.0,0.0,0.0,0.0,0.0,0.0,0.0,0.0,0.0,0.0,0.0,0.0,0.0,0.0,0.0,0.0,0.0,0.0,0.0,0.0,0.0,0.0,0.0,0.0,0.0,0.0,0.0,0.0,0.0,0.0,0.0,0.0,0.0,0.0,0.0,0.0,0.0,0.0,0.0,0.0,0.0,0.0,0.0,0.0,0.0,0.0,0.0,0.0,0.0,0.0,0.0,0.0,0.0,0.0,0.0,0.0,0.0,0.0,0.0,0.0,0.0,0.0,0.0,0.0,0.0,0.0,0.0,0.0,0.0,0.0,0.0,0.0,0.0,0.0,0.0,0.0,0.0,0.0,0.0,0.0,0.0,0.0,0.0,0.0,0.0,0.0,0.0,0.0,0.0,0.0,0.0,0.0,0.0,0.0,0.0,0.0,0.0,0.0,0.0,0.0,0.0,0.0,0.0,0.0,0.0,0.0,0.0,0.0,0.0,0.0,0.0,0.0,0.0,0.0,0.0,0.0,0.0,0.0,0.0,0.0,0.0,0.0,0.0,0.0,0.0,0.0,0.0,0.0,0.0,0.0,0.0,0.0,0.0,0.0,0.0,0.0,0.0,0.0,0.0,0.0,0.0,0.0,0.0,0.0,0.0,0.0,0.0,0.0,0.0,0.0,0.0,0.0,0.0,0.0,0.0,0.0,0.0,0.0,0.0,0.0,0.0,0.0,0.0,0.0,0.0,0.0,0.0,0.0,0.0,0.0,0.0,0.0,0.0,0.0,0.0,0.0,0.0,0.0,0.0,0.0,0.0,0.0,0.0,0.0,0.0,0.0,0.0,0.0,0.0,0.0,0.0,0.0,0.0,0.0,0.0,0.0,0.0,0.0,0.0,0.0,0.0,0.0,0.0,0.0,0.0,0.0,0.0,0.0,0.0,0.0,0.0,0.0,0.0,0.0,0.0,0.0,0.0,0.0,0.0,0.0,0.0,0.0,0.0,0.0,0.0,0.0,0.0,0.0,0.0,0.0,0.0,0.0,0.0,0.0,0.0,0.0,0.0,0.0,0.0,0.0,0.0,0.0,0.0,0.0,0.0,0.0,0.0,0.0,0.0,0.0,0.0,0.0,0.0,0.0,0.0,0.0,0.0,0.0,0.0,0.0,0.0,0.0,0.0,0.0,0.0,0.0,0.0,0.0,0.0,0.0,0.0,0.0,0.0,0.0,0.0,0.0,0.0,0.0,0.0,0.0,0.0,0.0,0.0,0.0,0.0,0.0,0.0,0.0,0.0,0.0,0.0,0.0,0.0,0.0,0.0,0.0,0.0,0.0,0.0,0.0,0.0,0.0,0.0,0.0,0.0,0.0,0.0,0.0,0.0,0.0,0.0,0.0,0.0,0.0,0.0,0.0,0.0,0.0,0.0,0.0,0.0,0.0,0.0,0.0,0.0,0.0,0.0,0.0,0.0,0.0,0.0,0.0,0.0,0.0,0.0,0.0,0.0,0.0,0.0,0.0,0.0,0.0,0.0,0.0,0.0,0.0,0.0,0.0,0.0,0.0,0.0,0.0,0.0,0.0,0.0,0.0,0.0,0.0,0.0,0.0,0.0,0.0,0.0,0.0,0.0,0.0,0.0,0.0,0.0,0.0,0.0,0.0,0.0,0.0,0.0,0.0,0.0,0.0,0.0,0.0,0.0,0.0,0.0,0.0,0.0,0.0,0.0,0.0,0.0,0.0,0.0,0.0,0.0,0.0,0.0,0.0,0.0,0.0,0.0,0.0,0.0,0.0,0.0,0.0,0.0,0.0,0.0,0.0,0.0,0.0,0.0,0.0,0.0,0.0,0.0,0.0,0.0,0.0,0.0,0.0,0.0,0.0,0.0,0.0,0.0,0.0,0.0,0.0,0.0,0.0,0.0,0.0,0.0,0.0,0.0,0.0,0.0,0.0,0.0,0.0,0.0,0.0,0.0,0.0,0.0,0.0,0.0,0.0,0.0,0.0,0.0,0.0,0.0,0.0,0.0,0.0,0.0,0.0,0.0,0.0,0.0,0.0,0.0,0.0,0.0,0.0,0.0,0.0,0.0,0.0,0.0,0.0,0.0,0.0,0.0,0.0,0.0,0.0,0.0,0.0,0.0,0.0,0.0,0.0,0.0,0.0,0.0,0.0,0.0,0.0,0.0,0.0,0.0,0.0,0.0,0.0,0.0,0.0,0.0,0.0,0.0,0.0,0.0,0.0,0.0,0.0,0.0,0.0,0.0,0.0,0.0,0.0,0.0,0.0,0.0,0.0,0.0,0.0,0.0,0.0,0.0,0.0,0.0,0.0,0.0,0.0,0.0,0.0,0.0,0.0,0.0,0.0,0.0,0.0,0.0,0.0,0.0,0.0,0.0,0.0,0.0,0.0,0.0,0.0,0.0,0.0,0.0,0.0,0.0,0.0,0.0,0.0,0.0,0.0,0.0,0.0,0.0,0.0,0.0,0.0,0.0,0.0,0.0,0.0,0.0,0.0,0.0,0.0,0.0,0.0,0.0,0.0,0.0,0.0,0.0,0.0,0.0,0.0,0.0,0.0,0.0,0.0,0.0,0.0,0.0,0.0,0.0,0.0,0.0,0.0,0.0,0.0,0.0,0.0,0.0,0.0,0.0,0.0,0.0,0.0,0.0,0.0,0.0,0.0,0.0,0.0,0.0,0.0,0.0,0.0,0.0,0.0,0.0,0.0,0.0,0.0,0.0,0.0,0.0,0.0,0.0,0.0,0.0,0.0,0.0,0.0,0.0,0.0,0.0,0.0,0.0,0.0,0.0,0.0,0.0,0.0,0.0,0.0,0.0,0.0,0.0,0.0,0.0,0.0,0.0,0.0,0.0,0.0,0.0,0.0,0.0,0.0,0.0,0.0,0.0,0.0,0.0,0.0,0.0,0.0,0.0,0.0,0.0,0.0,0.0,0.0,0.0,0.0,0.0,0.0,0.0,0.0,0.0,0.0,0.0,0.0,0.0,0.0,0.0,0.0,0.0,0.0,0.0,0.0,0.0,0.0,0.0,0.0,0.0,0.0,0.0,0.0,0.0,0.0,0.0,0.0,0.0,0.0,0.0,0.0,0.0,0.0,0.0,0.0,0.0,0.0,0.0,0.0,0.0,0.0,0.0,0.0,0.0,0.0,0.0,0.0,0.0,0.0,0.0,0.0,0.0,0.0,0.0,0.0,0.0,0.0,0.0,0.0,0.0,0.0,0.0,0.0,0.0,0.0,0.0,0.0,0.0,0.0,0.0,0.0,0.0,0.0,0.0,0.0,0.0,0.0,0.0,0.0,0.0,0.0,0.0,0.0,0.0,0.0,0.0,0.0,0.0,0.0,0.0,0.0,0.0,0.0,0.0,0.0,0.0,0.0,0.0,0.0,0.0,0.0,0.0,0.0,0.0,0.0,0.0,0.0,0.0,0.0,0.0,0.0,0.0,0.0,0.0,0.0,0.0,0.0,0.0,0.0,0.0,0.0,0.0,0.0,0.0,0.0,0.0,0.0,0.0,0.0,0.0,0.0,0.0,0.0,0.0,0.0,0.0,0.0,0.0,0.0,0.0,0.0,0.0,0.0,0.0,0.0,0.0,0.0,0.0,0.0,0.0,0.0,0.0,0.0,0.0,0.0,0.0,0.0,0.0,0.0,0.0,0.0,0.0,0.0,0.0,0.0,0.0,0.0,0.0,0.0,0.0,0.0,0.0,0.0,0.0,0.0,0.0,0.0,0.0,0.0,0.0,0.0,0.0,0.0,0.0,0.0,0.0,0.0,0.0,0.0,0.0,0.0,0.0,0.0,0.0,0.0,0.0,0.0,-3.0875,0.0,0.0,0.0,0.0,0.0,0.0,0.0,0.0,0.0,0.0,0.0,0.0,0.0,0.0,0.0,0.0,0.0,0.0,0.0,0.0,0.0,0.0,0.0,0.0,0.0,0.0,0.0,0.0,0.0,0.0,0.0,0.0,0.0,0.0,0.0,0.0,0.0,0.0,0.0,0.0,0.0,0.0,0.0,0.0,0.0,0.0,0.0,0.0,0.0,0.0,0.0,0.0,0.0,0.0,0.0,0.0,0.0,0.0,0.0,0.0,0.0,0.0,0.0,0.0,0.0,0.0,0.0,0.0,0.0,0.0,0.0,0.0,0.0,0.0,0.0,0.0,0.0,0.0,0.0,0.0,0.0,0.0,0.0,0.0,0.0,0.0,0.0,0.0,0.0,0.0,0.0,0.0,0.0,0.0,0.0,0.0,0.0,0.0,0.0,0.0,0.0,0.0,0.0,0.0,0.0,0.0,0.0,0.0,0.0,0.0,-3.344,-3.3004,-3.2571,-3.2119,-3.1647,0.0,0.0,0.0,0.0,0.0,0.0,0.0,0.0,0.0,0.0,0.0,0.0,0.0,0.0,0.0,0.0,0.0,0.0,0.0,0.0,0.0,0.0,0.0,0.0,0.0,0.0,0.0,0.0,0.0,0.0,0.0,0.0,0.0,0.0,0.0,0.0,0.0,0.0,0.0,0.0,0.0,0.0,0.0,0.0,0.0,0.0,0.0,0.0,0.0,0.0,0.0,0.0,0.0,0.0,0.0,0.0,0.0,0.0,0.0,0.0,0.0,0.0,0.0,0.0,0.0,0.0,0.0,0.0,0.0,0.0,0.0,0.0,0.0,0.0,0.0,0.0,0.0,0.0,0.0,0.0,0.0,0.0,0.0,0.0,0.0,0.0,0.0,0.0,0.0,0.0,0.0,0.0,0.0,0.0,0.0,0.0,0.0,0.0,0.0,0.0,0.0,0.0,0.0,0.0,0.0,0.0,0.0,0.0,0.0,0.0,0.0,0.0,-3.2694,-3.2335,-3.1842,0.0,0.0,0.0,0.0,0.0,0.0,0.0,0.0,0.0,0.0,0.0,0.0,0.0,0.0,0.0,0.0,0.0,0.0,0.0,0.0,0.0,0.0,0.0,0.0,0.0,0.0,0.0,0.0,0.0,0.0,0.0,0.0,0.0,0.0,0.0,0.0,0.0,0.0,0.0,0.0,0.0,0.0,0.0,0.0,0.0,0.0,0.0,0.0,0.0,0.0,0.0,0.0,0.0,0.0,0.0,0.0,0.0,0.0,0.0,0.0,0.0,0.0,0.0,0.0,0.0,0.0,0.0,0.0,0.0,0.0,0.0,0.0,0.0,0.0,0.0,0.0,0.0,0.0,0.0,0.0,0.0,0.0,0.0,0.0,0.0,0.0,0.0,0.0,0.0,0.0,0.0,0.0,0.0,0.0,0.0,0.0,0.0,0.0,0.0,0.0,0.0,0.0,0.0,0.0,0.0,0.0,0.0,0.0,0.0,0.0,-3.3904,-3.4544,-3.3807,0.0,-3.0955,0.0,0.0,0.0,0.0,0.0,0.0,0.0,0.0,0.0,0.0,0.0,0.0,0.0,0.0,0.0,0.0,0.0,0.0,0.0,0.0,0.0,0.0,0.0,0.0,0.0,0.0,0.0,0.0,0.0,0.0,0.0,0.0,0.0,0.0,0.0,0.0,0.0,0.0,0.0,0.0,0.0,0.0,0.0,0.0,0.0,0.0,0.0,0.0,0.0,0.0,0.0,0.0,0.0,0.0,0.0,0.0,0.0,0.0,0.0,0.0,0.0,0.0,0.0,0.0,0.0,0.0,0.0,0.0,0.0,0.0,0.0,0.0,0.0,0.0,0.0,0.0,0.0,0.0,0.0,0.0,0.0,0.0,0.0,0.0,0.0,0.0,0.0,0.0,0.0,0.0,0.0,0.0,0.0,0.0,0.0,0.0,0.0,0.0,0.0,0.0,0.0,0.0,0.0,0.0,0.0,0.0,0.0,0.0,0.0,0.0,-3.3655,-3.4024,-3.4022,-3.27,0.0,0.0,0.0,0.0,0.0,0.0,0.0,0.0,0.0,0.0,0.0,0.0,0.0,0.0,0.0,0.0,0.0,0.0,0.0,0.0,0.0,0.0,0.0,0.0,0.0,0.0,0.0,0.0,0.0,0.0,0.0,0.0,0.0,0.0,0.0,0.0,0.0,0.0,0.0,0.0,0.0,0.0,0.0,0.0,0.0,0.0,0.0,0.0,0.0,0.0,0.0,0.0,0.0,0.0,0.0,0.0,0.0,0.0,0.0,0.0,0.0,0.0,0.0,0.0,0.0,0.0,0.0,0.0,0.0,0.0,0.0,0.0,0.0,0.0,0.0,0.0,0.0,0.0,0.0,0.0,0.0,0.0,0.0,0.0,0.0,0.0,0.0,0.0,0.0,0.0,0.0,0.0,0.0,0.0,0.0,0.0,0.0,0.0,0.0,0.0,0.0,0.0,0.0,0.0,0.0,0.0,0.0,0.0,0.0,0.0,-3.3406,0.0,-3.3492,-3.4031,-3.2646,-2.9018,0.0,0.0,0.0,0.0,0.0,0.0,0.0,0.0,0.0,0.0,0.0,0.0,0.0,0.0,0.0,0.0,0.0,0.0,0.0,0.0,0.0,0.0,0.0,0.0,0.0,0.0,0.0,0.0,0.0,0.0,0.0,0.0,0.0,0.0,0.0,0.0,0.0,0.0,0.0,0.0,0.0,0.0,0.0,0.0,0.0,0.0,0.0,0.0,0.0,0.0,0.0,0.0,0.0,0.0,0.0,0.0,0.0,0.0,0.0,0.0,0.0,0.0,0.0,0.0,0.0,0.0,0.0,0.0,0.0,0.0,0.0,0.0,0.0,0.0,0.0,0.0,0.0,0.0,0.0,0.0,0.0,0.0,0.0,0.0,0.0,0.0,0.0,0.0,0.0,0.0,0.0,0.0,0.0,0.0,0.0,0.0,0.0,0.0,0.0,0.0,0.0,0.0,0.0,0.0,0.0,0.0,0.0,0.0,0.0,-3.3489,-3.3481,-3.3421,-3.3929,-3.2268,0.0,0.0,0.0,0.0,0.0,0.0,0.0,0.0,0.0,0.0,0.0,0.0,0.0,0.0,0.0,0.0,0.0,0.0,0.0,0.0,0.0,0.0,0.0,0.0,0.0,0.0,0.0,0.0,0.0,0.0,0.0,0.0,0.0,0.0,0.0,0.0,0.0,0.0,0.0,0.0,0.0,0.0,0.0,0.0,0.0,0.0,0.0,0.0,0.0,0.0,0.0,0.0,0.0,0.0,0.0,0.0,0.0,0.0,0.0,0.0,0.0,0.0,0.0,0.0,0.0,0.0,0.0,0.0,0.0,0.0,0.0,0.0,0.0,0.0,0.0,0.0,0.0,0.0,0.0,0.0,0.0,0.0,0.0,0.0,0.0,0.0,0.0,0.0,0.0,0.0,0.0,0.0,0.0,0.0,0.0,0.0,0.0,0.0,0.0,0.0,0.0,0.0,0.0,0.0,0.0,0.0,0.0,0.0,0.0,-3.3231,-3.4473,-3.4459,-3.3342,-3.3925,-3.2034,0.0,0.0,0.0,0.0,0.0,0.0,0.0,0.0,0.0,0.0,0.0,0.0,0.0,0.0,0.0,0.0,0.0,0.0,0.0,0.0,0.0,0.0,0.0,0.0,0.0,0.0,0.0,0.0,0.0,0.0,0.0,0.0,0.0,0.0,0.0,0.0,0.0,0.0,0.0,0.0,0.0,0.0,0.0,0.0,0.0,0.0,0.0,0.0,0.0,0.0,0.0,0.0,0.0,0.0,0.0,0.0,0.0,0.0,0.0,0.0,0.0,0.0,0.0,0.0,0.0,0.0,0.0,0.0,0.0,0.0,0.0,0.0,0.0,0.0,0.0,0.0,0.0,0.0,0.0,0.0,0.0,0.0,0.0,0.0,0.0,0.0,0.0,0.0,0.0,0.0,0.0,0.0,0.0,0.0,0.0,0.0,0.0,0.0,0.0,0.0,0.0,0.0,0.0,0.0,0.0,0.0,0.0,0.0,0.0,-3.325,0.0,-3.4997,0.0,-3.392,-3.1825,0.0,0.0,0.0,0.0,0.0,0.0,0.0,0.0,0.0,0.0,0.0,0.0,0.0,0.0,0.0,0.0,0.0,0.0,0.0,0.0,0.0,0.0,0.0,0.0,0.0,0.0,0.0,0.0,0.0,0.0,0.0,0.0,0.0,0.0,0.0,0.0,0.0,0.0,0.0,0.0,0.0,0.0,0.0,0.0,0.0,0.0,0.0,0.0,0.0,0.0,0.0,0.0,0.0,0.0,0.0,0.0,0.0,0.0,0.0,0.0,0.0,0.0,0.0,0.0,0.0,0.0,0.0,0.0,0.0,0.0,0.0,0.0,0.0,0.0,0.0,0.0,0.0,0.0,0.0,0.0,0.0,0.0,0.0,0.0,0.0,0.0,0.0,0.0,0.0,0.0,0.0,0.0,0.0,0.0,0.0,0.0,0.0,0.0,0.0,0.0,0.0,0.0,0.0,0.0,0.0,0.0,0.0,0.0,-2.9326,-3.3269,-3.4264,-3.5034,-3.5612,-3.3983,-3.1777,0.0,0.0,0.0,0.0,0.0,0.0,0.0,0.0,0.0,0.0,0.0,0.0,0.0,0.0,0.0,0.0,0.0,0.0,0.0,0.0,0.0,0.0,0.0,0.0,0.0,0.0,0.0,0.0,0.0,0.0,0.0,0.0,0.0,0.0,0.0,0.0,0.0,0.0,0.0,0.0,0.0,0.0,0.0,0.0,0.0,0.0,0.0,0.0,0.0,0.0,0.0,0.0,0.0,0.0,0.0,0.0,0.0,0.0,0.0,0.0,0.0,0.0,0.0,0.0,0.0,0.0,0.0,0.0,0.0,0.0,0.0,0.0,0.0,0.0,0.0,0.0,0.0,0.0,0.0,0.0,0.0,0.0,0.0,0.0,0.0,0.0,0.0,0.0,0.0,0.0,0.0,0.0,0.0,0.0,0.0,0.0,0.0,0.0,0.0,0.0,0.0,0.0,0.0,0.0,0.0,0.0,0.0,0.0,0.0,-3.5033,-3.5897,-3.6133,-3.568,-3.4492,-3.2031,0.0,0.0,0.0,0.0,0.0,0.0,0.0,0.0,0.0,0.0,0.0,0.0,0.0,0.0,0.0,0.0,0.0,0.0,0.0,0.0,0.0,0.0,0.0,0.0,0.0,0.0,0.0,0.0,0.0,0.0,0.0,0.0,0.0,0.0,0.0,0.0,0.0,0.0,0.0,0.0,0.0,0.0,0.0,0.0,0.0,0.0,0.0,0.0,0.0,0.0,0.0,0.0,0.0,0.0,0.0,0.0,0.0,0.0,0.0,0.0,0.0,0.0,0.0,0.0,0.0,0.0,0.0,0.0,0.0,0.0,0.0,0.0,0.0,0.0,0.0,0.0,0.0,0.0,0.0,0.0,0.0,0.0,0.0,0.0,0.0,0.0,0.0,0.0,0.0,0.0,0.0,0.0,0.0,0.0,0.0,0.0,0.0,0.0,0.0,0.0,0.0,0.0,0.0,0.0,0.0,0.0,0.0,0.0,0.0,-3.7587,-3.7305,-3.7258,-3.753,-3.564,-3.3192,-3.0196,0.0,0.0,0.0,0.0,0.0,0.0,0.0,0.0,0.0,0.0,0.0,0.0,0.0,0.0,0.0,0.0,0.0,0.0,0.0,0.0,0.0,0.0,0.0,0.0,0.0,0.0,0.0,0.0,0.0,0.0,0.0,0.0,0.0,0.0,0.0,0.0,0.0,0.0,0.0,0.0,0.0,0.0,0.0,0.0,0.0,0.0,0.0,0.0,0.0,0.0,0.0,0.0,0.0,0.0,0.0,0.0,0.0,0.0,0.0,0.0,0.0,0.0,0.0,0.0,0.0,0.0,0.0,0.0,0.0,0.0,0.0,0.0,0.0,0.0,0.0,0.0,0.0,0.0,0.0,0.0,0.0,0.0,0.0,0.0,0.0,0.0,0.0,0.0,0.0,0.0,0.0,0.0,0.0,0.0,0.0,0.0,0.0,0.0,0.0,0.0,0.0,0.0,0.0,0.0,0.0,0.0,0.0,0.0,-4.0872,-3.8638,-3.8502,-4.0507,-3.7326,-3.496,0.0,0.0,0.0,0.0,0.0,0.0,0.0,0.0,0.0,0.0,0.0,0.0,0.0,0.0,0.0,0.0,0.0,0.0,0.0,0.0,0.0,0.0,0.0,0.0,0.0,0.0,0.0,0.0,0.0,0.0,0.0,0.0,0.0,0.0,0.0,0.0,0.0,0.0,0.0,0.0,0.0,0.0,0.0,0.0,0.0,0.0,0.0,0.0,0.0,0.0,0.0,0.0,0.0,0.0,0.0,0.0,0.0,0.0,0.0,0.0,0.0,0.0,0.0,0.0,0.0,0.0,0.0,0.0,0.0,0.0,0.0,0.0,0.0,0.0,0.0,0.0,0.0,0.0,0.0,0.0,0.0,0.0,0.0,0.0,0.0,0.0,0.0,0.0,0.0,0.0,0.0,0.0,0.0,0.0,0.0,0.0,0.0,0.0,0.0,0.0,0.0,0.0,0.0,0.0,0.0,0.0,0.0,0.0,0.0,-4.2412,-4.2018,-4.1627,-4.1455,-3.924,-3.6162,0.0,0.0,0.0,0.0,0.0,0.0,0.0,0.0,0.0,0.0,0.0,0.0,0.0,0.0,0.0,0.0,0.0,0.0,0.0,0.0,0.0,0.0,0.0,0.0,0.0,0.0,0.0,0.0,0.0,0.0,0.0,0.0,0.0,0.0,0.0,0.0,0.0,0.0,0.0,0.0,0.0,0.0,0.0,0.0,0.0,0.0,0.0,0.0,0.0,0.0,0.0,0.0,0.0,0.0,0.0,0.0,0.0,0.0,0.0,0.0,0.0,0.0,0.0,0.0,0.0,0.0,0.0,0.0,0.0,0.0,0.0,0.0,0.0,0.0,0.0,0.0,0.0,0.0,0.0,0.0,0.0,0.0,0.0,0.0,0.0,0.0,0.0,0.0,0.0,0.0,0.0,0.0,0.0,0.0,0.0,0.0,0.0,0.0,0.0,0.0,0.0,0.0,0.0,0.0,0.0,0.0,0.0,0.0,-3.9833,-4.3233,-4.4646,-4.4725,-4.3341,-4.081,-3.7428,0.0,0.0,0.0,0.0,0.0,0.0,0.0,0.0,0.0,0.0,0.0,0.0,0.0,0.0,0.0,0.0,0.0,0.0,0.0,0.0,0.0,0.0,0.0,0.0,0.0,0.0,0.0,0.0,0.0,0.0,0.0,0.0,0.0,0.0,0.0,0.0,0.0,0.0,0.0,0.0,0.0,0.0,0.0,0.0,0.0,0.0,0.0,0.0,0.0,0.0,0.0,0.0,0.0,0.0,0.0,0.0,0.0,0.0,0.0,0.0,0.0,0.0,0.0,0.0,0.0,0.0,0.0,0.0,0.0,0.0,0.0,0.0,0.0,0.0,0.0,0.0,0.0,0.0,0.0,0.0,0.0,0.0,0.0,0.0,0.0,0.0,0.0,0.0,0.0,0.0,0.0,0.0,0.0,0.0,0.0,0.0,0.0,0.0,0.0,0.0,0.0,0.0,0.0,0.0,0.0,0.0,0.0,0.0,-4.096,-4.3538,-4.6584,-4.7301,-4.5388,-4.2124,-3.8663,0.0,0.0,0.0,0.0,0.0,0.0,0.0,0.0,0.0,0.0,0.0,0.0,0.0,0.0,0.0,0.0,0.0,0.0,0.0,0.0,0.0,0.0,0.0,0.0,0.0,0.0,0.0,0.0,0.0,0.0,0.0,0.0,0.0,0.0,0.0,0.0,0.0,0.0,0.0,0.0,0.0,0.0,0.0,0.0,0.0,0.0,0.0,0.0,0.0,0.0,0.0,0.0,0.0,0.0,0.0,0.0,0.0,0.0,0.0,0.0,0.0,0.0,0.0,0.0,0.0,0.0,0.0,0.0,0.0,0.0,0.0,0.0,0.0,0.0,0.0,0.0,0.0,0.0,0.0,0.0,0.0,0.0,0.0,0.0,0.0,0.0,0.0,0.0,0.0,0.0,0.0,0.0,0.0,0.0,0.0,0.0,0.0,0.0,0.0,0.0,0.0,0.0,0.0,0.0,0.0,0.0,0.0,0.0,-4.2036,-4.5134,-4.7087,-4.7227,-4.535,-4.3203,-3.9837,0.0,0.0,0.0,0.0,0.0,0.0,0.0,0.0,0.0,0.0,0.0,0.0,0.0,0.0,0.0,0.0,0.0,0.0,0.0,0.0,0.0,0.0,0.0,0.0,0.0,0.0,0.0,0.0,0.0,0.0,0.0,0.0,0.0,0.0,0.0,0.0,0.0,0.0,0.0,0.0,0.0,0.0,0.0,0.0,0.0,0.0,0.0,0.0,-2.8246,0.0,0.0,0.0,0.0,0.0,0.0,0.0,0.0,0.0,0.0,0.0,0.0,0.0,0.0,0.0,0.0,0.0,0.0,0.0,0.0,0.0,0.0,0.0,0.0,0.0,0.0,0.0,0.0,0.0,0.0,0.0,0.0,0.0,0.0,0.0,0.0,0.0,0.0,0.0,0.0,0.0,0.0,0.0,0.0,0.0,0.0,0.0,0.0,0.0,0.0,0.0,0.0,0.0,0.0,0.0,0.0,0.0,0.0,0.0,-4.2559,-4.5082,-4.7417,-4.7522,-4.5287,-4.3426,-4.0099,0.0,0.0,0.0,0.0,0.0,0.0,0.0,0.0,0.0,0.0,0.0,0.0,0.0,0.0,0.0,0.0,0.0,0.0,0.0,0.0,0.0,0.0,0.0,0.0,0.0,0.0,0.0,0.0,0.0,0.0,0.0,0.0,0.0,0.0,0.0,0.0,0.0,0.0,0.0,0.0,0.0,0.0,0.0,0.0,0.0,0.0,0.0,0.0,0.0,0.0,0.0,0.0,0.0,0.0,0.0,0.0,0.0,0.0,0.0,0.0,0.0,0.0,0.0,0.0,0.0,0.0,0.0,0.0,0.0,0.0,0.0,0.0,0.0,0.0,0.0,0.0,0.0,0.0,0.0,0.0,0.0,0.0,0.0,0.0,0.0,0.0,0.0,0.0,0.0,0.0,0.0,0.0,0.0,0.0,0.0,0.0,0.0,0.0,0.0,0.0,0.0,0.0,0.0,0.0,0.0,0.0,0.0,-3.92,-4.2515,-4.4261,-4.7196,-4.7504,-4.4951,-4.3078,-3.9816,-3.5042,0.0,0.0,0.0,0.0,0.0,0.0,0.0,0.0,0.0,0.0,0.0,0.0,0.0,0.0,0.0,0.0,0.0,0.0,0.0,0.0,0.0,0.0,0.0,0.0,0.0,0.0,0.0,0.0,0.0,0.0,0.0,0.0,0.0,0.0,0.0,0.0,0.0,0.0,-2.63,-2.8367,0.0,0.0,0.0,0.0,0.0,0.0,0.0,0.0,-2.9553,0.0,0.0,0.0,0.0,0.0,0.0,0.0,0.0,0.0,0.0,0.0,0.0,0.0,0.0,0.0,0.0,0.0,0.0,0.0,0.0,0.0,0.0,0.0,0.0,0.0,0.0,0.0,0.0,0.0,0.0,0.0,0.0,0.0,0.0,0.0,0.0,0.0,0.0,0.0,0.0,0.0,0.0,0.0,0.0,0.0,0.0,0.0,0.0,0.0,0.0,0.0,0.0,0.0,0.0,0.0,0.0,-3.4142,-3.8454,-4.1421,-4.3077,-4.5444,-4.5793,-4.3956,-4.2104,-3.9106,-3.4899,0.0,0.0,0.0,0.0,0.0,0.0,0.0,0.0,0.0,0.0,0.0,0.0,0.0,0.0,0.0,0.0,0.0,0.0,0.0,0.0,0.0,0.0,0.0,0.0,0.0,0.0,0.0,0.0,0.0,0.0,0.0,0.0,0.0,0.0,0.0,0.0,0.0,0.0,0.0,-2.9854,-3.0578,0.0,0.0,0.0,0.0,0.0,0.0,0.0,0.0,-3.0864,0.0,0.0,0.0,0.0,0.0,0.0,0.0,0.0,0.0,0.0,0.0,0.0,0.0,0.0,0.0,0.0,0.0,0.0,0.0,0.0,0.0,0.0,0.0,0.0,0.0,0.0,0.0,0.0,0.0,0.0,0.0,0.0,0.0,0.0,0.0,0.0,0.0,0.0,0.0,0.0,0.0,0.0,0.0,0.0,0.0,0.0,0.0,0.0,0.0,0.0,0.0,0.0,0.0,0.0,0.0,-3.4016,-3.7674,-4.057,-4.26,-4.4064,-4.4205,-4.2924,-4.0726,-3.7808,0.0,0.0,0.0,0.0,0.0,0.0,0.0,0.0,0.0,0.0,0.0,0.0,0.0,0.0,0.0,0.0,0.0,0.0,0.0,0.0,0.0,0.0,0.0,0.0,0.0,0.0,0.0,0.0,0.0,0.0,0.0,0.0,0.0,0.0,0.0,0.0,0.0,0.0,0.0,0.0,-3.0965,-3.184,-3.2198,0.0,0.0,0.0,0.0,0.0,0.0,-3.2156,-3.1968,0.0,0.0,0.0,0.0,0.0,0.0,0.0,0.0,0.0,0.0,0.0,0.0,0.0,0.0,0.0,0.0,0.0,0.0,0.0,0.0,0.0,0.0,0.0,0.0,0.0,0.0,0.0,0.0,0.0,0.0,0.0,0.0,0.0,0.0,0.0,0.0,0.0,0.0,0.0,0.0,0.0,0.0,0.0,0.0,0.0,0.0,0.0,0.0,0.0,0.0,0.0,0.0,0.0,0.0,0.0,-3.3784,-3.6893,-3.9587,-4.1825,-4.2595,-4.253,-4.1638,-3.9298,-3.6513,0.0,0.0,0.0,0.0,0.0,0.0,0.0,0.0,0.0,0.0,0.0,0.0,0.0,0.0,0.0,0.0,0.0,0.0,0.0,0.0,0.0,0.0,0.0,0.0,0.0,0.0,0.0,0.0,0.0,0.0,0.0,0.0,0.0,0.0,0.0,0.0,0.0,0.0,0.0,0.0,0.0,-3.3016,-3.3651,-3.4124,0.0,0.0,0.0,0.0,-3.34,-3.3138,0.0,0.0,0.0,0.0,0.0,0.0,0.0,0.0,0.0,0.0,0.0,0.0,0.0,0.0,0.0,0.0,0.0,0.0,0.0,0.0,0.0,0.0,0.0,0.0,0.0,0.0,0.0,0.0,0.0,0.0,0.0,0.0,0.0,0.0,0.0,0.0,0.0,0.0,0.0,0.0,0.0,0.0,0.0,0.0,0.0,0.0,0.0,0.0,0.0,0.0,0.0,0.0,0.0,0.0,0.0,0.0,-3.3494,-3.6067,-3.8211,-3.9871,-4.0645,-4.0612,-3.983,-3.8076,-3.5634,0.0,0.0,0.0,0.0,0.0,0.0,0.0,0.0,0.0,0.0,0.0,0.0,0.0,0.0,0.0,0.0,0.0,0.0,0.0,0.0,0.0,0.0,0.0,0.0,0.0,0.0,0.0,0.0,0.0,0.0,0.0,0.0,0.0,0.0,0.0,0.0,0.0,0.0,0.0,0.0,0.0,-3.337,-3.3295,-3.3731,-3.3942,0.0,0.0,-3.3434,-3.3991,-3.3423,0.0,0.0,0.0,0.0,0.0,0.0,0.0,0.0,0.0,0.0,0.0,0.0,0.0,0.0,0.0,0.0,0.0,0.0,0.0,0.0,0.0,0.0,0.0,0.0,0.0,0.0,0.0,0.0,0.0,0.0,0.0,0.0,0.0,0.0,0.0,0.0,0.0,0.0,0.0,0.0,0.0,0.0,0.0,0.0,0.0,0.0,0.0,0.0,0.0,0.0,0.0,0.0,0.0,0.0,0.0,-3.0227,-3.3364,-3.539,-3.7402,-3.9398,-3.9346,-3.9111,-3.8784,-3.7158,-3.4806,0.0,0.0,0.0,0.0,0.0,0.0,0.0,0.0,0.0,0.0,0.0,0.0,0.0,0.0,0.0,0.0,0.0,0.0,0.0,0.0,0.0,0.0,0.0,0.0,0.0,0.0,0.0,0.0,0.0,0.0,0.0,0.0,0.0,0.0,0.0,0.0,0.0,0.0,0.0,0.0,0.0,0.0,-3.3658,-3.4435,0.0,0.0,0.0,-3.4369,-3.4565,0.0,0.0,0.0,0.0,0.0,0.0,0.0,0.0,0.0,0.0,0.0,0.0,0.0,0.0,0.0,0.0,0.0,0.0,0.0,0.0,0.0,0.0,0.0,0.0,0.0,0.0,0.0,0.0,0.0,0.0,0.0,0.0,0.0,0.0,0.0,0.0,0.0,0.0,0.0,0.0,0.0,0.0,0.0,0.0,0.0,0.0,0.0,0.0,0.0,0.0,0.0,0.0,0.0,0.0,0.0,0.0,0.0,-3.3647,-3.5294,-3.7268,-3.9568,-3.9079,-3.8572,-3.8191,-3.6653,0.0,0.0,0.0,0.0,0.0,0.0,0.0,0.0,0.0,0.0,0.0,0.0,0.0,0.0,0.0,0.0,0.0,0.0,0.0,0.0,0.0,0.0,0.0,0.0,0.0,0.0,0.0,-1.8967,0.0,0.0,0.0,0.0,0.0,0.0,0.0,0.0,0.0,0.0,0.0,0.0,0.0,0.0,-3.3897,-3.4045,-3.5142,-3.5949,0.0,0.0,-3.53,-3.5205,-3.5015,-3.4402,0.0,0.0,0.0,0.0,0.0,0.0,0.0,0.0,0.0,0.0,0.0,0.0,0.0,0.0,0.0,0.0,0.0,0.0,0.0,0.0,0.0,0.0,0.0,0.0,0.0,0.0,0.0,0.0,0.0,0.0,0.0,0.0,0.0,0.0,0.0,0.0,0.0,0.0,0.0,0.0,0.0,0.0,0.0,0.0,0.0,0.0,0.0,0.0,0.0,0.0,0.0,0.0,0.0,0.0,0.0,-3.4407,-3.6107,-3.8029,-4.0311,-4.0383,-3.9659,-3.8227,-3.6635,-3.3954,0.0,0.0,0.0,0.0,0.0,0.0,0.0,0.0,0.0,0.0,0.0,0.0,0.0,0.0,0.0,0.0,0.0,0.0,0.0,0.0,0.0,0.0,0.0,0.0,0.0,0.0,0.0,0.0,0.0,0.0,0.0,0.0,0.0,0.0,0.0,0.0,0.0,0.0,0.0,0.0,0.0,-3.366,-3.4184,-3.5467,-3.6556,0.0,0.0,-3.5926,-3.5909,-3.5346,-3.4402,-3.295,0.0,0.0,0.0,0.0,0.0,0.0,0.0,0.0,0.0,0.0,0.0,0.0,0.0,0.0,0.0,0.0,0.0,0.0,0.0,0.0,0.0,0.0,0.0,0.0,0.0,0.0,0.0,0.0,0.0,0.0,0.0,0.0,0.0,0.0,0.0,0.0,0.0,0.0,0.0,0.0,0.0,0.0,0.0,0.0,0.0,0.0,0.0,0.0,0.0,0.0,0.0,0.0,0.0,-3.0573,-3.4537,-3.6164,-3.8136,-4.0383,-4.0492,-3.9532,-3.752,-3.685,-3.4422,0.0,0.0,0.0,0.0,0.0,0.0,0.0,0.0,0.0,0.0,0.0,0.0,0.0,0.0,0.0,0.0,0.0,0.0,0.0,0.0,0.0,0.0,0.0,0.0,0.0,0.0,0.0,0.0,-1.928,-1.9937,-2.0743,0.0,0.0,0.0,0.0,0.0,0.0,0.0,0.0,0.0,0.0,-3.3609,-3.47,-3.5663,0.0,0.0,-3.6945,-3.6539,-3.6075,-3.576,-3.5065,-3.3607,-3.3375,0.0,0.0,0.0,0.0,0.0,0.0,0.0,0.0,0.0,0.0,0.0,0.0,0.0,0.0,0.0,0.0,0.0,0.0,0.0,0.0,0.0,0.0,0.0,0.0,0.0,0.0,0.0,0.0,0.0,0.0,0.0,0.0,0.0,0.0,0.0,0.0,0.0,0.0,0.0,0.0,0.0,0.0,0.0,0.0,0.0,0.0,0.0,0.0,0.0,0.0,0.0,0.0,-3.0573,-3.4555,-3.6415,-3.8482,-4.0818,-4.0854,-3.9858,-3.781,-3.7249,-3.4857,0.0,0.0,0.0,0.0,0.0,0.0,0.0,0.0,0.0,0.0,0.0,0.0,0.0,0.0,0.0,0.0,0.0,0.0,0.0,0.0,0.0,0.0,0.0,0.0,0.0,0.0,0.0,0.0,-1.9324,-2.0206,-2.1309,0.0,0.0,0.0,0.0,0.0,0.0,0.0,0.0,0.0,0.0,-3.4074,-3.5292,-3.6213,-3.7087,-3.7793,-3.7633,-3.7251,-3.6738,-3.629,-3.5578,-3.4319,0.0,0.0,0.0,0.0,0.0,0.0,0.0,0.0,0.0,0.0,0.0,0.0,0.0,0.0,0.0,0.0,0.0,0.0,0.0,0.0,0.0,0.0,0.0,0.0,0.0,0.0,0.0,0.0,0.0,0.0,0.0,0.0,0.0,0.0,0.0,0.0,0.0,0.0,0.0,0.0,0.0,0.0,0.0,0.0,0.0,0.0,0.0,0.0,0.0,0.0,0.0,0.0,0.0,-3.0609,-3.4552,-3.6941,-3.9297,-4.1542,-4.1669,-4.089,-3.9315,-3.7846,-3.5111,-3.1089,0.0,0.0,0.0,0.0,0.0,0.0,0.0,0.0,0.0,0.0,0.0,0.0,0.0,0.0,0.0,0.0,0.0,0.0,0.0,0.0,0.0,0.0,0.0,0.0,0.0,0.0,-1.8657,-1.9554,-2.0705,0.0,0.0,0.0,0.0,0.0,0.0,0.0,0.0,0.0,0.0,-3.3011,-3.5131,-3.5917,-3.7235,-3.8361,-3.91,-3.8626,-3.8153,-3.8112,-3.6953,-3.5744,0.0,0.0,0.0,0.0,0.0,0.0,0.0,0.0,0.0,0.0,0.0,0.0,0.0,0.0,0.0,0.0,0.0,0.0,0.0,0.0,0.0,0.0,0.0,0.0,0.0,0.0,0.0,0.0,0.0,0.0,0.0,0.0,0.0,0.0,0.0,0.0,0.0,0.0,0.0,0.0,-3.3481,-3.3468,0.0,0.0,0.0,0.0,0.0,0.0,0.0,0.0,0.0,0.0,0.0,0.0,-3.1719,-3.4624,-3.7085,-3.923,-4.105,-4.1104,-4.034,-3.8775,-3.8209,-3.5788,-3.1291,0.0,0.0,0.0,0.0,0.0,0.0,0.0,0.0,0.0,0.0,0.0,0.0,0.0,0.0,0.0,0.0,0.0,0.0,0.0,0.0,0.0,0.0,0.0,0.0,0.0,-1.9181,0.0,0.0,0.0,0.0,0.0,0.0,0.0,0.0,0.0,0.0,0.0,-3.051,-3.2448,-3.3972,-3.5528,-3.7218,-3.7855,-3.846,0.0,0.0,0.0,0.0,0.0,0.0,0.0,0.0,0.0,0.0,0.0,0.0,0.0,0.0,-3.1213,-2.9658,-2.9182,-2.877,-2.7946,0.0,0.0,0.0,0.0,0.0,0.0,0.0,0.0,0.0,0.0,0.0,0.0,0.0,0.0,0.0,0.0,-2.816,0.0,0.0,0.0,0.0,0.0,0.0,0.0,0.0,-3.4751,-3.5736,-3.6512,-3.6504,-3.6164,0.0,-3.4365,-3.2419,0.0,0.0,0.0,0.0,0.0,0.0,0.0,0.0,-3.206,-3.4721,-3.6933,-3.8828,-4.0363,-4.0454,-3.9942,-3.8899,-3.7783,-3.559,-3.2163,-2.9491,-2.7038,0.0,0.0,0.0,0.0,0.0,0.0,0.0,0.0,0.0,0.0,0.0,0.0,0.0,0.0,0.0,0.0,0.0,0.0,0.0,0.0,0.0,0.0,0.0,-2.0078,0.0,0.0,0.0,0.0,0.0,0.0,0.0,0.0,0.0,-2.839,-3.0311,-3.2282,-3.3955,-3.5247,-3.6589,-3.8013,0.0,0.0,0.0,0.0,0.0,0.0,0.0,-3.851,-3.8295,-3.803,-3.7781,-3.7533,-3.6916,-3.6153,-3.5122,0.0,0.0,-3.1596,-3.0974,-3.0545,-2.9807,-2.9603,-2.9485,-2.9277,-2.9739,-3.0208,0.0,0.0,0.0,0.0,0.0,0.0,0.0,0.0,-3.1312,-3.161,0.0,0.0,0.0,0.0,0.0,0.0,0.0,0.0,0.0,0.0,-3.6967,-3.819,-3.8992,-3.8946,-3.8909,-3.8813,-3.7204,-3.5922,-3.4727,-3.0584,0.0,0.0,0.0,0.0,0.0,0.0,-3.1785,-3.4842,-3.6641,-3.823,-3.9714,-3.9751,-3.9698,-3.957,-3.6703,-3.4656,-3.3602,-3.0644,-2.8203,-2.6498,-2.484,0.0,0.0,0.0,0.0,0.0,0.0,0.0,0.0,0.0,0.0,0.0,0.0,0.0,0.0,0.0,0.0,0.0,0.0,0.0,0.0,-2.0789,0.0,0.0,0.0,0.0,0.0,0.0,0.0,0.0,0.0,0.0,-3.0654,-3.2481,-3.4121,-3.4916,0.0,0.0,0.0,0.0,-3.9299,-3.9315,-3.9315,-3.9547,-4.0276,-3.9796,-3.958,-4.0293,0.0,0.0,-3.8394,-3.8068,-3.7496,-3.6437,-3.5826,-3.496,-3.3442,-3.2765,-3.2376,-3.2209,-3.2023,-3.1913,-3.1814,-3.2102,-3.2539,-3.8773,0.0,0.0,0.0,0.0,-3.5562,-3.5562,-3.5572,-3.5783,-3.5572,-3.5029,-3.5048,0.0,0.0,0.0,0.0,0.0,0.0,-3.6309,-3.7903,-3.8419,-3.9088,-3.9938,-3.991,-3.9576,-3.8974,-3.8432,-3.7709,-3.6777,-3.4831,-3.248,-2.9866,0.0,0.0,0.0,0.0,-3.4226,-3.5256,-3.74,-3.8773,-3.9275,-3.8738,-3.814,-3.7544,-3.6648,-3.5198,-3.3134,-3.1617,-2.977,-2.7544,-2.5909,0.0,0.0,0.0,0.0,0.0,0.0,0.0,0.0,0.0,0.0,0.0,0.0,0.0,0.0,0.0,0.0,0.0,0.0,0.0,-2.1734,-2.2236,-2.2784,0.0,0.0,0.0,0.0,0.0,0.0,0.0,0.0,0.0,-3.3591,-3.417,-3.5247,0.0,0.0,-3.8394,-3.8934,-3.9183,-3.9315,-3.9315,0.0,0.0,0.0,-4.0227,-4.0326,-4.1011,-4.0928,-4.0564,-3.9868,-3.949,-3.8967,-3.7929,-3.7265,-3.6603,-3.5964,-3.4653,-3.3718,-3.3496,-3.3319,-3.3156,-3.3021,-3.3141,-3.3276,-4.2907,-4.0754,-3.932,-3.8732,-3.8732,-3.8734,-3.8725,-3.8744,-3.9069,-3.8916,-3.8476,-3.8143,-3.7703,-3.7177,-3.6509,0.0,0.0,0.0,-3.8028,-3.9011,-3.9699,-4.0272,-4.0769,-4.0769,-4.0501,-4.0005,-3.9614,-3.8985,-3.8099,-3.749,-3.586,-3.332,0.0,0.0,-3.2396,-3.4371,-3.5738,-3.6445,-3.7949,-3.8928,-3.9298,-3.8519,-3.766,-3.6795,-3.6143,-3.4915,-3.3029,-3.1848,-3.0368,-2.8537,-2.689,-2.5613,0.0,0.0,0.0,0.0,0.0,0.0,0.0,0.0,0.0,0.0,0.0,-2.0572,-2.1196,0.0,0.0,0.0,-2.1937,-2.2605,-2.3216,-2.3991,0.0,0.0,0.0,0.0,0.0,0.0,0.0,-3.2262,-3.3561,-3.4797,-3.6009,-3.6208,-3.6704,-3.8046,-3.846,-3.8791,-3.9249,0.0,-3.9315,-3.9315,-3.9315,-3.9564,-4.0276,-4.0409,-4.0641,-4.1281,-4.1397,-4.1177,-4.0514,-4.0143,-3.9584,-3.8683,-3.796,-3.7433,-3.7135,-3.5981,-3.5034,-3.482,-3.4589,-3.4403,-3.4292,-3.4292,-3.4292,-4.5754,-4.5332,-4.2089,-4.0746,-4.0709,-4.0711,-4.0702,-4.075,-4.1476,-4.1772,-4.1628,-4.0922,-4.053,-4.0301,-3.8725,0.0,0.0,-3.8744,-3.9088,-3.9183,-4.0692,-4.1409,-4.1418,-4.138,-4.1399,-4.138,-4.0645,-3.9843,-3.9042,-3.8918,-3.844,-3.7501,-3.5794,-3.5214,-3.5712,-3.5834,-3.6662,-3.8097,-3.8392,-3.8813,-3.9397,-3.8764,-3.7939,-3.6836,-3.539,-3.4145,-3.3122,-3.1568,-3.0294,-2.9353,-2.7789,-2.6562,-2.5727,0.0,0.0,0.0,0.0,0.0,0.0,0.0,0.0,0.0,0.0,0.0,0.0,0.0,0.0,0.0,-2.3486,0.0,-2.4926,-2.6118,0.0,0.0,0.0,-2.9992,-3.1266,-3.1972,-3.31,-3.5008,0.0,0.0,0.0,0.0,-3.8295,-3.8295,-3.8858,-3.9315,-3.9315,-3.9315,-3.9315,-3.9315,-3.9315,-3.958,-4.0276,-4.0475,-4.0729,-4.1309,-4.1397,-4.1177,-4.0531,-4.0127,-3.9607,-3.8742,-3.8119,-3.7642,-3.7268,-3.6784,-3.6429,-3.6024,-3.572,-3.5492,-3.54,-3.5385,-3.537,-4.5942,-4.5738,-4.4808,-4.4339,-4.4173,-4.4132,-4.4112,-4.4131,-4.4303,-4.4017,-4.3395,-4.3223,-4.2421,-4.117,-4.0788,-4.0253,-3.9699,-3.989,-3.9995,-4.0014,-4.0406,-4.0597,-4.0587,-4.0597,-4.0587,-4.0578,-4.0396,-4.0186,-3.9957,-3.99,-3.9747,-3.9498,-3.8967,-3.8029,-3.6805,-3.7404,-3.7957,-3.841,-3.9101,-3.8968,-3.7972,-3.8358,-3.7581,-3.5365,-3.4958,-3.4051,-3.258,-3.1487,-3.0509,-2.9645,-2.8641,-2.7677,-2.6767,-2.5103,0.0,0.0,0.0,0.0,0.0,0.0,0.0,0.0,0.0,-2.3135,-2.3524,0.0,-2.4889,0.0,-2.5077,-2.6205,-2.8013,-2.8812,0.0,0.0,-3.1088,-3.2127,-3.3025,-3.4049,-3.5082,-3.6095,-3.7026,-3.7803,-3.831,-3.8754,-3.905,-3.9023,-3.9183,-3.9315,-3.9315,-3.9315,-3.9315,-3.9315,-3.9315,-3.9564,-4.026,-4.0845,-4.1177,-4.1375,-4.138,-4.1177,-4.0525,-4.0199,-3.9741,-3.8802,-3.8286,-3.7857,-3.7447,-3.6983,-3.6631,-3.6383,-3.6005,-3.5621,-3.5537,-3.5489,-3.5489,-4.6032,-4.5944,-4.5794,-4.564,-4.5476,-4.5389,-4.5328,-4.5277,-4.5277,-4.5029,-4.4551,-4.4159,-4.3291,-4.2068,-4.1667,-4.1266,-4.0826,-4.0473,-4.032,-4.032,-4.032,-4.032,-4.032,-4.032,-4.032,-4.032,-4.032,-4.032,-4.0301,-4.0263,-4.0215,-4.0196,-4.0118,-3.954,-3.8499,-3.8885,-3.9134,-3.9167,-3.9317,-3.88,-3.7595,-3.7623,-3.6796,-3.4993,-3.4225,-3.3364,-3.2409,-3.1199,-3.0322,-2.9796,-2.8995,-2.8294,-2.7731,-2.6427,-2.5036,0.0,0.0,0.0,0.0,0.0,0.0,0.0,0.0,0.0,0.0,0.0,-2.6856,0.0,-2.7745,0.0,-3.0229,-3.1107,-3.1828,-3.2403,-3.3524,-3.4511,-3.5223,-3.6106,-3.6935,-3.7614,-3.8211,-3.8698,-3.8948,-3.9192,-3.9379,-3.9379,-3.9352,-3.9315,-3.9315,-3.9315,-3.9315,-3.9315,-3.9315,-3.9415,-3.9879,-4.0199,-4.0464,-4.0464,-4.0464,-4.0332,-3.9978,-3.9732,-3.9418,-3.8903,-3.8472,-3.8103,-3.7682,-3.7238,-3.6831,-3.6554,-3.6195,-3.5863,-3.5636,-3.5569,-3.5489,-4.6087,-4.5993,-4.588,-4.5759,-4.5621,-4.5485,-4.5399,-4.5328,-4.5317,-4.5307,-4.5269,-4.4513,-4.372,-4.2928,-4.2163,-4.1705,-4.1466,-4.0769,-4.0396,-4.032,-4.032,-4.032,-4.032,-4.032,-4.032,-4.032,-4.032,-4.032,-4.032,-4.032,-4.0263,-4.0206,-4.0225,-4.0186,-4.0127,-4.0067,-4.0046,-4.0027,-3.929,-3.8527,-3.7697,-3.6849,-3.6002,-3.511,-3.3587,-3.2695,-3.2501,-3.1018,-3.0102,-2.9902,-2.9207,-2.8696,-2.8527,-2.7747,-2.6484,0.0,-2.5234,0.0,0.0,0.0,0.0,0.0,0.0,0.0,0.0,-2.7821,-2.8648,-3.0147,-3.0878,-3.1515,-3.2132,-3.3331,-3.4232,-3.4704,-3.5838,-3.6883,-3.7531,-3.7991,-3.8503,-3.9088,-3.9041,-3.9186,-3.9612,-3.9616,-3.9511,-3.9511,-3.9432,-3.9362,-3.9352,-3.9325,-3.9315,-3.9315,-3.9315,-3.9332,-3.9365,-3.9365,-3.9381,-3.9348,-3.9415,-3.9315,-3.9365,-3.9181,-3.904,-3.8969,-3.8711,-3.8375,-3.803,-3.7594,-3.7164,-3.6754,-3.6445,-3.6148,-3.5831,-3.5636,-3.5522,-4.6186,-4.6072,-4.606,-4.5939,-4.5768,-4.5661,-4.5535,-4.539,-4.5389,-4.5348,-4.5288,-4.5125,-4.459,-4.3777,-4.3605,-4.2794,-4.1523,-4.1342,-4.0922,-4.032,-4.032,-4.032,-4.032,-4.032,-4.032,-4.032,-4.032,-4.032,-4.032,-4.032,-4.0282,-4.0291,-4.0291,-4.0282,0.0,0.0,0.0,0.0,-3.9404,-3.8563,-3.7703,-3.6912,-3.6063,-3.5196,-3.4238,0.0,-3.2687,-3.1676,-3.0795,-3.011,-2.9909,0.0,0.0,0.0,0.0,0.0,0.0,0.0,0.0,0.0,0.0,0.0,-2.8377,-2.8576,-2.8455,-3.017,-3.1691,-3.2632,-3.3376,-3.4065,-3.466,-3.5865,-3.6564,-3.6545,-3.7505,-3.8456,-3.9158,-3.9191,-3.9389,-3.9974,-3.9935,-3.9843,-3.9867,-3.9729,-3.9668,-3.9668,-3.9651,-3.9625,-3.9625,-3.9415,-3.9315,-3.9315,-3.9315,-3.9315,-3.9315,-3.9315,-3.9315,-3.9315,-3.9315,-3.9315,-3.9315,-3.9272,-3.9175,-3.905,-3.8942,-3.8766,-3.8375,-3.8017,-3.7637,-3.7314,-3.68,-3.632,-3.6037,-3.5799,-3.5671,-4.6231,0.0,-4.6107,-4.6017,0.0,0.0,-4.578,-4.5621,-4.5504,-4.5409,-4.5341,-4.5359,-4.509,-4.465,-4.3778,-4.2947,-4.2087,-4.1285,-4.0673,-4.032,-4.032,-4.032,-4.032,-4.032,-4.032,-4.032,-4.032,-4.032,-4.032,-4.032,-4.032,-4.032,-4.032,-4.032,-4.032,-4.032,-4.032,-4.0301,-3.9011,-3.8132,-3.7674,-3.6509,-3.566,-3.519,0.0,0.0,0.0,0.0,0.0,0.0,0.0,0.0,0.0,0.0,0.0,-2.8316,-2.8819,-2.8894,-2.8361,-2.8907,-2.9432,-2.9771,-3.0894,-3.1401,-3.1007,-3.2469,-3.3719,-3.4519,-3.5578,-3.6312,-3.6556,-3.7451,-3.8238,-3.8705,-3.9206,-3.9738,-4.0297,-4.0261,-4.0237,-4.04,-4.0313,-4.0163,-4.0104,-3.991,-3.9807,-3.9781,-3.9729,-3.9703,-3.9677,-3.9537,-3.9395,-3.9325,-3.9315,-3.9315,-3.9315,-3.9315,-3.9315,-3.9315,-3.9315,-3.9315,-3.9315,-3.9315,-3.9272,-3.9148,-3.9077,-3.8887,-3.8655,-3.8286,-3.7927,-3.7653,-3.7224,-3.6831,-3.6585,-3.6211,-3.5831,-4.6262,-4.6209,-4.6144,-4.6103,-4.6046,-4.6032,-4.5989,-4.59,0.0,0.0,0.0,-4.5409,-4.5332,-4.5093,-4.3655,-4.2861,-4.2517,-4.1151,-4.0435,-4.032,-4.032,-4.032,-4.032,-4.032,-4.032,-4.032,-4.032,-4.032,-4.032,-4.032,-4.032,-4.032,-4.032,-4.032,-4.032,-4.032,-4.0225,-4.0005,-3.8495,-3.7636,-3.7464,-3.5993,-3.5182,-3.5182,-3.456,-3.414,-3.3995,-3.3318,-3.2871,-3.2672,-3.1943,-3.1534,-3.1523,-3.1348,-3.0875,-3.0112,-3.1094,-3.1348,-3.0454,-3.0969,-3.142,-3.1614,-3.2977,-3.3828,-3.3828,-3.457,-3.5294,-3.5949,-3.7365,-3.8166,-3.799,-3.8759,-3.9622,-4.0598,-4.0701,-4.0823,-4.1196,-4.1065,-4.0877,-4.0745,-4.0502,-4.0313,-4.028,-4.0104,-3.9952,-3.991,-3.9858,-3.9755,-3.9729,-3.9616,-3.9484,-3.9379,-3.9352,-3.9325,-3.9299,-3.9315,-3.9315,-3.9315,-3.9315,-3.9315,-3.9315,-3.9315,-3.9315,-3.9288,-3.9148,-3.8996,-3.8832,-3.8511,-3.8185,-3.8001,-3.7653,-3.7314,-3.7208,-3.6723,-3.6242,-4.6292,-4.6282,-4.6279,-4.622,-4.6167,-4.6115,-4.6042,-4.5968,-4.5769,-4.561,-4.5495,-4.5485,-4.5074,-4.4355,-4.4049,-4.3139,-4.1781,-4.1457,-4.096,0.0,-4.032,-4.032,-4.032,-4.032,-4.032,-4.032,-4.032,-4.032,-4.032,-4.032,-4.032,-4.032,-4.032,-4.032,-4.032,-4.032,-3.9928,-3.9183,-3.819,-3.7368,-3.6672,-3.5698,-3.5182,-3.5182,-3.5068,-3.4694,-3.4033,-3.3899,-3.3471,-3.2749,-3.2527,-3.2411,-3.2409,-3.2279,-3.2089,-3.1826,-3.1919,-3.1801,-3.1431,-3.1964,-3.2812,-3.4006,-3.4935,-3.546,-3.5496,-3.62,-3.6723,-3.6886,-3.8284,-3.9154,-3.9085,-4.0182,-4.0965,-4.1087,-4.1413,-4.166,-4.1565,-4.134,-4.1071,-4.0912,-4.0631,-4.0436,-4.033,-4.0163,-4.0062,-4.0062,-4.002,-3.9986,-3.9858,-3.9755,-3.9625,-3.9511,-3.9458,-3.9432,-3.9369,-3.9315,-3.9315,-3.9315,-3.9315,-3.9315,-3.9315,-3.9315,-3.9315,-3.9315,-3.9272,-3.9175,-3.8996,-3.8832,-3.8611,-3.8375,-3.8046,-3.777,-3.7685,-3.7373,-3.7028,-4.6298,-4.6294,-4.6294,-4.6284,-4.6245,-4.6196,-4.6107,-4.6042,-4.5964,-4.5848,-4.5723,-4.5651,-4.512,-4.4297,-4.3768,-4.2821,-4.1634,-4.1129,-4.07,-4.0328,-4.0309,-4.031,-4.0301,-4.032,-4.032,-4.032,-4.032,-4.032,-4.032,-4.032,-4.032,-4.032,-4.032,-4.032,-4.0282,-3.9823,-3.9164,-3.8304,-3.7903,-3.7311,-3.65,-3.566,-3.5182,-3.5182,-3.5182,-3.5037,-3.4674,-3.4655,-3.4483,-3.4074,-3.3565,-3.3277,-3.3246,-3.3151,-3.3034,-3.2871,-3.3149,-3.3182,-3.2915,-3.3391,-3.4153,-3.5229,-3.5998,-3.6653,-3.7069,-3.7448,-3.7828,-3.8281,-3.9351,-4.0148,-4.0456,-4.1104,-4.1622,-4.1879,-4.2093,-4.2086,-4.1892,-4.1692,-4.1391,-4.1111,-4.0853,-4.0631,-4.0419,-4.0288,-4.0163,-4.0138,-4.0113,-4.0087,-4.0011,-3.9944,-3.9833,-3.9668,-3.9599,-3.9563,-3.9448,-3.9405,-3.9379,-3.9315,-3.9315,-3.9315,-3.9315,-3.9315,-3.9315,-3.9315,-3.9315,-3.9255,-3.9148,-3.904,-3.886,-3.875,-3.85,-3.8274,-3.816,-3.7915,-3.7506,-4.6302,-4.6302,-4.6302,-4.6294,-4.6303,-4.6265,-4.62,-4.6126,-4.6127,-4.6071,-4.5941,-4.5633,-4.4962,-4.4102,-4.3184,-4.2272,-4.1429,-4.0737,-4.0368,-4.0323,-4.0316,-4.0327,-4.032,-4.031,-4.032,-4.032,-4.032,-4.032,-4.032,-4.032,-4.032,-4.032,-4.032,-4.032,-4.0282,-3.9451,-3.8572,-3.775,-3.7521,-3.7024,-3.6233,-3.5526,-3.5182,-3.5182,-3.5182,-3.5182,-3.5182,-3.5182,-3.5182,-3.5163,-3.4566,-3.417,-3.412,-3.4042,-3.3913,-3.3806,-3.4186,-3.4328,-3.4066,-3.4631,-3.5251,-3.5875,-3.6755,-3.7538,-3.81,-3.8209,-3.8535,-3.9315,-4.0039,-4.0782,-4.1432,-4.1811,-4.2098,-4.2577,-4.2552,-4.2391,-4.2166,-4.1952,-4.1692,-4.13,-4.1041,-4.0799,-4.0583,-4.0387,-4.0238,-4.0138,-4.0113,-4.0113,-4.0113,-4.0113,-4.0011,-3.9858,-3.9781,-3.9677,-3.9563,-3.9528,-3.9448,-3.9369,-3.9299,-3.9299,-3.9315,-3.9315,-3.9315,-3.9315,-3.9315,-3.9299,-3.9272,-3.9175,-3.905,-3.8969,-3.8805,-3.8667,-3.8611,-3.8315,-3.7886,-4.6302,-4.6302,-4.6302,-4.6294,-4.6306,-4.6301,-4.6253,-4.6201,-4.6186,-4.6193,-4.6087,-4.5126,-4.424,-4.335,-4.2456,-4.1576,-4.0759,-4.0492,-4.0397,-4.0389,-4.0323,-4.0326,-4.0317,-4.031,-4.032,-4.031,-4.032,-4.032,-4.032,-4.032,-4.032,-4.032,-4.032,-4.032,-4.0205,-3.9431,-3.8572,-3.7712,-3.6978,-3.6194,-3.5392,-3.5239,-3.5182,-3.5182,-3.5182,-3.5182,-3.5182,-3.5182,-3.5182,-3.5182,-3.5106,-3.5062,-3.5039,-3.4996,-3.4906,-3.4756,-3.4703,-3.4484,-3.416,-3.5243,-3.5936,-3.6017,-3.7263,-3.8082,-3.8191,-3.8209,-3.8535,-3.9315,-4.0075,-4.0818,-4.1632,-4.2302,-4.2699,-4.2729,-4.2764,-4.2647,-4.2328,-4.2061,-4.1744,-4.1426,-4.1111,-4.084,-4.068,-4.0478,-4.028,-4.0121,-4.0113,-4.0113,-4.0113,-4.0113,-4.0113,-4.0037,-3.9961,-3.9849,-3.972,-3.959,-3.9511,-3.9501,-3.9379,-3.9325,-3.9325,-3.9299,-3.9315,-3.9315,-3.9315,-3.9315,-3.9315,-3.9272,-3.9202,-3.9077,-3.8996,-3.8914,-3.8788,-3.8639,-3.8258,-4.6302,-4.6302,-4.6302,-4.6298,-4.6294,-4.6294,-4.6269,-4.6258,-4.6272,-4.6226,-4.6017,-4.4651,-4.3776,-4.335,-4.2449,-4.1543,-4.0751,-4.0629,-4.054,-4.0515,-4.0438,-4.0381,-4.0366,-4.0307,-4.0318,-4.0309,-4.032,-4.032,-4.032,-4.032,-4.032,-4.032,-4.032,-4.032,-4.0186,-3.8935,-3.8037,-3.7674,-3.6385,-3.5553,-3.5248,-3.5182,-3.5182,-3.5182,-3.5182,-3.5182,-3.5182,-3.5182,-3.5182,-3.5182,-3.5182,-3.5185,-3.5181,-3.5164,-3.5092,-3.4974,-3.4751,-3.4712,-3.4884,-3.5722,-3.6358,-3.6702,-3.7669,-3.8259,-3.8209,-3.8209,-3.8535,-3.9315,-4.0075,-4.0818,-4.1614,-4.2411,-4.2863,-4.288,-4.2861,-4.2767,-4.2609,-4.2351,-4.2065,-4.174,-4.1408,-4.1082,-4.0823,-4.0527,-4.0305,-4.0213,-4.0163,-4.0113,-4.0113,-4.0113,-4.0113,-4.0113,-4.0062,-3.9961,-3.9833,-3.9755,-3.9694,-3.9616,-3.9511,-3.9405,-3.9405,-3.9325,-3.9315,-3.9315,-3.9315,-3.9315,-3.9315,-3.9315,-3.9272,-3.9191,-3.9148,-3.9121,-3.8942,-3.8887,-3.8623,-4.6302,-4.6302,-4.6302,-4.6302,-4.6302,-4.6302,-4.6296,-4.629,-4.6288,-4.6128,-4.5728,-4.4295,-4.347,-4.3074,-4.2222,-4.1432,-4.0883,-4.0759,-4.07,-4.0662,-4.0559,-4.0492,-4.0454,-4.0375,-4.0323,-4.0314,-4.0318,-4.032,-4.032,-4.032,-4.032,-4.032,-4.032,-4.0186,-3.9814,-3.8419,-3.7597,-3.7254,-3.5916,-3.5182,-3.5182,-3.5182,-3.5182,-3.5182,-3.5182,-3.5182,-3.5182,-3.5182,-3.5182,-3.5182,-3.5182,-3.5193,-3.5179,-3.5189,-3.5138,-3.4983,-3.4781,-3.491,-3.5527,-3.6075,-3.6675,-3.7326,-3.7961,-3.8307,-3.8224,-3.8209,-3.8462,-3.8989,-3.9749,-4.0546,-4.1596,-4.223,-4.2629,-4.2846,-4.2919,-4.2862,-4.2803,-4.2589,-4.2313,-4.1998,-4.1675,-4.1358,-4.0982,-4.0655,-4.0478,-4.0379,-4.0238,-4.0163,-4.0138,-4.0121,-4.0113,-4.0113,-4.0113,-4.0062,-3.9977,-3.9884,-3.9858,-3.9781,-3.9642,-3.9563,-3.958,-3.9458,-3.9379,-3.9405,-3.9379,-3.9325,-3.9315,-3.9315,-3.9299,-3.9315,-3.9299,-3.9245,-3.9121,-3.9094,-3.9023,-4.6302,-4.6302,-4.6302,-4.6302,-4.6302,-4.6302,-4.63,-4.6298,-4.6261,-4.583,-4.5045,-4.4042,-4.3218,-4.2451,-4.1542,-4.105,-4.0975,-4.0859,-4.0787,-4.079,-4.0655,-4.0588,-4.0574,-4.0462,-4.0397,-4.0397,-4.0351,-4.0318,-4.031,-4.0301,-4.032,-4.032,-4.032,-3.9881,-3.9107,-3.819,-3.733,-3.6596,-3.5687,-3.5182,-3.5182,-3.5182,-3.5182,-3.5182,-3.5182,-3.5182,-3.5182,-3.5182,-3.5182,-3.5182,-3.5182,-3.5182,-3.5182,-3.5187,-3.511,-3.4936,-3.4841,-3.5078,-3.5705,-3.6279,-3.6887,-3.7558,-3.8123,-3.8368,-3.829,-3.8224,-3.8263,-3.8282,-3.9007,-4.0003,-4.1288,-4.1723,-4.2121,-4.2701,-4.2864,-4.2862,-4.2822,-4.2688,-4.2432,-4.2166,-4.1892,-4.156,-4.1012,-4.0888,-4.0728,-4.0558,-4.0387,-4.0288,-4.028,-4.0188,-4.0138,-4.0096,-4.0096,-4.0113,-4.0087,-4.0011,-3.991,-3.9858,-3.9781,-3.9694,-3.9677,-3.9677,-3.959,-3.9537,-3.9511,-3.9448,-3.9369,-3.9299,-3.9325,-3.9325,-3.9325,-3.9272,-3.9202,-3.9272,-3.9245,-4.6302,-4.6302,-4.6302,-4.6302,-4.6302,-4.6302,-4.6302,-4.6243,-4.5695,-4.5304,-4.4776,-4.3505,-4.2684,-4.2352,-4.1466,-4.107,-4.1046,-4.0976,-4.0924,-4.0917,-4.0801,-4.0744,-4.0712,-4.0595,-4.053,-4.0508,-4.0394,-4.0341,-4.0318,-4.0318,-4.0319,-4.031,-4.032,-3.9881,-3.8992,-3.8113,-3.7311,-3.6481,-3.5641,-3.5182,-3.5182,-3.5182,-3.5182,-3.5182,-3.5182,-3.5182,-3.5182,-3.5182,-3.5182,-3.5182,-3.5182,-3.5182,-3.5182,-3.5193,-3.517,-3.5092,-3.4992,-3.5427,-3.6471,-3.667,-3.723,-3.8305,-3.8502,-3.8499,-3.8356,-3.8274,-3.8241,-3.8263,-3.8426,-3.9152,-4.0111,-4.1089,-4.1813,-4.2122,-4.2592,-4.2882,-4.2861,-4.2785,-4.2649,-4.2412,-4.2121,-4.1697,-4.1318,-4.1065,-4.0942,-4.0776,-4.0558,-4.0461,-4.0412,-4.0313,-4.0213,-4.0213,-4.0146,-4.0113,-4.0113,-4.0045,-4.0011,-3.9986,-3.9952,-3.9875,-3.9849,-3.9755,-3.9677,-3.9668,-3.9642,-3.9616,-3.9537,-3.9511,-3.9494,-3.9432,-3.9432,-3.9379,-3.9299,-3.9352,-3.9369,-4.6302,-4.6302,-4.6302,-4.6302,-4.6302,-4.6302,-4.6144,-4.5831,-4.5246,-4.4697,-4.4055,-4.3177,-4.2533,-4.2023,-4.1647,-4.1345,-4.1113,-4.1064,-4.102,-4.1018,-4.0921,-4.0859,-4.0844,-4.0724,-4.0662,-4.0662,-4.0537,-4.0414,-4.0341,-4.0332,-4.0316,-4.031,-4.031,-3.9708,-3.8667,-3.798,-3.7196,-3.6184,-3.5488,-3.5182,-3.5182,-3.5182,-3.5182,-3.5182,-3.5182,-3.5182,-3.5182,-3.5182,-3.5182,-3.5182,-3.5182,-3.5182,-3.5182,-3.5182,-3.5185,-3.5181,-3.512,-3.5714,-3.6982,-3.7054,-3.7536,-3.886,-3.8848,-3.8658,-3.8403,-3.8322,-3.8256,-3.8225,-3.8209,-3.8464,-3.9079,-4.0184,-4.1126,-4.1596,-4.2194,-4.2629,-4.2865,-4.2843,-4.2765,-4.2589,-4.2269,-4.1913,-4.1609,-4.1323,-4.1157,-4.1035,-4.0758,-4.0631,-4.0558,-4.0461,-4.0362,-4.0379,-4.0296,-4.0238,-4.0213,-4.0163,-4.0113,-4.0062,-4.0037,-4.0003,-3.9952,-3.9858,-3.9807,-3.9781,-3.9755,-3.9755,-3.9729,-3.9703,-3.9668,-3.959,-3.9563,-3.952,-3.9484,-3.9458,-3.9458,-4.6302,-4.6302,-4.6302,-4.6302,-4.6302,-4.6302,-4.5812,-4.5246,-4.5051,-4.4229,-4.3234,-4.3333,-4.2749,-4.1635,-4.1984,-4.1906,-4.1199,-4.1096,-4.1098,-4.1089,-4.1022,-4.0992,-4.0988,-4.0859,-4.0776,-4.0765,-4.0662,-4.0537,-4.0422,-4.0406,-4.0383,-4.0325,-4.0211,-3.939,-3.775,-3.7617,-3.6833,-3.563,-3.522,-3.5182,-3.5182,-3.5182,-3.5182,-3.5182,-3.5182,-3.5182,-3.5182,-3.5182,-3.5182,-3.5182,-3.5182,-3.5182,-3.5182,-3.5182,-3.5193,-3.5198,-3.5191,-3.5902,-3.7077,-3.7225,-3.776,-3.8855,-3.9027,-3.8803,-3.8559,-3.8403,-3.829,-3.8242,-3.8209,-3.8246,-3.8373,-3.9025,-4.0021,-4.1361,-4.1596,-4.1977,-4.252,-4.2847,-4.2824,-4.2631,-4.243,-4.2187,-4.1938,-4.1719,-4.152,-4.1295,-4.1065,-4.0871,-4.0793,-4.0655,-4.0534,-4.051,-4.0461,-4.0387,-4.0355,-4.0305,-4.0213,-4.0163,-4.0113,-4.0062,-4.0062,-3.9986,-3.9961,-3.9935,-3.991,-3.9884,-3.9858,-3.9833,-3.9798,-3.972,-3.9703,-3.9677,-3.9625,-3.959,-3.9642,-4.6302,-4.6302,-4.6302,-4.6302,-4.6302,-4.6302,-4.6124,-4.5831,-4.5285,-4.4678,-4.4211,-4.384,-4.306,-4.224,-4.2298,-4.1927,-4.1147,-4.1099,-4.1111,-4.1098,-4.1089,-4.1052,-4.1042,-4.0972,-4.0898,-4.0812,-4.0754,-4.0668,-4.0559,-4.0537,-4.0477,-4.0304,-3.9774,-3.8897,-3.7821,-3.7156,-3.6271,-3.5335,-3.5182,-3.5182,-3.5182,-3.5182,-3.5182,-3.5182,-3.5182,-3.5182,-3.5182,-3.5182,-3.5182,-3.5182,-3.5182,-3.5182,-3.5182,-3.5182,-3.5182,-3.5185,-3.5198,-3.5548,-3.6444,-3.7016,-3.7589,-3.8415,-3.8862,-3.8937,-3.8743,-3.8525,-3.8403,-3.829,-3.8242,-3.8209,-3.8263,-3.8408,-3.9061,-4.0003,-4.0582,-4.0963,-4.1361,-4.1778,-4.2265,-4.2656,-4.2686,-4.253,-4.2272,-4.2044,-4.1852,-4.1679,-4.1413,-4.1203,-4.1152,-4.0942,-4.0776,-4.0776,-4.0655,-4.0558,-4.0502,-4.0478,-4.0387,-4.0263,-4.0171,-4.0121,-4.0113,-4.0113,-4.0062,-4.0037,-4.0037,-4.0011,-3.9986,-3.9935,-3.991,-3.9875,-3.9833,-3.9781,-3.9729,-3.9729,-3.9755,-4.6302,-4.6302,-4.6302,-4.6302,-4.6302,-4.6302,-4.6105,-4.5773,-4.5246,-4.4836,-4.4465,-4.4309,-4.3509,-4.2669,-4.2728,-4.2181,-4.1187,-4.1109,-4.1106,-4.1099,-4.11,-4.1111,-4.1106,-4.1052,-4.0992,-4.0883,-4.0869,-4.0812,-4.0694,-4.0668,-4.0589,-4.0358,-3.9604,-3.873,-3.7849,-3.6941,-3.6067,-3.5348,-3.5218,-3.5182,-3.5182,-3.5182,-3.5182,-3.5182,-3.5182,-3.5182,-3.5182,-3.5182,-3.5182,-3.5182,-3.5182,-3.5182,-3.5182,-3.5182,-3.5182,-3.5182,-3.5234,-3.5526,-3.6197,-3.6652,-3.7341,-3.8143,-3.8614,-3.8817,-3.8785,-3.8667,-3.8515,-3.834,-3.8257,-3.8224,-3.8209,-3.8227,-3.8462,-3.8897,-3.9641,-4.0184,-4.0474,-4.0945,-4.156,-4.21,-4.2315,-4.2401,-4.2462,-4.2333,-4.2166,-4.1998,-4.1762,-4.152,-4.1471,-4.1312,-4.1198,-4.1105,-4.0995,-4.0853,-4.0704,-4.0631,-4.0541,-4.0419,-4.0271,-4.0171,-4.0121,-4.0096,-4.0087,-4.0087,-4.0062,-4.0062,-4.0037,-4.0062,-4.0037,-3.9986,-3.9961,-3.9935,-3.991,-3.9884,-3.991,-4.6302,-4.6302,-4.6302,-4.6302,-4.6302,-4.6302,-4.5909,-4.5246,-4.5148,-4.4758,-4.4309,-4.466,-4.4055,-4.2942,-4.3157,-4.2515,-4.1324,-4.1109,-4.1109,-4.1106,-4.1117,-4.1111,-4.1105,-4.1086,-4.1052,-4.1003,-4.1,-4.0954,-4.0804,-4.0682,-4.0659,-4.0345,-3.9422,-3.8691,-3.7694,-3.688,-3.6017,-3.5388,-3.5242,-3.5209,-3.519,-3.5182,-3.5182,-3.5182,-3.5182,-3.5182,-3.5182,-3.5182,-3.5182,-3.5182,-3.5182,-3.5182,-3.5182,-3.5182,-3.5182,-3.5182,-3.5182,-3.5558,-3.6117,-3.634,-3.6812,-3.7928,-3.8208,-3.8316,-3.8664,-3.873,-3.8624,-3.8405,-3.834,-3.829,-3.8242,-3.8209,-3.8263,-3.8299,-3.8916,-3.9568,-4.0293,-4.042,-4.0818,-4.1397,-4.1613,-4.1828,-4.2439,-4.2372,-4.2246,-4.2207,-4.204,-4.1892,-4.174,-4.1653,-4.1542,-4.1453,-4.1323,-4.118,-4.0995,-4.0585,-4.048,-4.0117,-4.0007,-3.9919,-3.9983,-4.0001,-3.9859,-3.9876,-3.9791,-3.9893,-3.996,-3.9842,-3.9977,-4.0045,-4.0045,-4.0096,-4.007,-4.0003,-3.9961,-4.6295,-4.629,-4.629,-4.6306,-4.6302,-4.6302,-4.6184,-4.5968,-4.5929,-4.5734,-4.5558,-4.5168,-4.4387,-4.3372,-4.2884,-4.2123,-4.1324,-4.1109,-4.1109,-4.1109,-4.1108,-4.1101,-4.1115,-4.1107,-4.1091,-4.1081,-4.1055,-4.1045,-4.0889,-4.0352,-3.9971,-3.9729,-3.8394,-3.7469,-3.6966,-3.6222,-3.5652,-3.54,-3.5289,-3.5277,-3.5269,-3.5207,-3.5182,-3.5182,-3.5209,-3.519,-3.5182,-3.5182,-3.5182,-3.5182,-3.5182,-3.5182,-3.5182,-3.5182,-3.5182,-3.5182,-3.5201,-3.5269,-3.5571,-3.6023,-3.6483,-3.6828,-3.7781,-3.8358,-3.8298,-3.8702,-3.8763,-3.8624,-3.8515,-3.8401,-3.8307,-3.8274,-3.8259,-3.8227,-3.8462,-3.8862,-3.9478,-3.9713,-3.9985,-4.0655,-4.0782,-4.1179,-4.1685,-4.1971,-4.2019,-4.2334,-4.2374,-4.2249,-4.2086,-4.1814,-4.1654,-4.1709,-4.1613,-4.1453,-4.1196,-4.072,-4.0289,-3.9819,-3.9628,-3.9483,-3.959,-3.9717,-3.9483,-3.9308,-3.8952,-3.8901,-3.9148,-3.9208,-3.9529,-3.9732,-3.9842,-3.974,-3.996,-4.0003,-3.9952,-4.6303,-4.6301,-4.6299,-4.6295,-4.6291,-4.6288,-4.6306,-4.6305,-4.6302,-4.6302,-4.6105,-4.5382,-4.4524,-4.3666,-4.2786,-4.1927,-4.1187,-4.1109,-4.1109,-4.1109,-4.1109,-4.1106,-4.1101,-4.1101,-4.1111,-4.1115,-4.1113,-4.1073,-4.0903,-4.0169,-3.9719,-3.932,-3.7802,-3.6969,-3.688,-3.5978,-3.5476,-3.5437,-3.5388,-3.5383,-3.5339,-3.5297,-3.5266,-3.5261,-3.5253,-3.5226,-3.5209,-3.5182,-3.5182,-3.5182,-3.5182,-3.5182,-3.5182,-3.5182,-3.5182,-3.5182,-3.5182,-3.5193,-3.5253,-3.5666,-3.5986,-3.6359,-3.7413,-3.7973,-3.8265,-3.8731,-3.9007,-3.8807,-3.867,-3.8546,-3.8419,-3.8338,-3.829,-3.8259,-3.8225,-3.8408,-3.8862,-3.8915,-3.9242,-3.9767,-4.0093,-4.0329,-4.1107,-4.1415,-4.1811,-4.2206,-4.2451,-4.2442,-4.2434,-4.204,-4.1647,-4.1564,-4.125,-4.0912,-4.0641,-4.0225,-3.9799,-3.9377,-3.9096,-3.8967,-3.8946,-3.9136,-3.8925,-3.8557,-3.817,-3.8028,-3.8343,-3.8572,-3.865,-3.8853,-3.9123,-3.9225,-3.9276,-3.9503,-3.9503,-4.6289,-4.6288,-4.6305,-4.6304,-4.6301,-4.6297,-4.6295,-4.6293,-4.6306,-4.6206,-4.5911,-4.5207,-4.425,-4.353,-4.2494,-4.1791,-4.1109,-4.1109,-4.1109,-4.1109,-4.1109,-4.1108,-4.1108,-4.1108,-4.1103,-4.1115,-4.1115,-4.0986,-4.0652,-3.9973,-3.9523,-3.8933,-3.7637,-3.6992,-3.6697,-3.6088,-3.5742,-3.5558,-3.5509,-3.5457,-3.5422,-3.54,-3.5364,-3.5316,-3.5304,-3.5261,-3.5218,-3.5182,-3.5182,-3.5182,-3.5182,-3.5182,-3.5182,-3.5182,-3.5182,-3.5182,-3.5182,-3.5182,-3.5182,-3.5263,-3.5469,-3.6093,-3.6756,-3.7489,-3.8042,-3.8639,-3.8979,-3.896,-3.8822,-3.8701,-3.8528,-3.8419,-3.8338,-3.8323,-3.8257,-3.8224,-3.8207,-3.8209,-3.8499,-3.9151,-3.9278,-3.9623,-4.0275,-4.0945,-4.1451,-4.1468,-4.1755,-4.1825,-4.1768,-4.1437,-4.1198,-4.1105,-4.0669,-4.0128,-3.9902,-3.9638,-3.9247,-3.8848,-3.8555,-3.8351,-3.8099,-3.8117,-3.8077,-3.7825,-3.7421,-3.7443,-3.7753,-3.7875,-3.7885,-3.8132,-3.8512,-3.8285,-3.8075,-3.843,-3.8565,-4.6256,-4.6305,-4.6306,-4.6289,-4.6306,-4.6305,-4.6303,-4.6301,-4.6294,-4.5959,-4.5234,-4.439,-4.3549,-4.2708,-4.191,-4.1246,-4.1129,-4.1109,-4.1109,-4.1109,-4.1109,-4.1109,-4.1109,-4.1109,-4.1108,-4.1104,-4.1106,-4.0748,-4.009,-3.9323,-3.8417,-3.7762,-3.7495,-3.6789,-3.6235,-3.6551,-3.6304,-3.5799,-3.5629,-3.5558,-3.5489,-3.5483,-3.5456,-3.5391,-3.5324,-3.5269,-3.5218,-3.5182,-3.5182,-3.5182,-3.5182,-3.5182,-3.5182,-3.5182,-3.5182,-3.5182,-3.5182,-3.5182,-3.5182,-3.5193,-3.5244,-3.5517,-3.6197,-3.6823,-3.7462,-3.8221,-3.8746,-3.9045,-3.9069,-3.8906,-3.8704,-3.8544,-3.8465,-3.8417,-3.8368,-3.8352,-3.8354,-3.8274,-3.8352,-3.8444,-3.8553,-3.8752,-3.9496,-3.9804,-4.0239,-4.0619,-4.0872,-4.0981,-4.0926,-4.0834,-4.0671,-4.0543,-4.0074,-3.9568,-3.9366,-3.9128,-3.8744,-3.8449,-3.8168,-3.7915,-3.7641,-3.7495,-3.7572,-3.7242,-3.6705,-3.6859,-3.7172,-3.7171,-3.7182,-3.7549,-3.7807,-3.7608,-3.7483,-3.7652,-3.777,-4.6201,-4.6257,-4.6266,-4.6256,-4.6264,-4.6288,-4.6289,-4.6289,-4.6306,-4.6049,-4.5383,-4.4286,-4.3444,-4.2914,-4.1723,-4.1117,-4.1114,-4.1111,-4.1109,-4.1109,-4.1109,-4.1109,-4.1109,-4.1109,-4.1109,-4.109,-4.1109,-4.0616,-3.9793,-3.891,-3.814,-3.731,-3.7227,-3.701,-3.6547,-3.6927,-3.6817,-3.6365,-3.5902,-3.5664,-3.5607,-3.5585,-3.554,-3.5456,-3.5391,-3.5324,-3.5261,-3.5234,-3.5226,-3.519,-3.5182,-3.5182,-3.5182,-3.5182,-3.5182,-3.5182,-3.5182,-3.5182,-3.5182,-3.5182,-3.5193,-3.5215,-3.5898,-3.6663,-3.7373,-3.808,-3.8768,-3.9245,-3.9311,-3.9101,-3.8885,-3.8762,-3.8667,-3.859,-3.8494,-3.8465,-3.8449,-3.8338,-3.8259,-3.8242,-3.828,-3.8426,-3.8717,-3.9078,-3.9405,-3.9967,-4.051,-4.0637,-4.051,-4.0384,-4.0058,-3.9806,-3.9427,-3.9067,-3.8906,-3.8618,-3.8222,-3.8023,-3.784,-3.7633,-3.7415,-3.7303,-3.7244,-3.6859,-3.6479,-3.6314,-3.6561,-3.6529,-3.6564,-3.661,-3.6769,-3.6835,-3.6806,-3.6671,-3.6891,-4.6167,-4.6196,-4.6184,-4.6177,-4.6225,-4.6269,-4.6278,-4.628,-4.6287,-4.6133,-4.58,-4.4374,-4.3552,-4.3121,-4.1811,-4.1145,-4.1101,-4.1098,-4.1116,-4.1111,-4.1111,-4.1111,-4.1109,-4.1109,-4.0953,-4.0934,-4.0815,-4.0327,-3.9525,-3.874,-3.7739,-3.723,-3.7431,-3.7318,-3.7244,-3.7539,-3.7475,-3.6977,-3.6421,-3.5943,-3.5751,-3.5713,-3.5648,-3.554,-3.5463,-3.5379,-3.5339,-3.5308,-3.5293,-3.5226,-3.5218,-3.5218,-3.5218,-3.5182,-3.5182,-3.5182,-3.5182,-3.5182,-3.5182,-3.5182,-3.5201,-3.5248,-3.576,-3.6517,-3.7262,-3.7762,-3.8426,-3.9097,-3.9339,-3.9304,-3.9092,-3.8979,-3.8906,-3.8818,-3.8649,-3.8572,-3.8525,-3.8451,-3.8389,-3.8305,-3.8289,-3.8365,-3.8511,-3.8767,-3.904,-3.9314,-3.9858,-4.0184,-4.0021,-3.9822,-3.9424,-3.9207,-3.8847,-3.8721,-3.8561,-3.8869,-3.8385,-3.8295,-3.8026,-3.7916,-3.7729,-3.7775,-3.7701,-3.6861,-3.6475,-3.637,-3.6281,-3.6354,-3.6246,-3.5922,-3.5953,-3.6305,-3.6101,-3.5695,-3.6101,-4.6081,-4.6115,-4.6123,-4.6153,-4.6212,-4.6214,-4.6225,-4.6216,-4.6233,-4.5829,-4.5127,-4.4157,-4.328,-4.2519,-4.1621,-4.1132,-4.1111,-4.1109,-4.1106,-4.1099,-4.1098,-4.1097,-4.0974,-4.0935,-4.0641,-4.0171,-3.9937,-3.9488,-3.8767,-3.7905,-3.7199,-3.6711,-3.7523,-3.7847,-3.786,-3.8432,-3.8372,-3.7455,-3.6959,-3.6524,-3.5924,-3.5771,-3.5732,-3.5593,-3.552,-3.5463,-3.54,-3.5391,-3.5369,-3.5293,-3.5281,-3.5285,-3.5269,-3.5226,-3.5209,-3.5182,-3.5182,-3.5182,-3.5182,-3.5182,-3.5182,-3.522,-3.5384,-3.5817,-3.6432,-3.6787,-3.7583,-3.8536,-3.9218,-3.9432,-3.9272,-3.9085,-3.9087,-3.8974,-3.8892,-3.8818,-3.8788,-3.8701,-3.8546,-3.8465,-3.8401,-3.8352,-3.8465,-3.8542,-3.8654,-3.8782,-3.9001,-3.9167,-3.9041,-3.8861,-3.8644,-3.8464,-3.8337,-3.8301,-3.8266,-3.8813,-3.8977,-3.9049,-3.8942,-3.8923,-3.8777,-3.8669,-3.8285,-3.7335,-3.6811,-3.6708,-3.6585,-3.6423,-3.6276,-3.617,-3.6062,-3.5949,-3.5844,-3.5756,-3.5689,-4.5958,-4.5997,-4.6032,-4.6061,-4.6098,-4.6138,-4.6141,-4.6154,-4.6184,-4.5735,-4.4885,-4.4018,-4.3187,-4.2333,-4.1476,-4.111,-4.1113,-4.1113,-4.1112,-4.1108,-4.1106,-4.0829,-4.055,-4.049,-3.9941,-3.9255,-3.8746,-3.8414,-3.7946,-3.7555,-3.6812,-3.6498,-3.7315,-3.784,-3.803,-3.8586,-3.867,-3.7881,-3.7425,-3.6768,-3.5943,-3.5817,-3.5747,-3.5699,-3.5623,-3.5556,-3.5464,-3.5438,-3.5416,-3.536,-3.5342,-3.5346,-3.5297,-3.5266,-3.5215,-3.5198,-3.519,-3.5182,-3.5182,-3.5182,-3.5182,-3.5182,-3.5182,-3.5594,-3.616,-3.6546,-3.691,-3.7783,-3.8214,-3.8629,-3.88,-3.8796,-3.8887,-3.9136,-3.9087,-3.8984,-3.8979,-3.8881,-3.8777,-3.8618,-3.8512,-3.8415,-3.8382,-3.8405,-3.8389,-3.8338,-3.8303,-3.8289,-3.8257,-3.8241,-3.8241,-3.8224,-3.8242,-3.8225,-3.8334,-3.8845,-3.9245,-3.9408,-3.9589,-3.9572,-3.9284,-3.8924,-3.842,-3.7683,-3.7353,-3.7087,-3.6869,-3.669,-3.6568,-3.6426,-3.6276,-3.6127,-3.5975,-3.5888,-3.5822,-4.5893,-4.5905,-4.5949,-4.598,-4.5997,-4.6047,-4.6075,-4.6065,-4.5928,-4.5498,-4.4799,-4.3794,-4.2951,-4.2282,-4.1568,-4.1087,-4.1101,-4.1104,-4.1111,-4.1035,-4.0839,-4.0447,-4.0051,-3.9599,-3.9167,-3.8361,-3.7851,-3.7303,-3.734,-3.7067,-3.6597,-3.6441,-3.689,-3.7572,-3.8092,-3.8676,-3.8612,-3.8315,-3.7862,-3.6998,-3.6138,-3.5858,-3.5813,-3.5795,-3.5745,-3.5655,-3.5566,-3.5543,-3.554,-3.5477,-3.5423,-3.5395,-3.536,-3.5327,-3.5281,-3.525,-3.5226,-3.519,-3.5182,-3.5182,-3.5182,-3.5182,-3.5182,-3.5583,-3.5995,-3.6285,-3.666,-3.7157,-3.7546,-3.7759,-3.8199,-3.8173,-3.8474,-3.8921,-3.9005,-3.897,-3.9091,-3.9064,-3.8964,-3.8818,-3.8637,-3.8559,-3.8541,-3.843,-3.8433,-3.8401,-3.8385,-3.8352,-3.8322,-3.8322,-3.8305,-3.8272,-3.8274,-3.8276,-3.8477,-3.8949,-3.9242,-3.9388,-3.966,-3.9806,-3.9354,-3.8867,-3.8365,-3.7953,-3.7721,-3.743,-3.7222,-3.6987,-3.6851,-3.671,-3.6527,-3.6339,-3.6152,-3.6041,-3.5975,-4.5834,-4.5906,-4.5893,-4.5906,-4.5898,-4.5919,-4.5975,-4.5845,-4.5216,-4.4947,-4.4498,-4.3241,-4.2441,-4.2065,-4.1392,-4.1081,-4.1079,-4.109,-4.103,-4.0873,-4.0366,-3.996,-3.9685,-3.906,-3.8295,-3.7567,-3.7291,-3.7307,-3.705,-3.6521,-3.6207,-3.6207,-3.6734,-3.7398,-3.7669,-3.8548,-3.9208,-3.8615,-3.8379,-3.757,-3.6324,-3.606,-3.6033,-3.5983,-3.5981,-3.6009,-3.6018,-3.6009,-3.5901,-3.5748,-3.5596,-3.5502,-3.5457,-3.5429,-3.5405,-3.5335,-3.5281,-3.5182,-3.519,-3.519,-3.5182,-3.5182,-3.5182,-3.5267,-3.5564,-3.6014,-3.6389,-3.6498,-3.7061,-3.7471,-3.7516,-3.7488,-3.7867,-3.8199,-3.8414,-3.8683,-3.895,-3.8875,-3.8836,-3.892,-3.8707,-3.873,-3.8758,-3.8603,-3.8494,-3.8462,-3.8446,-3.8433,-3.8385,-3.8368,-3.8368,-3.832,-3.8303,-3.8305,-3.8525,-3.8999,-3.9291,-3.9403,-3.9621,-3.9893,-3.9459,-3.8952,-3.863,-3.8255,-3.8006,-3.7774,-3.7541,-3.7336,-3.7182,-3.7007,-3.6811,-3.6571,-3.6301,-3.6216,-3.617,-4.5401,-4.5847,-4.5827,-4.5583,-4.5196,-4.5189,-4.493,-4.4515,-4.4162,-4.3747,-4.3277,-4.265,-4.2019,-4.1572,-4.1116,-4.1036,-4.1036,-4.1003,-4.0735,-4.0397,-3.9876,-3.9303,-3.8475,-3.8027,-3.7422,-3.6833,-3.6557,-3.6495,-3.6393,-3.6288,-3.6012,-3.607,-3.6383,-3.6851,-3.7165,-3.7985,-3.8393,-3.8468,-3.8487,-3.8149,-3.7572,-3.7331,-3.7301,-3.7292,-3.723,-3.7144,-3.7082,-3.7238,-3.6913,-3.6619,-3.6361,-3.6077,-3.5714,-3.5514,-3.5451,-3.5438,-3.536,-3.5297,-3.5269,-3.5226,-3.5209,-3.519,-3.519,-3.5201,-3.5278,-3.5507,-3.5793,-3.573,-3.6029,-3.6432,-3.6777,-3.6739,-3.722,-3.7572,-3.7725,-3.7913,-3.8244,-3.8521,-3.8536,-3.8675,-3.8775,-3.866,-3.8598,-3.849,-3.8444,-3.8637,-3.859,-3.8528,-3.8481,-3.8399,-3.8382,-3.8382,-3.8366,-3.8366,-3.8642,-3.9008,-3.9319,-3.9449,-3.9449,-3.9631,-3.9487,-3.9126,-3.8676,-3.8408,-3.8177,-3.7967,-3.7845,-3.7649,-3.743,-3.7279,-3.7124,-3.6891,-3.6632,-3.655,-3.6485,-4.4639,-4.5168,-4.5181,-4.4813,-4.4291,-4.4279,-4.3963,-4.3427,-4.3168,-4.2745,-4.225,-4.1956,-4.1504,-4.1103,-4.0956,-4.0836,-4.0645,-4.0684,-4.0188,-3.9686,-3.9136,-3.8417,-3.7657,-3.7138,-3.6655,-3.6015,-3.6133,-3.6112,-3.6087,-3.6002,-3.6017,-3.6012,-3.609,-3.6363,-3.6851,-3.734,-3.771,-3.8121,-3.818,-3.7961,-3.7663,-3.7661,-3.7671,-3.7739,-3.7847,-3.7854,-3.7822,-3.7946,-3.7529,-3.7176,-3.6956,-3.6638,-3.6222,-3.5794,-3.5579,-3.5531,-3.547,-3.5422,-3.5369,-3.5308,-3.5234,-3.5218,-3.519,-3.5182,-3.5182,-3.5182,-3.5201,-3.5297,-3.5329,-3.5656,-3.5897,-3.5997,-3.6416,-3.6814,-3.7065,-3.7127,-3.7252,-3.7671,-3.7921,-3.7947,-3.8072,-3.8199,-3.8167,-3.8183,-3.836,-3.8711,-3.8747,-3.8615,-3.8483,-3.8314,-3.8368,-3.835,-3.8405,-3.8389,-3.854,-3.8871,-3.9217,-3.9347,-3.9347,-3.9276,-3.9097,-3.888,-3.8503,-3.8325,-3.8256,-3.8223,-3.8086,-3.7915,-3.7703,-3.7522,-3.7336,-3.7184,-3.7009,-3.693,-3.6771,-4.3421,-4.3479,-4.3479,-4.346,-4.3382,-4.3401,-4.3343,-4.3021,-4.2453,-4.2136,-4.1902,-4.1405,-4.1043,-4.0883,-4.0733,-4.0425,-3.9839,-3.9805,-3.9287,-3.8553,-3.7806,-3.7461,-3.692,-3.6467,-3.6087,-3.6009,-3.5991,-3.5995,-3.6015,-3.6012,-3.6005,-3.6014,-3.6013,-3.6031,-3.6383,-3.6968,-3.7301,-3.7633,-3.7692,-3.734,-3.6908,-3.6672,-3.665,-3.6545,-3.6368,-3.6206,-3.6272,-3.714,-3.7422,-3.7194,-3.7121,-3.6941,-3.6515,-3.5991,-3.5694,-3.5645,-3.5596,-3.554,-3.5489,-3.5383,-3.5319,-3.5269,-3.5226,-3.5182,-3.5182,-3.5182,-3.5182,-3.5182,-3.5193,-3.5212,-3.5329,-3.537,-3.5822,-3.611,-3.6407,-3.6511,-3.6707,-3.7039,-3.7242,-3.7239,-3.7404,-3.7641,-3.7636,-3.7657,-3.7761,-3.8085,-3.8118,-3.7993,-3.8132,-3.8053,-3.8236,-3.8313,-3.8386,-3.8407,-3.8345,-3.853,-3.8585,-3.8716,-3.8773,-3.872,-3.8634,-3.8417,-3.8401,-3.8385,-3.8352,-3.8368,-3.8352,-3.8136,-3.7914,-3.7721,-3.7559,-3.7449,-3.7317,-3.7184,-3.7029,-4.2142,-4.1659,-4.168,-4.2028,-4.2512,-4.2512,-4.2222,-4.1764,-4.1422,-4.1305,-4.1259,-4.0992,-4.0846,-4.0687,-4.0247,-3.9956,-3.9582,-3.9071,-3.8435,-3.7829,-3.7279,-3.6872,-3.6468,-3.6155,-3.5936,-3.5924,-3.5931,-3.5963,-3.6014,-3.5996,-3.6013,-3.6008,-3.6018,-3.6012,-3.6285,-3.6753,-3.7145,-3.7419,-3.775,-3.7809,-3.775,-3.7594,-3.7593,-3.7611,-3.759,-3.7565,-3.7654,-3.7845,-3.7644,-3.7342,-3.7205,-3.6941,-3.6582,-3.6031,-3.5807,-3.5745,-3.5698,-3.5653,-3.5601,-3.5469,-3.5346,-3.5285,-3.5234,-3.519,-3.519,-3.5182,-3.5182,-3.5182,-3.5182,-3.5182,-3.5201,-3.5223,-3.5405,-3.5579,-3.5744,-3.5929,-3.6112,-3.6434,-3.6573,-3.658,-3.6928,-3.7288,-3.7207,-3.7105,-3.7236,-3.7381,-3.7401,-3.7417,-3.7525,-3.7555,-3.7665,-3.7672,-3.7691,-3.7603,-3.7506,-3.7671,-3.7873,-3.8025,-3.8159,-3.8287,-3.8329,-3.8496,-3.8481,-3.8446,-3.843,-3.8433,-3.8401,-3.8318,-3.8152,-3.8001,-3.7897,-3.7774,-3.7631,-3.7448,-3.7317,-4.0393,-3.9853,-3.9874,-4.0558,-4.1545,-4.1641,-4.1164,-4.0507,-4.041,-4.0203,-4.0047,-4.0059,-4.0076,-3.9871,-3.9524,-3.8976,-3.8656,-3.819,-3.7504,-3.6992,-3.6596,-3.6366,-3.6034,-3.5859,-3.5875,-3.5885,-3.5899,-3.5939,-3.5982,-3.597,-3.5995,-3.6014,-3.6007,-3.6022,-3.6148,-3.6539,-3.691,-3.7106,-3.7419,-3.7828,-3.7711,-3.7672,-3.7614,-3.7575,-3.7477,-3.7455,-3.7469,-3.7603,-3.7698,-3.7398,-3.7156,-3.6915,-3.6477,-3.6072,-3.5894,-3.5827,-3.5788,-3.575,-3.5674,-3.5547,-3.5405,-3.5339,-3.5277,-3.5234,-3.5226,-3.519,-3.5182,-3.5182,-3.5182,-3.5182,-3.5182,-3.5201,-3.5201,-3.5395,-3.5367,-3.5505,-3.5545,-3.5759,-3.5855,-3.5922,-3.6234,-3.6359,-3.6268,-3.6163,-3.6551,-3.6769,-3.7034,-3.698,-3.6897,-3.6887,-3.6799,-3.6771,-3.6724,-3.6581,-3.6438,-3.6795,-3.7132,-3.7283,-3.7506,-3.7998,-3.8148,-3.8282,-3.8486,-3.8559,-3.8544,-3.8496,-3.8462,-3.8428,-3.8382,-3.8338,-3.8188,-3.8035,-3.7914,-3.7757,-3.7667,-3.8176,-3.8048,-3.8137,-3.9126,-4.0552,-4.0759,-4.0268,-3.9547,-3.9514,-3.9127,-3.8591,-3.8562,-3.8554,-3.8526,-3.847,-3.8035,-3.7521,-3.7211,-3.672,-3.6162,-3.6082,-3.5889,-3.5842,-3.5815,-3.5856,-3.5885,-3.5883,-3.5902,-3.591,-3.5953,-3.5988,-3.5995,-3.5996,-3.6009,-3.6014,-3.6031,-3.6051,-3.607,-3.6207,-3.6324,-3.6402,-3.6441,-3.6461,-3.648,-3.6519,-3.6576,-3.6693,-3.7064,-3.716,-3.7079,-3.7037,-3.6916,-3.6815,-3.6239,-3.5992,-3.5902,-3.5878,-3.5836,-3.5771,-3.5589,-3.5489,-3.542,-3.5342,-3.53,-3.5285,-3.5242,-3.5198,-3.5226,-3.5218,-3.5209,-3.5209,-3.5182,-3.5182,-3.5182,-3.5193,-3.5212,-3.5283,-3.5304,-3.545,-3.5538,-3.5275,-3.5097,-3.5069,-3.5161,-3.5709,-3.6129,-3.6539,-3.6552,-3.6255,-3.6029,-3.5863,-3.5754,-3.5676,-3.568,-3.5648,-3.607,-3.6391,-3.6556,-3.685,-3.7327,-3.7661,-3.7778,-3.8071,-3.8435,-3.8236,-3.7824,-3.8203,-3.86,-3.847,-3.8339,-3.8334,-3.8219,-3.8153,-3.8051,-3.7966,-3.7803,-3.7784,-3.7835,-3.8212,-3.8766,-3.8914,-3.8775,-3.8601,-3.8582,-3.8446,-3.8251,-3.823,-3.823,-3.8106,-3.7638,-3.7228,-3.6968,-3.6251,-3.5834,-3.58,-3.5784,-3.5797,-3.5806,-3.5803,-3.5819,-3.5822,-3.584,-3.5859,-3.5892,-3.5925,-3.5924,-3.5939,-3.5974,-3.6014,-3.6004,-3.6016,-3.6012,-3.6012,-3.6051,-3.6031,-3.6012,-3.6012,-3.6012,-3.6012,-3.6012,-3.6012,-3.6012,-3.6461,-3.6539,-3.6558,-3.6554,-3.6534,-3.6534,-3.6038,-3.6013,-3.5947,-3.5929,-3.5858,-3.5799,-3.5684,-3.5587,-3.5502,-3.5422,-3.5376,-3.5361,-3.5312,-3.5281,-3.5258,-3.525,-3.5261,-3.5218,-3.519,-3.5182,-3.5182,-3.5182,-3.5182,-3.5231,-3.5223,-3.5272,-3.5293,-3.5126,-3.5056,-3.5001,-3.4974,-3.5356,-3.5378,-3.5712,-3.5478,-3.5151,-3.4933,-3.4741,-3.4652,-3.46,-3.4679,-3.4887,-3.5312,-3.5542,-3.5671,-3.607,-3.6597,-3.6909,-3.7162,-3.7202,-3.7331,-3.7202,-3.711,-3.7422,-3.7771,-3.8215,-3.8318,-3.8243,-3.831,-3.8318,-3.8285,-3.8236,-3.678,-3.6807,-3.6852,-3.6878,-3.6988,-3.7644,-3.7865,-3.761,-3.7392,-3.7282,-3.7243,-3.7274,-3.7247,-3.7085,-3.6806,-3.6557,-3.6466,-3.6008,-3.5713,-3.5713,-3.5737,-3.5751,-3.576,-3.5793,-3.581,-3.5803,-3.5803,-3.5826,-3.5869,-3.5883,-3.5895,-3.5923,-3.5946,-3.5995,-3.6014,-3.601,-3.6021,-3.6019,-3.6017,-3.6014,-3.6013,-3.6012,-3.6012,-3.6012,-3.6012,-3.6012,-3.6012,-3.6012,-3.6012,-3.6012,-3.6012,-3.6012,-3.601,-3.6007,-3.6004,-3.598,-3.5927,-3.5883,-3.5843,-3.5788,-3.5693,-3.5621,-3.5495,-3.5443,-3.5409,-3.5367,-3.5342,-3.532,-3.5324,-3.5293,-3.5242,-3.5234,-3.5207,-3.5207,-3.519,-3.519,-3.519,-3.5201,-3.5182,-3.5193,-3.5185,-3.5117,-3.5092,-3.5066,-3.5164,-3.5001,-3.4845,-3.4572,-3.4393,-3.4316,-3.4269,-3.4222,-3.4154,-3.4346,-3.4456,-3.4544,-3.4739,-3.4781,-3.5294,-3.5901,-3.6144,-3.6379,-3.6295,-3.6299,-3.6483,-3.6578,-3.6541,-3.6817,-3.7334,-3.7774,-3.8001,-3.8159,-3.8423,-3.8465,-3.8433,-3.5111,-3.5084,-3.5111,-3.5186,-3.5454,-3.6929,-3.7252,-3.6629,-3.5887,-3.5618,-3.5605,-3.5791,-3.5912,-3.5749,-3.5659,-3.5753,-3.5839,-3.5731,-3.5722,-3.5713,-3.5713,-3.5699,-3.5713,-3.5747,-3.576,-3.5797,-3.5795,-3.5795,-3.583,-3.5846,-3.5867,-3.5901,-3.5946,-3.5983,-3.5991,-3.5976,-3.5995,-3.6009,-3.6004,-3.6021,-3.6017,-3.6012,-3.6012,-3.6012,-3.6012,-3.6012,-3.6012,-3.6012,-3.6012,-3.6012,-3.6012,-3.6012,-3.6012,-3.6012,-3.6012,-3.5988,-3.5937,-3.5923,-3.5887,-3.5846,-3.5804,-3.5741,-3.5626,-3.5554,-3.5508,-3.5477,-3.5437,-3.5395,-3.5374,-3.5335,-3.5289,-3.5273,-3.5266,-3.525,-3.5226,-3.5218,-3.5218,-3.5209,-3.5182,-3.5182,-3.5182,-3.5168,-3.5162,-3.5136,-3.5101,-3.5048,-3.4936,-3.4859,-3.4678,-3.4539,-3.4495,-3.4427,-3.4347,-3.4233,-3.4284,-3.4334,-3.4308,-3.448,-3.4724,-3.5205,-3.5418,-3.557,-3.5519,-3.5602,-3.5964,-3.6079,-3.6001,-3.6185,-3.656,-3.6982,-3.7481,-3.8108,-3.8428,-3.859,-3.8611,-3.4974,-3.4955,-3.4955,-3.4964,-3.5039,-3.5595,-3.5783,-3.5672,-3.5438,-3.5391,-3.5448,-3.5435,-3.5495,-3.5534,-3.554,-3.5571,-3.5601,-3.5629,-3.5665,-3.5681,-3.5683,-3.5693,-3.5708,-3.5723,-3.5737,-3.5747,-3.5765,-3.5786,-3.581,-3.5827,-3.5869,-3.5906,-3.5926,-3.5925,-3.5942,-3.5913,-3.5953,-3.5996,-3.6012,-3.6008,-3.6022,-3.6016,-3.6014,-3.6013,-3.6012,-3.6012,-3.6012,-3.6012,-3.6012,-3.6012,-3.6012,-3.6012,-3.6012,-3.6012,-3.6012,-3.601,-3.5983,-3.5974,-3.5949,-3.5909,-3.5872,-3.5864,-3.5776,-3.5706,-3.564,-3.5615,-3.5558,-3.5496,-3.5457,-3.5437,-3.5374,-3.5345,-3.5335,-3.5278,-3.5273,-3.5277,-3.525,-3.5226,-3.5198,-3.5182,-3.5182,-3.5182,-3.5176,-3.5176,-3.5143,-3.5136,-3.5092,-3.5039,-3.4955,-3.48,-3.4689,-3.4626,-3.4528,-3.442,-3.434,-3.4374,-3.4265,-3.4229,-3.4488,-3.4604,-3.4626,-3.4729,-3.4716,-3.4837,-3.5078,-3.5303,-3.5418,-3.5607,-3.574,-3.6483,-3.7052,-3.779,-3.8395,-3.8505,-3.867,-3.4879,-3.4898,-3.4917,-3.4908,-3.4908,-3.4945,-3.5028,-3.5143,-3.5193,-3.525,-3.527,-3.5293,-3.5364,-3.5429,-3.5423,-3.5463,-3.5565,-3.5602,-3.5645,-3.5654,-3.5681,-3.5687,-3.5702,-3.5698,-3.5708,-3.5718,-3.5732,-3.5751,-3.578,-3.5795,-3.5818,-3.5843,-3.5869,-3.5897,-3.5902,-3.5899,-3.5923,-3.5949,-3.5996,-3.6014,-3.6009,-3.6003,-3.6018,-3.6017,-3.6016,-3.6012,-3.6012,-3.6012,-3.6012,-3.6012,-3.6012,-3.6012,-3.6012,-3.6012,-3.6012,-3.601,-3.6009,-3.6004,-3.5983,-3.5953,-3.5945,-3.5916,-3.5858,-3.5843,-3.578,-3.5721,-3.5659,-3.5602,-3.5593,-3.5564,-3.5496,-3.543,-3.5388,-3.5338,-3.5335,-3.5331,-3.53,-3.5258,-3.5234,-3.519,-3.5182,-3.5182,-3.5182,-3.5182,-3.5182,-3.5168,-3.517,-3.5136,-3.5066,-3.4965,-3.4879,-3.4811,-3.4728,-3.4604,-3.4539,-3.4473,-3.4386,-3.4328,-3.4379,-3.4413,-3.4136,-3.4148,-3.4407,-3.4282,-3.4107,-3.4426,-3.4837,-3.4736,-3.4894,-3.5676,-3.6305,-3.6765,-3.7522,-3.83,-3.845,-3.4781,-3.4755,-3.4774,-3.4718,-3.4775,-3.4832,-3.4898,-3.4917,-3.5037,-3.5107,-3.5124,-3.5157,-3.5215,-3.5285,-3.5289,-3.5381,-3.5483,-3.5554,-3.5596,-3.5606,-3.5679,-3.5715,-3.5701,-3.5711,-3.5702,-3.5713,-3.5708,-3.5728,-3.5737,-3.5769,-3.5803,-3.5803,-3.5841,-3.5866,-3.5862,-3.5875,-3.5885,-3.5914,-3.5963,-3.5994,-3.6015,-3.6011,-3.6005,-3.6005,-3.6019,-3.6013,-3.6013,-3.6013,-3.6012,-3.6012,-3.6012,-3.6012,-3.6012,-3.6012,-3.6012,-3.5797,-3.5698,-3.5522,-3.5423,-3.5319,-3.5454,-3.5566,-3.5836,-3.5682,-3.5527,-3.5735,-3.5741,-3.5693,-3.5689,-3.5649,-3.5571,-3.555,-3.5508,-3.5457,-3.543,-3.5415,-3.5379,-3.5315,-3.5254,-3.5231,-3.5231,-3.5231,-3.5242,-3.525,-3.5234,-3.5218,-3.5193,-3.5196,-3.5162,-3.5084,-3.5039,-3.4983,-3.4888,-3.479,-3.4749,-3.4668,-3.4594,-3.4539,-3.4506,-3.4439,-3.4316,-3.4245,-3.4185,-3.4148,-3.4099,-3.4049,-3.4227,-3.4262,-3.4439,-3.4887,-3.5413,-3.5676,-3.644,-3.7482,-3.8077,-3.4421,-3.3846,-3.3846,-3.3846,-3.3941,-3.4545,-3.4791,-3.4839,-3.4888,-3.4974,-3.501,-3.5056,-3.5089,-3.5166,-3.5198,-3.5278,-3.5407,-3.5476,-3.5553,-3.5614,-3.5668,-3.5704,-3.5704,-3.5715,-3.5701,-3.5706,-3.5702,-3.5708,-3.5708,-3.5756,-3.5793,-3.5801,-3.5822,-3.5827,-3.5841,-3.5833,-3.5837,-3.5886,-3.5903,-3.5957,-3.5992,-3.6016,-3.6012,-3.6011,-3.6008,-3.6003,-3.6021,-3.6016,-3.6013,-3.6012,-3.6012,-3.6012,-3.6012,-3.5992,-3.5641,-3.5172,-3.5057,-3.4743,-3.445,-3.433,-3.4329,-3.4464,-3.4617,-3.4867,-3.5145,-3.5585,-3.5827,-3.5794,-3.5757,-3.572,-3.5679,-3.5669,-3.5648,-3.5574,-3.554,-3.5477,-3.545,-3.5381,-3.5308,-3.5285,-3.5285,-3.5278,-3.5289,-3.5281,-3.5285,-3.5261,-3.5209,-3.5201,-3.5201,-3.516,-3.5126,-3.5082,-3.5011,-3.4946,-3.4917,-3.4859,-3.478,-3.4689,-3.4647,-3.4583,-3.4506,-3.4427,-3.434,-3.4293,-3.4257,-3.4209,-3.4148,-3.4086,-3.4282,-3.4585,-3.4787,-3.5161,-3.5541,-3.6404,-3.7084,-3.3342,-3.2948,-3.2949,-3.2958,-3.3109,-3.3864,-3.4222,-3.4289,-3.4659,-3.4868,-3.4927,-3.4955,-3.4992,-3.5054,-3.5089,-3.5193,-3.5312,-3.5374,-3.5457,-3.5553,-3.5626,-3.5673,-3.5679,-3.5704,-3.5709,-3.5715,-3.5701,-3.5702,-3.5708,-3.5718,-3.5752,-3.5766,-3.5769,-3.5806,-3.5803,-3.5795,-3.5815,-3.5862,-3.5878,-3.5914,-3.597,-3.5988,-3.6015,-3.6016,-3.6014,-3.6011,-3.6008,-3.6003,-3.6018,-3.6016,-3.6014,-3.6012,-3.5875,-3.5582,-3.5193,-3.4744,-3.4374,-3.3905,-3.3495,-3.3279,-3.326,-3.3492,-3.4176,-3.4737,-3.4952,-3.5399,-3.5873,-3.5867,-3.5852,-3.5807,-3.5768,-3.5736,-3.5697,-3.565,-3.5604,-3.5579,-3.5514,-3.5431,-3.5383,-3.5355,-3.534,-3.5352,-3.5364,-3.5361,-3.5339,-3.5297,-3.5246,-3.5246,-3.5239,-3.525,-3.5226,-3.5185,-3.5117,-3.5092,-3.5085,-3.5011,-3.4946,-3.4869,-3.4791,-3.4759,-3.4697,-3.4583,-3.4517,-3.4465,-3.4431,-3.4404,-3.4316,-3.4233,-3.4209,-3.4438,-3.4581,-3.4734,-3.511,-3.5454,-3.5984,-3.2122,-3.2042,-3.2081,-3.2138,-3.2251,-3.2977,-3.3306,-3.3438,-3.4099,-3.4411,-3.4337,-3.4396,-3.4671,-3.4955,-3.5011,-3.5091,-3.5193,-3.5304,-3.5381,-3.5489,-3.5584,-3.5626,-3.5668,-3.5684,-3.5704,-3.5704,-3.5709,-3.5706,-3.5702,-3.5713,-3.5728,-3.5704,-3.5742,-3.5794,-3.5793,-3.5795,-3.5819,-3.583,-3.5856,-3.5895,-3.5924,-3.5942,-3.5982,-3.5991,-3.6015,-3.6015,-3.6014,-3.6012,-3.6009,-3.6003,-3.598,-3.5821,-3.5584,-3.5156,-3.453,-3.4102,-3.3495,-3.3124,-3.2851,-3.2713,-3.2811,-3.3143,-3.4042,-3.4549,-3.4724,-3.5266,-3.574,-3.5947,-3.5919,-3.5902,-3.5852,-3.5804,-3.5772,-3.5736,-3.5693,-3.5664,-3.559,-3.554,-3.5483,-3.5451,-3.5431,-3.5437,-3.5435,-3.5434,-3.5386,-3.5345,-3.5323,-3.5304,-3.5304,-3.5308,-3.5304,-3.5273,-3.5234,-3.5212,-3.5206,-3.5147,-3.5066,-3.5039,-3.4974,-3.4917,-3.4849,-3.4771,-3.471,-3.4658,-3.4615,-3.4572,-3.4528,-3.4473,-3.4461,-3.4409,-3.4477,-3.4592,-3.463,-3.4928,-3.5068,-3.1628,-3.107,-3.1128,-3.1176,-3.1289,-3.2022,-3.2379,-3.2408,-3.2608,-3.2693,-3.2844,-3.293,-3.346,-3.4888,-3.4993,-3.4933,-3.4708,-3.4988,-3.53,-3.5434,-3.5509,-3.5571,-3.5626,-3.5648,-3.5704,-3.5704,-3.5704,-3.5709,-3.5706,-3.5697,-3.5707,-3.5698,-3.5704,-3.5732,-3.5737,-3.5741,-3.5782,-3.5795,-3.5811,-3.5838,-3.5843,-3.5875,-3.5929,-3.5949,-3.5982,-3.6009,-3.6013,-3.6015,-3.6015,-3.6013,-3.5949,-3.5632,-3.5162,-3.4671,-3.4026,-3.3167,-3.258,-3.215,-3.1915,-3.1758,-3.1776,-3.1874,-3.2734,-3.3807,-3.4314,-3.529,-3.5692,-3.5985,-3.5976,-3.5968,-3.5948,-3.5899,-3.5858,-3.5827,-3.5795,-3.5739,-3.5674,-3.5653,-3.5615,-3.5587,-3.5564,-3.5565,-3.554,-3.5522,-3.5489,-3.545,-3.5404,-3.5404,-3.539,-3.5388,-3.5386,-3.5364,-3.5354,-3.5312,-3.5289,-3.5218,-3.516,-3.5143,-3.5117,-3.5047,-3.5001,-3.4974,-3.4898,-3.4831,-3.48,-3.4768,-3.4708,-3.4668,-3.4615,-3.4564,-3.4487,-3.4506,-3.4472,-3.4496,-3.4717]},{"header":{"parameterUnit":"m.s-1","parameterCategory":1,"la1":31.0,"la2":29.5877,"lo1":-88.7671,"lo2":-86.6584,"dy":0.0162,"dx":0.0185,"nx":115,"ny":88,"refTime":"2024-06-21T06:00:00:Z","depth":0,"parameterNumber":3,"parameterNumberName":"V-component_of_WINDS"},"data":[0.0,0.0,0.0,0.0,0.0,0.0,0.0,0.0,0.0,0.0,0.0,0.0,0.0,0.0,0.0,0.0,0.0,0.0,0.0,0.0,0.0,0.0,0.0,0.0,0.0,0.0,0.0,0.0,0.0,0.0,0.0,0.0,0.0,0.0,0.0,0.0,0.0,0.0,0.0,0.0,0.0,0.0,0.0,0.0,0.0,0.0,0.0,0.0,0.0,0.0,0.0,0.0,0.0,0.0,0.0,0.0,0.0,0.0,0.0,0.0,0.0,0.0,0.0,0.0,0.0,0.0,0.0,0.0,0.0,0.0,0.0,0.0,0.0,0.0,0.0,0.0,0.0,0.0,0.0,0.0,0.0,0.0,0.0,0.0,0.0,0.0,0.0,0.0,0.0,0.0,0.0,0.0,0.0,0.0,0.0,0.0,0.0,0.0,0.0,0.0,0.0,0.0,0.0,0.0,0.0,0.0,0.0,0.0,0.0,0.0,0.0,0.0,0.0,0.0,0.0,0.0,0.0,0.0,0.0,0.0,0.0,0.0,0.0,0.0,0.0,0.0,0.0,0.0,0.0,0.0,0.0,0.0,0.0,0.0,0.0,0.0,0.0,0.0,0.0,0.0,0.0,0.0,0.0,0.0,0.0,0.0,0.0,0.0,0.0,0.0,0.0,0.0,0.0,0.0,0.0,0.0,0.0,0.0,0.0,0.0,0.0,0.0,0.0,0.0,0.0,0.0,0.0,0.0,0.0,0.0,0.0,0.0,0.0,0.0,0.0,0.0,0.0,0.0,0.0,0.0,0.0,0.0,0.0,0.0,0.0,0.0,0.0,0.0,0.0,0.0,0.0,0.0,0.0,0.0,0.0,0.0,0.0,0.0,0.0,0.0,0.0,0.0,0.0,0.0,0.0,0.0,0.0,0.0,0.0,0.0,0.0,0.0,0.0,0.0,0.0,0.0,0.0,0.0,0.0,0.0,0.0,0.0,0.0,0.0,0.0,0.0,0.0,0.0,0.0,0.0,0.0,0.0,0.0,0.0,0.0,0.0,0.0,0.0,0.0,0.0,0.0,0.0,0.0,0.0,0.0,0.0,0.0,0.0,0.0,0.0,0.0,0.0,0.0,0.0,0.0,0.0,0.0,0.0,0.0,0.0,0.0,0.0,0.0,0.0,0.0,0.0,0.0,0.0,0.0,0.0,0.0,0.0,0.0,0.0,0.0,0.0,0.0,0.0,0.0,0.0,0.0,0.0,0.0,0.0,0.0,0.0,0.0,0.0,0.0,0.0,0.0,0.0,0.0,0.0,0.0,0.0,0.0,0.0,0.0,0.0,0.0,0.0,0.0,0.0,0.0,0.0,0.0,0.0,0.0,0.0,0.0,0.0,0.0,0.0,0.0,0.0,0.0,0.0,0.0,0.0,0.0,0.0,0.0,0.0,0.0,0.0,0.0,0.0,0.0,0.0,0.0,0.0,0.0,0.0,0.0,0.0,0.0,0.0,0.0,0.0,0.0,0.0,0.0,0.0,0.0,0.0,0.0,0.0,0.0,0.0,0.0,0.0,0.0,0.0,0.0,0.0,0.0,0.0,0.0,0.0,0.0,0.0,0.0,0.0,0.0,0.0,0.0,0.0,0.0,0.0,0.0,0.0,0.0,0.0,0.0,0.0,0.0,0.0,0.0,0.0,0.0,0.0,0.0,0.0,0.0,0.0,0.0,0.0,0.0,0.0,0.0,0.0,0.0,0.0,0.0,0.0,0.0,0.0,0.0,0.0,0.0,0.0,0.0,0.0,0.0,0.0,0.0,0.0,0.0,0.0,0.0,0.0,0.0,0.0,0.0,0.0,0.0,0.0,0.0,0.0,0.0,0.0,0.0,0.0,0.0,0.0,0.0,0.0,0.0,0.0,0.0,0.0,0.0,0.0,0.0,0.0,0.0,0.0,0.0,0.0,0.0,0.0,0.0,0.0,0.0,0.0,0.0,0.0,0.0,0.0,0.0,0.0,0.0,0.0,0.0,0.0,0.0,0.0,0.0,0.0,0.0,0.0,0.0,0.0,0.0,0.0,0.0,0.0,0.0,0.0,0.0,0.0,0.0,0.0,0.0,0.0,0.0,0.0,0.0,0.0,0.0,0.0,0.0,0.0,0.0,0.0,0.0,0.0,0.0,0.0,0.0,0.0,0.0,0.0,0.0,0.0,0.0,0.0,0.0,0.0,0.0,0.0,0.0,0.0,0.0,0.0,0.0,0.0,0.0,0.0,0.0,0.0,0.0,0.0,0.0,0.0,0.0,0.0,0.0,0.0,0.0,0.0,0.0,0.0,0.0,0.0,0.0,0.0,0.0,0.0,0.0,0.0,0.0,0.0,0.0,0.0,0.0,0.0,0.0,0.0,0.0,0.0,0.0,0.0,0.0,0.0,0.0,0.0,0.0,0.0,0.0,0.0,0.0,0.0,0.0,0.0,0.0,0.0,0.0,0.0,0.0,0.0,0.0,0.0,0.0,0.0,0.0,0.0,0.0,0.0,0.0,0.0,0.0,0.0,0.0,0.0,0.0,0.0,0.0,0.0,0.0,0.0,0.0,0.0,0.0,0.0,0.0,0.0,0.0,0.0,0.0,0.0,0.0,0.0,0.0,0.0,0.0,0.0,0.0,0.0,0.0,0.0,0.0,0.0,0.0,0.0,0.0,0.0,0.0,0.0,0.0,0.0,0.0,0.0,0.0,0.0,0.0,0.0,0.0,0.0,0.0,0.0,0.0,0.0,0.0,0.0,0.0,0.0,0.0,0.0,0.0,0.0,0.0,0.0,0.0,0.0,0.0,0.0,0.0,0.0,0.0,0.0,0.0,0.0,0.0,0.0,0.0,0.0,0.0,0.0,0.0,0.0,0.0,0.0,0.0,0.0,0.0,0.0,0.0,0.0,0.0,0.0,0.0,0.0,0.0,0.0,0.0,0.0,0.0,0.0,0.0,0.0,0.0,0.0,0.0,0.0,0.0,0.0,0.0,0.0,0.0,0.0,0.0,0.0,0.0,0.0,0.0,0.0,0.0,0.0,0.0,0.0,0.0,0.0,0.0,0.0,0.0,0.0,0.0,0.0,0.0,0.0,0.0,0.0,0.0,0.0,0.0,0.0,0.0,0.0,0.0,0.0,0.0,0.0,0.0,0.0,0.0,0.0,0.0,0.0,0.0,0.0,0.0,0.0,0.0,0.0,0.0,0.0,0.0,0.0,0.0,0.0,0.0,0.0,0.0,0.0,0.0,0.0,0.0,0.0,0.0,0.0,0.0,0.0,0.0,0.0,0.0,0.0,0.0,0.0,0.0,0.0,0.0,0.0,0.0,0.0,0.0,0.0,0.0,0.0,0.0,0.0,0.0,0.0,0.0,0.0,0.0,0.0,0.0,0.0,0.0,0.0,0.0,0.0,0.0,0.0,0.0,0.0,0.0,0.0,0.0,0.0,0.0,0.0,0.0,0.0,0.0,0.0,0.0,0.0,0.0,0.0,0.0,0.0,0.0,0.0,0.0,0.0,0.0,0.0,0.0,0.0,0.0,0.0,0.0,0.0,0.0,0.0,0.0,0.0,0.0,0.0,0.0,0.0,0.0,0.0,0.0,0.0,0.0,0.0,0.0,0.0,0.0,0.0,0.0,0.0,0.0,0.0,0.0,0.0,0.0,0.0,0.0,0.0,0.0,0.0,0.0,0.0,0.0,0.0,0.0,0.0,0.0,0.0,0.0,0.0,0.0,0.0,0.0,0.0,0.0,0.0,0.0,0.0,0.0,0.0,0.0,0.0,0.0,0.0,0.0,0.0,0.0,0.0,0.0,0.0,0.0,0.0,0.0,0.0,0.0,0.0,0.0,0.0,0.0,0.0,0.0,0.0,0.0,0.0,0.0,0.0,0.0,0.0,0.0,0.0,0.0,0.0,0.0,0.0,0.0,0.0,0.0,0.0,0.0,0.0,0.0,0.0,0.0,0.0,0.0,0.0,0.0,0.0,0.0,0.0,0.0,0.0,0.0,0.0,0.0,0.0,0.0,0.0,0.0,0.0,0.0,0.0,0.0,0.0,0.0,0.0,0.0,0.0,0.0,0.0,0.0,0.0,0.0,0.0,0.0,0.0,0.0,0.0,0.0,0.0,0.0,0.0,0.0,0.0,0.0,0.0,0.0,0.0,0.0,0.0,0.0,0.0,0.0,0.0,0.0,0.0,0.0,0.0,0.0,0.0,0.0,0.0,0.0,0.0,0.0,0.0,0.0,0.0,0.0,0.0,-0.8454,0.0,0.0,0.0,0.0,0.0,0.0,0.0,0.0,0.0,0.0,0.0,0.0,0.0,0.0,0.0,0.0,0.0,0.0,0.0,0.0,0.0,0.0,0.0,0.0,0.0,0.0,0.0,0.0,0.0,0.0,0.0,0.0,0.0,0.0,0.0,0.0,0.0,0.0,0.0,0.0,0.0,0.0,0.0,0.0,0.0,0.0,0.0,0.0,0.0,0.0,0.0,0.0,0.0,0.0,0.0,0.0,0.0,0.0,0.0,0.0,0.0,0.0,0.0,0.0,0.0,0.0,0.0,0.0,0.0,0.0,0.0,0.0,0.0,0.0,0.0,0.0,0.0,0.0,0.0,0.0,0.0,0.0,0.0,0.0,0.0,0.0,0.0,0.0,0.0,0.0,0.0,0.0,0.0,0.0,0.0,0.0,0.0,0.0,0.0,0.0,0.0,0.0,0.0,0.0,0.0,0.0,0.0,0.0,0.0,0.0,-0.8454,-0.8267,-0.8461,-0.8644,-0.8814,0.0,0.0,0.0,0.0,0.0,0.0,0.0,0.0,0.0,0.0,0.0,0.0,0.0,0.0,0.0,0.0,0.0,0.0,0.0,0.0,0.0,0.0,0.0,0.0,0.0,0.0,0.0,0.0,0.0,0.0,0.0,0.0,0.0,0.0,0.0,0.0,0.0,0.0,0.0,0.0,0.0,0.0,0.0,0.0,0.0,0.0,0.0,0.0,0.0,0.0,0.0,0.0,0.0,0.0,0.0,0.0,0.0,0.0,0.0,0.0,0.0,0.0,0.0,0.0,0.0,0.0,0.0,0.0,0.0,0.0,0.0,0.0,0.0,0.0,0.0,0.0,0.0,0.0,0.0,0.0,0.0,0.0,0.0,0.0,0.0,0.0,0.0,0.0,0.0,0.0,0.0,0.0,0.0,0.0,0.0,0.0,0.0,0.0,0.0,0.0,0.0,0.0,0.0,0.0,0.0,0.0,0.0,0.0,0.0,0.0,0.0,0.0,-0.8608,-0.8891,-0.913,0.0,0.0,0.0,0.0,0.0,0.0,0.0,0.0,0.0,0.0,0.0,0.0,0.0,0.0,0.0,0.0,0.0,0.0,0.0,0.0,0.0,0.0,0.0,0.0,0.0,0.0,0.0,0.0,0.0,0.0,0.0,0.0,0.0,0.0,0.0,0.0,0.0,0.0,0.0,0.0,0.0,0.0,0.0,0.0,0.0,0.0,0.0,0.0,0.0,0.0,0.0,0.0,0.0,0.0,0.0,0.0,0.0,0.0,0.0,0.0,0.0,0.0,0.0,0.0,0.0,0.0,0.0,0.0,0.0,0.0,0.0,0.0,0.0,0.0,0.0,0.0,0.0,0.0,0.0,0.0,0.0,0.0,0.0,0.0,0.0,0.0,0.0,0.0,0.0,0.0,0.0,0.0,0.0,0.0,0.0,0.0,0.0,0.0,0.0,0.0,0.0,0.0,0.0,0.0,0.0,0.0,0.0,0.0,0.0,0.0,-0.8847,-0.9175,-0.9059,0.0,-0.9575,0.0,0.0,0.0,0.0,0.0,0.0,0.0,0.0,0.0,0.0,0.0,0.0,0.0,0.0,0.0,0.0,0.0,0.0,0.0,0.0,0.0,0.0,0.0,0.0,0.0,0.0,0.0,0.0,0.0,0.0,0.0,0.0,0.0,0.0,0.0,0.0,0.0,0.0,0.0,0.0,0.0,0.0,0.0,0.0,0.0,0.0,0.0,0.0,0.0,0.0,0.0,0.0,0.0,0.0,0.0,0.0,0.0,0.0,0.0,0.0,0.0,0.0,0.0,0.0,0.0,0.0,0.0,0.0,0.0,0.0,0.0,0.0,0.0,0.0,0.0,0.0,0.0,0.0,0.0,0.0,0.0,0.0,0.0,0.0,0.0,0.0,0.0,0.0,0.0,0.0,0.0,0.0,0.0,0.0,0.0,0.0,0.0,0.0,0.0,0.0,0.0,0.0,0.0,0.0,0.0,0.0,0.0,0.0,0.0,0.0,-0.9097,-0.9156,-0.9675,-0.988,0.0,0.0,0.0,0.0,0.0,0.0,0.0,0.0,0.0,0.0,0.0,0.0,0.0,0.0,0.0,0.0,0.0,0.0,0.0,0.0,0.0,0.0,0.0,0.0,0.0,0.0,0.0,0.0,0.0,0.0,0.0,0.0,0.0,0.0,0.0,0.0,0.0,0.0,0.0,0.0,0.0,0.0,0.0,0.0,0.0,0.0,0.0,0.0,0.0,0.0,0.0,0.0,0.0,0.0,0.0,0.0,0.0,0.0,0.0,0.0,0.0,0.0,0.0,0.0,0.0,0.0,0.0,0.0,0.0,0.0,0.0,0.0,0.0,0.0,0.0,0.0,0.0,0.0,0.0,0.0,0.0,0.0,0.0,0.0,0.0,0.0,0.0,0.0,0.0,0.0,0.0,0.0,0.0,0.0,0.0,0.0,0.0,0.0,0.0,0.0,0.0,0.0,0.0,0.0,0.0,0.0,0.0,0.0,0.0,0.0,-0.9343,0.0,-0.9249,-1.0202,-1.045,-0.985,0.0,0.0,0.0,0.0,0.0,0.0,0.0,0.0,0.0,0.0,0.0,0.0,0.0,0.0,0.0,0.0,0.0,0.0,0.0,0.0,0.0,0.0,0.0,0.0,0.0,0.0,0.0,0.0,0.0,0.0,0.0,0.0,0.0,0.0,0.0,0.0,0.0,0.0,0.0,0.0,0.0,0.0,0.0,0.0,0.0,0.0,0.0,0.0,0.0,0.0,0.0,0.0,0.0,0.0,0.0,0.0,0.0,0.0,0.0,0.0,0.0,0.0,0.0,0.0,0.0,0.0,0.0,0.0,0.0,0.0,0.0,0.0,0.0,0.0,0.0,0.0,0.0,0.0,0.0,0.0,0.0,0.0,0.0,0.0,0.0,0.0,0.0,0.0,0.0,0.0,0.0,0.0,0.0,0.0,0.0,0.0,0.0,0.0,0.0,0.0,0.0,0.0,0.0,0.0,0.0,0.0,0.0,0.0,0.0,-0.9406,-0.9364,-0.9504,-1.0535,-1.0601,0.0,0.0,0.0,0.0,0.0,0.0,0.0,0.0,0.0,0.0,0.0,0.0,0.0,0.0,0.0,0.0,0.0,0.0,0.0,0.0,0.0,0.0,0.0,0.0,0.0,0.0,0.0,0.0,0.0,0.0,0.0,0.0,0.0,0.0,0.0,0.0,0.0,0.0,0.0,0.0,0.0,0.0,0.0,0.0,0.0,0.0,0.0,0.0,0.0,0.0,0.0,0.0,0.0,0.0,0.0,0.0,0.0,0.0,0.0,0.0,0.0,0.0,0.0,0.0,0.0,0.0,0.0,0.0,0.0,0.0,0.0,0.0,0.0,0.0,0.0,0.0,0.0,0.0,0.0,0.0,0.0,0.0,0.0,0.0,0.0,0.0,0.0,0.0,0.0,0.0,0.0,0.0,0.0,0.0,0.0,0.0,0.0,0.0,0.0,0.0,0.0,0.0,0.0,0.0,0.0,0.0,0.0,0.0,0.0,-0.9529,-0.9804,-0.9922,-0.9916,-1.0615,-1.0563,0.0,0.0,0.0,0.0,0.0,0.0,0.0,0.0,0.0,0.0,0.0,0.0,0.0,0.0,0.0,0.0,0.0,0.0,0.0,0.0,0.0,0.0,0.0,0.0,0.0,0.0,0.0,0.0,0.0,0.0,0.0,0.0,0.0,0.0,0.0,0.0,0.0,0.0,0.0,0.0,0.0,0.0,0.0,0.0,0.0,0.0,0.0,0.0,0.0,0.0,0.0,0.0,0.0,0.0,0.0,0.0,0.0,0.0,0.0,0.0,0.0,0.0,0.0,0.0,0.0,0.0,0.0,0.0,0.0,0.0,0.0,0.0,0.0,0.0,0.0,0.0,0.0,0.0,0.0,0.0,0.0,0.0,0.0,0.0,0.0,0.0,0.0,0.0,0.0,0.0,0.0,0.0,0.0,0.0,0.0,0.0,0.0,0.0,0.0,0.0,0.0,0.0,0.0,0.0,0.0,0.0,0.0,0.0,0.0,-0.9534,0.0,-1.0242,0.0,-1.0695,-1.0571,0.0,0.0,0.0,0.0,0.0,0.0,0.0,0.0,0.0,0.0,0.0,0.0,0.0,0.0,0.0,0.0,0.0,0.0,0.0,0.0,0.0,0.0,0.0,0.0,0.0,0.0,0.0,0.0,0.0,0.0,0.0,0.0,0.0,0.0,0.0,0.0,0.0,0.0,0.0,0.0,0.0,0.0,0.0,0.0,0.0,0.0,0.0,0.0,0.0,0.0,0.0,0.0,0.0,0.0,0.0,0.0,0.0,0.0,0.0,0.0,0.0,0.0,0.0,0.0,0.0,0.0,0.0,0.0,0.0,0.0,0.0,0.0,0.0,0.0,0.0,0.0,0.0,0.0,0.0,0.0,0.0,0.0,0.0,0.0,0.0,0.0,0.0,0.0,0.0,0.0,0.0,0.0,0.0,0.0,0.0,0.0,0.0,0.0,0.0,0.0,0.0,0.0,0.0,0.0,0.0,0.0,0.0,0.0,-0.8409,-0.954,-0.9825,-1.0253,-1.0845,-1.0756,-1.0594,0.0,0.0,0.0,0.0,0.0,0.0,0.0,0.0,0.0,0.0,0.0,0.0,0.0,0.0,0.0,0.0,0.0,0.0,0.0,0.0,0.0,0.0,0.0,0.0,0.0,0.0,0.0,0.0,0.0,0.0,0.0,0.0,0.0,0.0,0.0,0.0,0.0,0.0,0.0,0.0,0.0,0.0,0.0,0.0,0.0,0.0,0.0,0.0,0.0,0.0,0.0,0.0,0.0,0.0,0.0,0.0,0.0,0.0,0.0,0.0,0.0,0.0,0.0,0.0,0.0,0.0,0.0,0.0,0.0,0.0,0.0,0.0,0.0,0.0,0.0,0.0,0.0,0.0,0.0,0.0,0.0,0.0,0.0,0.0,0.0,0.0,0.0,0.0,0.0,0.0,0.0,0.0,0.0,0.0,0.0,0.0,0.0,0.0,0.0,0.0,0.0,0.0,0.0,0.0,0.0,0.0,0.0,0.0,0.0,-1.0046,-1.0293,-1.0532,-1.0823,-1.0958,-1.0756,0.0,0.0,0.0,0.0,0.0,0.0,0.0,0.0,0.0,0.0,0.0,0.0,0.0,0.0,0.0,0.0,0.0,0.0,0.0,0.0,0.0,0.0,0.0,0.0,0.0,0.0,0.0,0.0,0.0,0.0,0.0,0.0,0.0,0.0,0.0,0.0,0.0,0.0,0.0,0.0,0.0,0.0,0.0,0.0,0.0,0.0,0.0,0.0,0.0,0.0,0.0,0.0,0.0,0.0,0.0,0.0,0.0,0.0,0.0,0.0,0.0,0.0,0.0,0.0,0.0,0.0,0.0,0.0,0.0,0.0,0.0,0.0,0.0,0.0,0.0,0.0,0.0,0.0,0.0,0.0,0.0,0.0,0.0,0.0,0.0,0.0,0.0,0.0,0.0,0.0,0.0,0.0,0.0,0.0,0.0,0.0,0.0,0.0,0.0,0.0,0.0,0.0,0.0,0.0,0.0,0.0,0.0,0.0,0.0,-1.0778,-1.0697,-1.086,-1.1385,-1.1409,-1.1227,-1.0804,0.0,0.0,0.0,0.0,0.0,0.0,0.0,0.0,0.0,0.0,0.0,0.0,0.0,0.0,0.0,0.0,0.0,0.0,0.0,0.0,0.0,0.0,0.0,0.0,0.0,0.0,0.0,0.0,0.0,0.0,0.0,0.0,0.0,0.0,0.0,0.0,0.0,0.0,0.0,0.0,0.0,0.0,0.0,0.0,0.0,0.0,0.0,0.0,0.0,0.0,0.0,0.0,0.0,0.0,0.0,0.0,0.0,0.0,0.0,0.0,0.0,0.0,0.0,0.0,0.0,0.0,0.0,0.0,0.0,0.0,0.0,0.0,0.0,0.0,0.0,0.0,0.0,0.0,0.0,0.0,0.0,0.0,0.0,0.0,0.0,0.0,0.0,0.0,0.0,0.0,0.0,0.0,0.0,0.0,0.0,0.0,0.0,0.0,0.0,0.0,0.0,0.0,0.0,0.0,0.0,0.0,0.0,0.0,-1.172,-1.1079,-1.1268,-1.2336,-1.2038,-1.191,0.0,0.0,0.0,0.0,0.0,0.0,0.0,0.0,0.0,0.0,0.0,0.0,0.0,0.0,0.0,0.0,0.0,0.0,0.0,0.0,0.0,0.0,0.0,0.0,0.0,0.0,0.0,0.0,0.0,0.0,0.0,0.0,0.0,0.0,0.0,0.0,0.0,0.0,0.0,0.0,0.0,0.0,0.0,0.0,0.0,0.0,0.0,0.0,0.0,0.0,0.0,0.0,0.0,0.0,0.0,0.0,0.0,0.0,0.0,0.0,0.0,0.0,0.0,0.0,0.0,0.0,0.0,0.0,0.0,0.0,0.0,0.0,0.0,0.0,0.0,0.0,0.0,0.0,0.0,0.0,0.0,0.0,0.0,0.0,0.0,0.0,0.0,0.0,0.0,0.0,0.0,0.0,0.0,0.0,0.0,0.0,0.0,0.0,0.0,0.0,0.0,0.0,0.0,0.0,0.0,0.0,0.0,0.0,0.0,-1.2161,-1.2048,-1.2133,-1.2575,-1.2655,-1.2319,0.0,0.0,0.0,0.0,0.0,0.0,0.0,0.0,0.0,0.0,0.0,0.0,0.0,0.0,0.0,0.0,0.0,0.0,0.0,0.0,0.0,0.0,0.0,0.0,0.0,0.0,0.0,0.0,0.0,0.0,0.0,0.0,0.0,0.0,0.0,0.0,0.0,0.0,0.0,0.0,0.0,0.0,0.0,0.0,0.0,0.0,0.0,0.0,0.0,0.0,0.0,0.0,0.0,0.0,0.0,0.0,0.0,0.0,0.0,0.0,0.0,0.0,0.0,0.0,0.0,0.0,0.0,0.0,0.0,0.0,0.0,0.0,0.0,0.0,0.0,0.0,0.0,0.0,0.0,0.0,0.0,0.0,0.0,0.0,0.0,0.0,0.0,0.0,0.0,0.0,0.0,0.0,0.0,0.0,0.0,0.0,0.0,0.0,0.0,0.0,0.0,0.0,0.0,0.0,0.0,0.0,0.0,0.0,-1.1375,-1.2346,-1.2802,-1.3089,-1.3354,-1.326,-1.2842,0.0,0.0,0.0,0.0,0.0,0.0,0.0,0.0,0.0,0.0,0.0,0.0,0.0,0.0,0.0,0.0,0.0,0.0,0.0,0.0,0.0,0.0,0.0,0.0,0.0,0.0,0.0,0.0,0.0,0.0,0.0,0.0,0.0,0.0,0.0,0.0,0.0,0.0,0.0,0.0,0.0,0.0,0.0,0.0,0.0,0.0,0.0,0.0,0.0,0.0,0.0,0.0,0.0,0.0,0.0,0.0,0.0,0.0,0.0,0.0,0.0,0.0,0.0,0.0,0.0,0.0,0.0,0.0,0.0,0.0,0.0,0.0,0.0,0.0,0.0,0.0,0.0,0.0,0.0,0.0,0.0,0.0,0.0,0.0,0.0,0.0,0.0,0.0,0.0,0.0,0.0,0.0,0.0,0.0,0.0,0.0,0.0,0.0,0.0,0.0,0.0,0.0,0.0,0.0,0.0,0.0,0.0,0.0,-1.1697,-1.2484,-1.3413,-1.3955,-1.4202,-1.389,-1.3455,0.0,0.0,0.0,0.0,0.0,0.0,0.0,0.0,0.0,0.0,0.0,0.0,0.0,0.0,0.0,0.0,0.0,0.0,0.0,0.0,0.0,0.0,0.0,0.0,0.0,0.0,0.0,0.0,0.0,0.0,0.0,0.0,0.0,0.0,0.0,0.0,0.0,0.0,0.0,0.0,0.0,0.0,0.0,0.0,0.0,0.0,0.0,0.0,0.0,0.0,0.0,0.0,0.0,0.0,0.0,0.0,0.0,0.0,0.0,0.0,0.0,0.0,0.0,0.0,0.0,0.0,0.0,0.0,0.0,0.0,0.0,0.0,0.0,0.0,0.0,0.0,0.0,0.0,0.0,0.0,0.0,0.0,0.0,0.0,0.0,0.0,0.0,0.0,0.0,0.0,0.0,0.0,0.0,0.0,0.0,0.0,0.0,0.0,0.0,0.0,0.0,0.0,0.0,0.0,0.0,0.0,0.0,0.0,-1.2054,-1.2942,-1.378,-1.427,-1.4517,-1.4299,-1.3766,0.0,0.0,0.0,0.0,0.0,0.0,0.0,0.0,0.0,0.0,0.0,0.0,0.0,0.0,0.0,0.0,0.0,0.0,0.0,0.0,0.0,0.0,0.0,0.0,0.0,0.0,0.0,0.0,0.0,0.0,0.0,0.0,0.0,0.0,0.0,0.0,0.0,0.0,0.0,0.0,0.0,0.0,0.0,0.0,0.0,0.0,0.0,0.0,-1.4083,0.0,0.0,0.0,0.0,0.0,0.0,0.0,0.0,0.0,0.0,0.0,0.0,0.0,0.0,0.0,0.0,0.0,0.0,0.0,0.0,0.0,0.0,0.0,0.0,0.0,0.0,0.0,0.0,0.0,0.0,0.0,0.0,0.0,0.0,0.0,0.0,0.0,0.0,0.0,0.0,0.0,0.0,0.0,0.0,0.0,0.0,0.0,0.0,0.0,0.0,0.0,0.0,0.0,0.0,0.0,0.0,0.0,0.0,0.0,-1.2355,-1.298,-1.4045,-1.4642,-1.4714,-1.4741,-1.42,0.0,0.0,0.0,0.0,0.0,0.0,0.0,0.0,0.0,0.0,0.0,0.0,0.0,0.0,0.0,0.0,0.0,0.0,0.0,0.0,0.0,0.0,0.0,0.0,0.0,0.0,0.0,0.0,0.0,0.0,0.0,0.0,0.0,0.0,0.0,0.0,0.0,0.0,0.0,0.0,0.0,0.0,0.0,0.0,0.0,0.0,0.0,0.0,0.0,0.0,0.0,0.0,0.0,0.0,0.0,0.0,0.0,0.0,0.0,0.0,0.0,0.0,0.0,0.0,0.0,0.0,0.0,0.0,0.0,0.0,0.0,0.0,0.0,0.0,0.0,0.0,0.0,0.0,0.0,0.0,0.0,0.0,0.0,0.0,0.0,0.0,0.0,0.0,0.0,0.0,0.0,0.0,0.0,0.0,0.0,0.0,0.0,0.0,0.0,0.0,0.0,0.0,0.0,0.0,0.0,0.0,0.0,-1.1798,-1.2644,-1.3006,-1.4373,-1.5092,-1.4986,-1.5149,-1.4639,-1.3408,0.0,0.0,0.0,0.0,0.0,0.0,0.0,0.0,0.0,0.0,0.0,0.0,0.0,0.0,0.0,0.0,0.0,0.0,0.0,0.0,0.0,0.0,0.0,0.0,0.0,0.0,0.0,0.0,0.0,0.0,0.0,0.0,0.0,0.0,0.0,0.0,0.0,0.0,-1.171,-1.2298,0.0,0.0,0.0,0.0,0.0,0.0,0.0,0.0,-1.6381,0.0,0.0,0.0,0.0,0.0,0.0,0.0,0.0,0.0,0.0,0.0,0.0,0.0,0.0,0.0,0.0,0.0,0.0,0.0,0.0,0.0,0.0,0.0,0.0,0.0,0.0,0.0,0.0,0.0,0.0,0.0,0.0,0.0,0.0,0.0,0.0,0.0,0.0,0.0,0.0,0.0,0.0,0.0,0.0,0.0,0.0,0.0,0.0,0.0,0.0,0.0,0.0,0.0,0.0,0.0,0.0,-1.1217,-1.2356,-1.3209,-1.3737,-1.4985,-1.5545,-1.5242,-1.5377,-1.4865,-1.3615,0.0,0.0,0.0,0.0,0.0,0.0,0.0,0.0,0.0,0.0,0.0,0.0,0.0,0.0,0.0,0.0,0.0,0.0,0.0,0.0,0.0,0.0,0.0,0.0,0.0,0.0,0.0,0.0,0.0,0.0,0.0,0.0,0.0,0.0,0.0,0.0,0.0,0.0,0.0,-1.2942,-1.3138,0.0,0.0,0.0,0.0,0.0,0.0,0.0,0.0,-1.818,0.0,0.0,0.0,0.0,0.0,0.0,0.0,0.0,0.0,0.0,0.0,0.0,0.0,0.0,0.0,0.0,0.0,0.0,0.0,0.0,0.0,0.0,0.0,0.0,0.0,0.0,0.0,0.0,0.0,0.0,0.0,0.0,0.0,0.0,0.0,0.0,0.0,0.0,0.0,0.0,0.0,0.0,0.0,0.0,0.0,0.0,0.0,0.0,0.0,0.0,0.0,0.0,0.0,0.0,0.0,-1.1713,-1.2788,-1.3673,-1.4254,-1.5226,-1.5654,-1.5464,-1.5328,-1.4703,0.0,0.0,0.0,0.0,0.0,0.0,0.0,0.0,0.0,0.0,0.0,0.0,0.0,0.0,0.0,0.0,0.0,0.0,0.0,0.0,0.0,0.0,0.0,0.0,0.0,0.0,0.0,0.0,0.0,0.0,0.0,0.0,0.0,0.0,0.0,0.0,0.0,0.0,0.0,0.0,-1.3908,-1.4343,-1.4547,0.0,0.0,0.0,0.0,0.0,0.0,-1.8988,-1.9303,0.0,0.0,0.0,0.0,0.0,0.0,0.0,0.0,0.0,0.0,0.0,0.0,0.0,0.0,0.0,0.0,0.0,0.0,0.0,0.0,0.0,0.0,0.0,0.0,0.0,0.0,0.0,0.0,0.0,0.0,0.0,0.0,0.0,0.0,0.0,0.0,0.0,0.0,0.0,0.0,0.0,0.0,0.0,0.0,0.0,0.0,0.0,0.0,0.0,0.0,0.0,0.0,0.0,0.0,0.0,-1.2254,-1.3246,-1.4067,-1.4708,-1.5398,-1.569,-1.5568,-1.5183,-1.4475,0.0,0.0,0.0,0.0,0.0,0.0,0.0,0.0,0.0,0.0,0.0,0.0,0.0,0.0,0.0,0.0,0.0,0.0,0.0,0.0,0.0,0.0,0.0,0.0,0.0,0.0,0.0,0.0,0.0,0.0,0.0,0.0,0.0,0.0,0.0,0.0,0.0,0.0,0.0,0.0,0.0,-1.5571,-1.5781,-1.6782,0.0,0.0,0.0,0.0,-1.9723,-2.001,0.0,0.0,0.0,0.0,0.0,0.0,0.0,0.0,0.0,0.0,0.0,0.0,0.0,0.0,0.0,0.0,0.0,0.0,0.0,0.0,0.0,0.0,0.0,0.0,0.0,0.0,0.0,0.0,0.0,0.0,0.0,0.0,0.0,0.0,0.0,0.0,0.0,0.0,0.0,0.0,0.0,0.0,0.0,0.0,0.0,0.0,0.0,0.0,0.0,0.0,0.0,0.0,0.0,0.0,0.0,0.0,-1.3025,-1.3845,-1.4525,-1.5106,-1.5653,-1.5844,-1.5539,-1.5143,-1.4307,0.0,0.0,0.0,0.0,0.0,0.0,0.0,0.0,0.0,0.0,0.0,0.0,0.0,0.0,0.0,0.0,0.0,0.0,0.0,0.0,0.0,0.0,0.0,0.0,0.0,0.0,0.0,0.0,0.0,0.0,0.0,0.0,0.0,0.0,0.0,0.0,0.0,0.0,0.0,0.0,0.0,-1.6411,-1.6782,-1.7559,-1.8286,0.0,0.0,-1.9743,-2.0373,-2.0331,0.0,0.0,0.0,0.0,0.0,0.0,0.0,0.0,0.0,0.0,0.0,0.0,0.0,0.0,0.0,0.0,0.0,0.0,0.0,0.0,0.0,0.0,0.0,0.0,0.0,0.0,0.0,0.0,0.0,0.0,0.0,0.0,0.0,0.0,0.0,0.0,0.0,0.0,0.0,0.0,0.0,0.0,0.0,0.0,0.0,0.0,0.0,0.0,0.0,0.0,0.0,0.0,0.0,0.0,0.0,-1.2098,-1.3353,-1.4074,-1.4828,-1.5569,-1.5648,-1.5604,-1.5424,-1.4966,-1.4062,0.0,0.0,0.0,0.0,0.0,0.0,0.0,0.0,0.0,0.0,0.0,0.0,0.0,0.0,0.0,0.0,0.0,0.0,0.0,0.0,0.0,0.0,0.0,0.0,0.0,0.0,0.0,0.0,0.0,0.0,0.0,0.0,0.0,0.0,0.0,0.0,0.0,0.0,0.0,0.0,0.0,0.0,-1.7614,-1.8648,0.0,0.0,0.0,-2.0805,-2.1234,0.0,0.0,0.0,0.0,0.0,0.0,0.0,0.0,0.0,0.0,0.0,0.0,0.0,0.0,0.0,0.0,0.0,0.0,0.0,0.0,0.0,0.0,0.0,0.0,0.0,0.0,0.0,0.0,0.0,0.0,0.0,0.0,0.0,0.0,0.0,0.0,0.0,0.0,0.0,0.0,0.0,0.0,0.0,0.0,0.0,0.0,0.0,0.0,0.0,0.0,0.0,0.0,0.0,0.0,0.0,0.0,0.0,-1.3594,-1.426,-1.5057,-1.5987,-1.5789,-1.5584,-1.5382,-1.4809,0.0,0.0,0.0,0.0,0.0,0.0,0.0,0.0,0.0,0.0,0.0,0.0,0.0,0.0,0.0,0.0,0.0,0.0,0.0,0.0,0.0,0.0,0.0,0.0,0.0,0.0,0.0,-0.8002,0.0,0.0,0.0,0.0,0.0,0.0,0.0,0.0,0.0,0.0,0.0,0.0,0.0,0.0,-1.8452,-1.8629,-1.9832,-2.086,0.0,0.0,-2.1791,-2.1945,-2.188,-2.1497,0.0,0.0,0.0,0.0,0.0,0.0,0.0,0.0,0.0,0.0,0.0,0.0,0.0,0.0,0.0,0.0,0.0,0.0,0.0,0.0,0.0,0.0,0.0,0.0,0.0,0.0,0.0,0.0,0.0,0.0,0.0,0.0,0.0,0.0,0.0,0.0,0.0,0.0,0.0,0.0,0.0,0.0,0.0,0.0,0.0,0.0,0.0,0.0,0.0,0.0,0.0,0.0,0.0,0.0,0.0,-1.3901,-1.4542,-1.5365,-1.6338,-1.6316,-1.6023,-1.5396,-1.4801,-1.3718,0.0,0.0,0.0,0.0,0.0,0.0,0.0,0.0,0.0,0.0,0.0,0.0,0.0,0.0,0.0,0.0,0.0,0.0,0.0,0.0,0.0,0.0,0.0,0.0,0.0,0.0,0.0,0.0,0.0,0.0,0.0,0.0,0.0,0.0,0.0,0.0,0.0,0.0,0.0,0.0,0.0,-1.9434,-2.0086,-2.1101,-2.2019,0.0,0.0,-2.2449,-2.2439,-2.2087,-2.1497,-2.054,0.0,0.0,0.0,0.0,0.0,0.0,0.0,0.0,0.0,0.0,0.0,0.0,0.0,0.0,0.0,0.0,0.0,0.0,0.0,0.0,0.0,0.0,0.0,0.0,0.0,0.0,0.0,0.0,0.0,0.0,0.0,0.0,0.0,0.0,0.0,0.0,0.0,0.0,0.0,0.0,0.0,0.0,0.0,0.0,0.0,0.0,0.0,0.0,0.0,0.0,0.0,0.0,0.0,-1.2391,-1.3998,-1.4611,-1.536,-1.6316,-1.6411,-1.5972,-1.5112,-1.4842,-1.3864,0.0,0.0,0.0,0.0,0.0,0.0,0.0,0.0,0.0,0.0,0.0,0.0,0.0,0.0,0.0,0.0,0.0,0.0,0.0,0.0,0.0,0.0,0.0,0.0,0.0,0.0,0.0,0.0,-0.9119,-1.0131,-1.1527,0.0,0.0,0.0,0.0,0.0,0.0,0.0,0.0,0.0,0.0,-1.9946,-2.0747,-2.1534,0.0,0.0,-2.2918,-2.2832,-2.2542,-2.2346,-2.1911,-2.1,-2.0855,0.0,0.0,0.0,0.0,0.0,0.0,0.0,0.0,0.0,0.0,0.0,0.0,0.0,0.0,0.0,0.0,0.0,0.0,0.0,0.0,0.0,0.0,0.0,0.0,0.0,0.0,0.0,0.0,0.0,0.0,0.0,0.0,0.0,0.0,0.0,0.0,0.0,0.0,0.0,0.0,0.0,0.0,0.0,0.0,0.0,0.0,0.0,0.0,0.0,0.0,0.0,0.0,-1.2391,-1.4005,-1.4666,-1.5548,-1.6543,-1.6558,-1.6104,-1.5228,-1.5002,-1.4039,0.0,0.0,0.0,0.0,0.0,0.0,0.0,0.0,0.0,0.0,0.0,0.0,0.0,0.0,0.0,0.0,0.0,0.0,0.0,0.0,0.0,0.0,0.0,0.0,0.0,0.0,0.0,0.0,-0.9477,-1.0715,-1.2272,0.0,0.0,0.0,0.0,0.0,0.0,0.0,0.0,0.0,0.0,-2.0727,-2.1468,-2.2246,-2.2838,-2.333,-2.3402,-2.3277,-2.2956,-2.2677,-2.2232,-2.1445,0.0,0.0,0.0,0.0,0.0,0.0,0.0,0.0,0.0,0.0,0.0,0.0,0.0,0.0,0.0,0.0,0.0,0.0,0.0,0.0,0.0,0.0,0.0,0.0,0.0,0.0,0.0,0.0,0.0,0.0,0.0,0.0,0.0,0.0,0.0,0.0,0.0,0.0,0.0,0.0,0.0,0.0,0.0,0.0,0.0,0.0,0.0,0.0,0.0,0.0,0.0,0.0,0.0,-1.2406,-1.396,-1.4878,-1.5877,-1.6837,-1.6888,-1.6521,-1.5884,-1.5243,-1.4141,-1.2521,0.0,0.0,0.0,0.0,0.0,0.0,0.0,0.0,0.0,0.0,0.0,0.0,0.0,0.0,0.0,0.0,0.0,0.0,0.0,0.0,0.0,0.0,0.0,0.0,0.0,0.0,-0.87,-1.0234,-1.1714,0.0,0.0,0.0,0.0,0.0,0.0,0.0,0.0,0.0,0.0,-2.0627,-2.1952,-2.2389,-2.3267,-2.3971,-2.4373,-2.4136,-2.3898,-2.3815,-2.3091,-2.2335,0.0,0.0,0.0,0.0,0.0,0.0,0.0,0.0,0.0,0.0,0.0,0.0,0.0,0.0,0.0,0.0,0.0,0.0,0.0,0.0,0.0,0.0,0.0,0.0,0.0,0.0,0.0,0.0,0.0,0.0,0.0,0.0,0.0,0.0,0.0,0.0,0.0,0.0,0.0,0.0,-0.7346,-0.7496,0.0,0.0,0.0,0.0,0.0,0.0,0.0,0.0,0.0,0.0,0.0,0.0,-1.2575,-1.3726,-1.4515,-1.5305,-1.6067,-1.6088,-1.5789,-1.5127,-1.4859,-1.3917,-1.2169,0.0,0.0,0.0,0.0,0.0,0.0,0.0,0.0,0.0,0.0,0.0,0.0,0.0,0.0,0.0,0.0,0.0,0.0,0.0,0.0,0.0,0.0,0.0,0.0,0.0,-0.854,0.0,0.0,0.0,0.0,0.0,0.0,0.0,0.0,0.0,0.0,0.0,-1.9065,-2.0276,-2.1228,-2.2201,-2.3256,-2.3712,-2.4033,0.0,0.0,0.0,0.0,0.0,0.0,0.0,0.0,0.0,0.0,0.0,0.0,0.0,0.0,-2.1653,-2.0912,-2.1008,-2.124,-2.1395,0.0,0.0,0.0,0.0,0.0,0.0,0.0,0.0,0.0,0.0,0.0,0.0,0.0,0.0,0.0,0.0,-0.5986,0.0,0.0,0.0,0.0,0.0,0.0,0.0,0.0,-0.7387,-0.7637,-0.7928,-0.7967,-0.8059,0.0,-0.8211,-0.8271,0.0,0.0,0.0,0.0,0.0,0.0,0.0,0.0,-1.2347,-1.3372,-1.4039,-1.4662,-1.5242,-1.5276,-1.5083,-1.464,-1.4221,-1.3395,-1.2186,-1.1136,-1.0278,0.0,0.0,0.0,0.0,0.0,0.0,0.0,0.0,0.0,0.0,0.0,0.0,0.0,0.0,0.0,0.0,0.0,0.0,0.0,0.0,0.0,0.0,0.0,-0.9256,0.0,0.0,0.0,0.0,0.0,0.0,0.0,0.0,0.0,-1.774,-1.894,-2.0172,-2.1217,-2.2025,-2.2863,-2.3753,0.0,0.0,0.0,0.0,0.0,0.0,0.0,-2.4064,-2.3929,-2.3764,-2.3608,-2.3453,-2.3405,-2.3366,-2.3302,0.0,0.0,-2.2903,-2.3024,-2.3333,-2.3393,-2.3494,-2.3611,-2.3867,-2.4352,-2.4736,0.0,0.0,0.0,0.0,0.0,0.0,0.0,0.0,-0.6656,-0.6755,0.0,0.0,0.0,0.0,0.0,0.0,0.0,0.0,0.0,0.0,-0.7858,-0.8117,-0.8288,-0.8501,-0.8581,-0.856,-0.8418,-0.85,-0.886,-0.877,0.0,0.0,0.0,0.0,0.0,0.0,-1.1805,-1.294,-1.3427,-1.3915,-1.4406,-1.4419,-1.4449,-1.4402,-1.3313,-1.2656,-1.2522,-1.1343,-1.051,-1.0105,-0.9628,0.0,0.0,0.0,0.0,0.0,0.0,0.0,0.0,0.0,0.0,0.0,0.0,0.0,0.0,0.0,0.0,0.0,0.0,0.0,0.0,-0.9202,0.0,0.0,0.0,0.0,0.0,0.0,0.0,0.0,0.0,0.0,-1.9202,-2.0296,-2.1321,-2.1818,0.0,0.0,0.0,0.0,-2.4497,-2.4507,-2.4507,-2.4652,-2.5106,-2.4807,-2.4673,-2.5117,0.0,0.0,-2.3991,-2.4252,-2.4525,-2.4462,-2.5144,-2.5516,-2.4746,-2.5028,-2.5466,-2.5677,-2.5816,-2.6074,-2.6226,-2.6522,-2.6943,-0.6968,0.0,0.0,0.0,0.0,-0.7518,-0.7518,-0.7561,-0.7606,-0.7561,-0.7486,-0.749,0.0,0.0,0.0,0.0,0.0,0.0,-0.7759,-0.8057,-0.8166,-0.8308,-0.8535,-0.8574,-0.8548,-0.8373,-0.8476,-0.8576,-0.8702,-0.8927,-0.9314,-0.9776,0.0,0.0,0.0,0.0,-1.212,-1.2312,-1.2924,-1.3256,-1.3236,-1.3056,-1.2993,-1.2927,-1.2529,-1.212,-1.1693,-1.1119,-1.0542,-0.9923,-0.9334,0.0,0.0,0.0,0.0,0.0,0.0,0.0,0.0,0.0,0.0,0.0,0.0,0.0,0.0,0.0,0.0,0.0,0.0,0.0,-0.9281,-1.0221,-1.1205,0.0,0.0,0.0,0.0,0.0,0.0,0.0,0.0,0.0,-2.099,-2.1352,-2.2025,0.0,0.0,-2.3991,-2.427,-2.4425,-2.4507,-2.4507,0.0,0.0,0.0,-2.5075,-2.5137,-2.5627,-2.5575,-2.5347,-2.4912,-2.5218,-2.5487,-2.5463,-2.6154,-2.6777,-2.6917,-2.6771,-2.676,-2.6944,-2.7163,-2.7331,-2.7524,-2.7686,-2.7798,-0.6892,-0.7645,-0.7955,-0.81,-0.81,-0.8189,-0.8231,-0.8235,-0.8304,-0.8272,-0.8178,-0.8151,-0.8057,-0.7902,-0.776,0.0,0.0,0.0,-0.8126,-0.8292,-0.8438,-0.856,-0.8666,-0.8666,-0.8609,-0.8503,-0.8556,-0.8598,-0.8621,-0.8914,-0.9316,-0.9712,0.0,0.0,-1.0958,-1.1459,-1.1741,-1.1842,-1.2011,-1.2088,-1.2015,-1.1823,-1.1694,-1.1645,-1.1439,-1.1176,-1.0851,-1.0502,-1.0124,-0.9687,-0.9193,-0.8882,0.0,0.0,0.0,0.0,0.0,0.0,0.0,0.0,0.0,0.0,0.0,-0.8312,-0.8591,0.0,0.0,0.0,-0.8947,-0.9479,-1.0185,-1.1219,0.0,0.0,0.0,0.0,0.0,0.0,0.0,-1.9722,-2.0667,-2.1638,-2.2501,-2.2625,-2.2936,-2.3774,-2.4033,-2.424,-2.4466,0.0,-2.4507,-2.4507,-2.4507,-2.4662,-2.5106,-2.5189,-2.5334,-2.5858,-2.593,-2.573,-2.5316,-2.5574,-2.5829,-2.5847,-2.6456,-2.7196,-2.7667,-2.7734,-2.7805,-2.8071,-2.8387,-2.8612,-2.8775,-2.8775,-2.8775,-0.6481,-0.7434,-0.7943,-0.8197,-0.8282,-0.8561,-0.8698,-0.8662,-0.8816,-0.8831,-0.8848,-0.8698,-0.8661,-0.8612,-0.8231,0.0,0.0,-0.8235,-0.8308,-0.8329,-0.8649,-0.8755,-0.8804,-0.8796,-0.88,-0.8796,-0.8686,-0.8605,-0.8611,-0.8806,-0.914,-0.9524,-1.0011,-1.0473,-1.0918,-1.0785,-1.0947,-1.1466,-1.0873,-1.0673,-1.0833,-1.0705,-1.0611,-1.0562,-1.0148,-0.9952,-0.9969,-0.9576,-0.9334,-0.9396,-0.9029,-0.8759,-0.867,0.0,0.0,0.0,0.0,0.0,0.0,0.0,0.0,0.0,0.0,0.0,0.0,0.0,0.0,0.0,-0.9698,0.0,-1.1098,-1.2249,0.0,0.0,0.0,-1.6796,-1.7915,-1.8645,-1.9693,-2.1296,0.0,0.0,0.0,0.0,-2.3929,-2.3929,-2.4281,-2.4507,-2.4507,-2.4507,-2.4507,-2.4507,-2.4507,-2.4673,-2.5106,-2.523,-2.5451,-2.5813,-2.593,-2.573,-2.5326,-2.5564,-2.5721,-2.5582,-2.626,-2.6974,-2.7389,-2.7971,-2.859,-2.8912,-2.938,-2.9715,-2.9704,-2.9691,-2.9679,-0.4981,-0.5869,-0.6997,-0.8018,-0.8987,-0.928,-0.9376,-0.938,-0.9417,-0.9356,-0.9273,-0.9237,-0.9065,-0.8751,-0.867,-0.8556,-0.8438,-0.8479,-0.8547,-0.8551,-0.8589,-0.8629,-0.8673,-0.8629,-0.8673,-0.8625,-0.8633,-0.8588,-0.863,-0.88,-0.8948,-0.9074,-0.9535,-1.0056,-1.0597,-1.0637,-1.0616,-1.0517,-1.0431,-1.0169,-0.9732,-0.9876,-0.9763,-0.9435,-0.9367,-0.9204,-0.8959,-0.8732,-0.8604,-0.8501,-0.8247,-0.8133,-0.8311,-0.8066,0.0,0.0,0.0,0.0,0.0,0.0,0.0,0.0,0.0,-0.9318,-0.9504,0.0,-1.0087,0.0,-1.0451,-1.1293,-1.2472,-1.3589,0.0,0.0,-1.6748,-1.79,-1.8495,-1.9658,-2.0716,-2.1421,-2.2413,-2.3165,-2.3534,-2.404,-2.4342,-2.4385,-2.4425,-2.4507,-2.4507,-2.4507,-2.4507,-2.4507,-2.4507,-2.4662,-2.5096,-2.5523,-2.573,-2.5854,-2.592,-2.573,-2.5261,-2.5487,-2.5623,-2.5561,-2.5946,-2.6569,-2.7144,-2.7805,-2.8299,-2.8618,-2.9091,-2.956,-2.9753,-2.9779,-2.9779,-0.428,-0.5133,-0.6334,-0.7484,-0.8531,-0.9183,-0.948,-0.9624,-0.9624,-0.9571,-0.947,-0.9437,-0.9202,-0.8942,-0.8857,-0.8771,-0.8678,-0.8649,-0.8616,-0.8616,-0.8616,-0.8616,-0.8616,-0.8616,-0.8616,-0.8616,-0.8616,-0.8616,-0.8612,-0.8696,-0.8823,-0.8911,-0.917,-0.9493,-0.9956,-1.0102,-1.0075,-0.9947,-0.9666,-0.9315,-0.8896,-0.8946,-0.8876,-0.8603,-0.8454,-0.8357,-0.8231,-0.7996,-0.7877,-0.7879,-0.7701,-0.7747,-0.8017,-0.7954,-0.7954,0.0,0.0,0.0,0.0,0.0,0.0,0.0,0.0,0.0,0.0,0.0,-1.085,0.0,-1.1563,0.0,-1.3498,-1.4629,-1.5653,-1.651,-1.7825,-1.8835,-1.9324,-2.0428,-2.1378,-2.1881,-2.2677,-2.3309,-2.3576,-2.4076,-2.4368,-2.4368,-2.4411,-2.4507,-2.4507,-2.4507,-2.4507,-2.4507,-2.4507,-2.4569,-2.4859,-2.5119,-2.5285,-2.5285,-2.5285,-2.5202,-2.4921,-2.5129,-2.5294,-2.5264,-2.5706,-2.6249,-2.6816,-2.7429,-2.8007,-2.8431,-2.8855,-2.9236,-2.9573,-2.9714,-2.9779,-0.388,-0.4682,-0.5684,-0.6584,-0.7481,-0.8482,-0.9133,-0.948,-0.9529,-0.9579,-0.9571,-0.9462,-0.9343,-0.9125,-0.8962,-0.8865,-0.8767,-0.8666,-0.8633,-0.8616,-0.8616,-0.8616,-0.8616,-0.8616,-0.8616,-0.8616,-0.8616,-0.8616,-0.8616,-0.8616,-0.8696,-0.8867,-0.8872,-0.8955,-0.9218,-0.9388,-0.9476,-0.9471,-0.8845,-0.8497,-0.8271,-0.8127,-0.8064,-0.8025,-0.7677,-0.7548,-0.769,-0.734,-0.7227,-0.7386,-0.735,-0.7455,-0.7711,-0.7891,-0.8034,0.0,-0.8781,0.0,0.0,0.0,0.0,0.0,0.0,0.0,0.0,-1.1276,-1.1575,-1.2142,-1.283,-1.3581,-1.4264,-1.5498,-1.665,-1.7587,-1.8756,-1.9663,-2.0272,-2.1059,-2.1784,-2.2454,-2.2768,-2.314,-2.3684,-2.398,-2.4153,-2.4153,-2.4282,-2.4358,-2.4411,-2.4454,-2.4507,-2.4507,-2.4507,-2.4518,-2.4538,-2.4538,-2.4549,-2.4528,-2.4569,-2.4507,-2.4538,-2.4721,-2.4871,-2.4946,-2.538,-2.5884,-2.6321,-2.694,-2.7563,-2.8139,-2.8538,-2.8882,-2.9275,-2.9573,-2.974,-0.2774,-0.3575,-0.4182,-0.5183,-0.6381,-0.6977,-0.7875,-0.8977,-0.9183,-0.9381,-0.9575,-0.9592,-0.9478,-0.9355,-0.9318,-0.9096,-0.8779,-0.8787,-0.8698,-0.8616,-0.8616,-0.8616,-0.8616,-0.8616,-0.8616,-0.8616,-0.8616,-0.8616,-0.8616,-0.8616,-0.8608,-0.8656,-0.8656,-0.87,0.0,0.0,0.0,0.0,-0.851,-0.8241,-0.8057,-0.793,-0.7789,-0.7642,-0.7356,0.0,-0.7134,-0.6914,-0.6827,-0.6848,-0.6939,0.0,0.0,0.0,0.0,0.0,0.0,0.0,0.0,0.0,0.0,0.0,-1.1465,-1.1545,-1.1533,-1.2189,-1.2804,-1.3184,-1.374,-1.4372,-1.5115,-1.6345,-1.7342,-1.7923,-1.9317,-2.0448,-2.0875,-2.139,-2.2002,-2.2674,-2.294,-2.3177,-2.3484,-2.3754,-2.3894,-2.3894,-2.3884,-2.3927,-2.3927,-2.4272,-2.4507,-2.4507,-2.4507,-2.4507,-2.4507,-2.4507,-2.4507,-2.4507,-2.4507,-2.4507,-2.4507,-2.454,-2.4658,-2.4818,-2.4988,-2.5295,-2.5884,-2.6373,-2.6846,-2.736,-2.8047,-2.8697,-2.9052,-2.9314,-2.947,-0.2322,0.0,-0.3376,-0.4228,0.0,0.0,-0.6434,-0.7481,-0.8382,-0.8981,-0.9225,-0.9331,-0.9379,-0.9287,-0.9255,-0.9129,-0.8946,-0.8775,-0.8645,-0.8616,-0.8616,-0.8616,-0.8616,-0.8616,-0.8616,-0.8616,-0.8616,-0.8616,-0.8616,-0.8616,-0.8616,-0.8616,-0.8616,-0.8616,-0.8616,-0.8616,-0.8616,-0.8612,-0.8292,-0.8105,-0.8008,-0.776,-0.762,-0.748,0.0,0.0,0.0,0.0,0.0,0.0,0.0,0.0,0.0,0.0,0.0,-0.8589,-0.9398,-1.009,-1.0533,-1.1133,-1.1668,-1.2028,-1.2482,-1.2687,-1.2567,-1.3119,-1.3623,-1.399,-1.46,-1.5227,-1.5848,-1.6772,-1.7729,-1.8617,-1.9547,-2.0357,-2.0977,-2.1464,-2.1961,-2.2394,-2.275,-2.3013,-2.3154,-2.345,-2.3624,-2.3667,-2.3754,-2.3797,-2.3841,-2.411,-2.4378,-2.4454,-2.4507,-2.4507,-2.4507,-2.4507,-2.4507,-2.4507,-2.4507,-2.4507,-2.4507,-2.4507,-2.454,-2.47,-2.4775,-2.5073,-2.5464,-2.5946,-2.6434,-2.6857,-2.7482,-2.8007,-2.8327,-2.8803,-2.9275,-0.207,-0.2371,-0.2822,-0.3426,-0.413,-0.4483,-0.5087,-0.5992,0.0,0.0,0.0,-0.8981,-0.9069,-0.9072,-0.908,-0.9062,-0.8989,-0.8747,-0.8641,-0.8616,-0.8616,-0.8616,-0.8616,-0.8616,-0.8616,-0.8616,-0.8616,-0.8616,-0.8616,-0.8616,-0.8616,-0.8616,-0.8616,-0.8616,-0.8616,-0.8616,-0.8596,-0.8503,-0.8182,-0.8,-0.7963,-0.765,-0.7518,-0.7518,-0.7346,-0.7257,-0.7187,-0.7082,-0.7024,-0.7019,-0.7155,-0.728,-0.7495,-0.7962,-0.8454,-0.8991,-0.9916,-1.0641,-1.1122,-1.181,-1.2377,-1.2733,-1.3323,-1.3667,-1.3667,-1.3967,-1.426,-1.457,-1.5286,-1.5906,-1.6322,-1.6954,-1.7849,-1.9093,-1.9468,-2.0021,-2.0764,-2.132,-2.1678,-2.2008,-2.2451,-2.275,-2.2847,-2.3154,-2.3416,-2.345,-2.3537,-2.3711,-2.3754,-2.398,-2.4196,-2.4368,-2.4411,-2.4454,-2.4497,-2.4507,-2.4507,-2.4507,-2.4507,-2.4507,-2.4507,-2.4507,-2.4507,-2.455,-2.47,-2.4903,-2.5158,-2.5611,-2.606,-2.6362,-2.6857,-2.736,-2.747,-2.8115,-2.8764,-0.1819,-0.2071,-0.2122,-0.2523,-0.3077,-0.3528,-0.4383,-0.5441,-0.6789,-0.7786,-0.8432,-0.8482,-0.8557,-0.8672,-0.8912,-0.8875,-0.8595,-0.8717,-0.8706,0.0,-0.8616,-0.8616,-0.8616,-0.8616,-0.8616,-0.8616,-0.8616,-0.8616,-0.8616,-0.8616,-0.8616,-0.8616,-0.8616,-0.8616,-0.8616,-0.8616,-0.8487,-0.8329,-0.8117,-0.7943,-0.7837,-0.7629,-0.7518,-0.7518,-0.7494,-0.7374,-0.7195,-0.7167,-0.7114,-0.7036,-0.7137,-0.7297,-0.7482,-0.7861,-0.8299,-0.8901,-0.9493,-1.0141,-1.0823,-1.1713,-1.2677,-1.3696,-1.4159,-1.4372,-1.4386,-1.4626,-1.4791,-1.4856,-1.5516,-1.5968,-1.6239,-1.7056,-1.7759,-1.8401,-1.9146,-1.9815,-2.0329,-2.0781,-2.1266,-2.1696,-2.2176,-2.253,-2.2759,-2.3013,-2.3188,-2.3188,-2.3222,-2.3319,-2.3537,-2.3711,-2.3927,-2.4153,-2.4239,-2.4282,-2.4421,-2.4507,-2.4507,-2.4507,-2.4507,-2.4507,-2.4507,-2.4507,-2.4507,-2.4507,-2.454,-2.4658,-2.4903,-2.5158,-2.5496,-2.5884,-2.6332,-2.6693,-2.688,-2.7278,-2.7713,-0.1667,-0.1768,-0.1768,-0.2021,-0.2424,-0.2927,-0.3629,-0.4383,-0.5135,-0.6087,-0.7089,-0.7537,-0.7753,-0.7811,-0.8211,-0.8275,-0.814,-0.8274,-0.8327,-0.8388,-0.8384,-0.8476,-0.8612,-0.8616,-0.8616,-0.8616,-0.8616,-0.8616,-0.8616,-0.8616,-0.8616,-0.8616,-0.8616,-0.8616,-0.8608,-0.851,-0.8325,-0.8142,-0.8057,-0.7931,-0.78,-0.762,-0.7518,-0.7518,-0.7518,-0.7447,-0.737,-0.7366,-0.733,-0.7282,-0.7326,-0.7454,-0.7676,-0.7997,-0.8466,-0.9077,-0.9741,-1.0502,-1.1253,-1.236,-1.3324,-1.4055,-1.4499,-1.4809,-1.4977,-1.5082,-1.5236,-1.5418,-1.5899,-1.6323,-1.6706,-1.7131,-1.7614,-1.8155,-1.8686,-1.918,-1.9646,-2.011,-2.0637,-2.123,-2.1722,-2.2176,-2.252,-2.2794,-2.3013,-2.3057,-2.3101,-2.3144,-2.3276,-2.3353,-2.358,-2.3894,-2.397,-2.4067,-2.4292,-2.4325,-2.4368,-2.4507,-2.4507,-2.4507,-2.4507,-2.4507,-2.4507,-2.4507,-2.4507,-2.4529,-2.47,-2.4871,-2.5115,-2.5285,-2.5664,-2.5999,-2.6166,-2.6487,-2.7062,-0.1566,-0.1566,-0.1566,-0.1768,-0.2022,-0.2425,-0.2876,-0.3377,-0.363,-0.4284,-0.5336,-0.6363,-0.677,-0.6837,-0.7372,-0.7596,-0.7538,-0.7734,-0.7893,-0.8021,-0.8157,-0.8296,-0.8524,-0.8568,-0.8616,-0.8616,-0.8616,-0.8616,-0.8616,-0.8616,-0.8616,-0.8616,-0.8616,-0.8616,-0.8608,-0.8385,-0.8199,-0.8024,-0.7975,-0.787,-0.7743,-0.7592,-0.7518,-0.7518,-0.7518,-0.7518,-0.7518,-0.7518,-0.7518,-0.7514,-0.7505,-0.7575,-0.7799,-0.8133,-0.8574,-0.9137,-0.9883,-1.07,-1.1688,-1.2948,-1.3841,-1.4177,-1.471,-1.5119,-1.5345,-1.5389,-1.552,-1.5884,-1.6177,-1.658,-1.7003,-1.7159,-1.7437,-1.7963,-1.8172,-1.8542,-1.905,-1.9563,-2.011,-2.0817,-2.1365,-2.1865,-2.2264,-2.2618,-2.2882,-2.3057,-2.3101,-2.3101,-2.3101,-2.3101,-2.3276,-2.3537,-2.3667,-2.3841,-2.4067,-2.4163,-2.4292,-2.4421,-2.4497,-2.4497,-2.4507,-2.4507,-2.4507,-2.4507,-2.4507,-2.4497,-2.454,-2.4658,-2.4818,-2.4946,-2.52,-2.5411,-2.5496,-2.5904,-2.6528,-0.1566,-0.1566,-0.1566,-0.1768,-0.1971,-0.2072,-0.2272,-0.2522,-0.2774,-0.2977,-0.3374,-0.4892,-0.5726,-0.59,-0.6487,-0.6678,-0.6592,-0.7231,-0.7533,-0.7577,-0.8021,-0.8204,-0.8248,-0.8476,-0.8616,-0.8568,-0.8616,-0.8616,-0.8616,-0.8616,-0.8616,-0.8616,-0.8616,-0.8616,-0.8592,-0.8381,-0.8199,-0.8016,-0.7902,-0.7735,-0.7563,-0.7531,-0.7518,-0.7518,-0.7518,-0.7518,-0.7518,-0.7518,-0.7518,-0.7518,-0.7502,-0.7613,-0.7808,-0.7999,-0.83,-0.8746,-0.9339,-1.0255,-1.1596,-1.2871,-1.375,-1.4188,-1.4914,-1.5338,-1.5382,-1.5389,-1.552,-1.5884,-1.6191,-1.6543,-1.6873,-1.7145,-1.7414,-1.7699,-1.7768,-1.8048,-1.8735,-1.9279,-1.9911,-2.0654,-2.123,-2.183,-2.2087,-2.2495,-2.2847,-2.3047,-2.3101,-2.3101,-2.3101,-2.3101,-2.3101,-2.3232,-2.3363,-2.359,-2.3807,-2.4024,-2.4153,-2.4206,-2.4368,-2.4454,-2.4454,-2.4497,-2.4507,-2.4507,-2.4507,-2.4507,-2.4507,-2.454,-2.4615,-2.4775,-2.4903,-2.5031,-2.5189,-2.5454,-2.5988,-0.1566,-0.1566,-0.1566,-0.1667,-0.1768,-0.1768,-0.1919,-0.2171,-0.2273,-0.2423,-0.2663,-0.3465,-0.4071,-0.4604,-0.5259,-0.5562,-0.5591,-0.6163,-0.6602,-0.6871,-0.7312,-0.7621,-0.7801,-0.8201,-0.834,-0.8384,-0.8524,-0.8616,-0.8616,-0.8616,-0.8616,-0.8616,-0.8616,-0.8616,-0.8588,-0.8276,-0.8085,-0.8008,-0.7775,-0.7557,-0.7492,-0.7518,-0.7518,-0.7518,-0.7518,-0.7518,-0.7518,-0.7518,-0.7518,-0.7518,-0.7518,-0.7599,-0.7799,-0.7876,-0.8102,-0.8518,-0.9311,-1.0241,-1.1335,-1.2518,-1.3458,-1.4043,-1.4791,-1.5264,-1.5389,-1.5389,-1.552,-1.5884,-1.6191,-1.6543,-1.6866,-1.7135,-1.7372,-1.7434,-1.7481,-1.766,-1.8087,-1.8635,-1.9225,-1.9965,-2.0645,-2.1329,-2.182,-2.2407,-2.2803,-2.2925,-2.3013,-2.3101,-2.3101,-2.3101,-2.3101,-2.3101,-2.3188,-2.3363,-2.358,-2.3711,-2.3851,-2.398,-2.4153,-2.4325,-2.4325,-2.4454,-2.4507,-2.4507,-2.4507,-2.4507,-2.4507,-2.4507,-2.454,-2.4668,-2.47,-2.4743,-2.4988,-2.5073,-2.5443,-0.1566,-0.1566,-0.1566,-0.1566,-0.1566,-0.1566,-0.1718,-0.1869,-0.192,-0.2014,-0.2196,-0.2321,-0.2706,-0.3343,-0.4112,-0.4538,-0.4703,-0.523,-0.5675,-0.6077,-0.6605,-0.7003,-0.7224,-0.7757,-0.8021,-0.8065,-0.834,-0.8524,-0.8616,-0.8616,-0.8616,-0.8616,-0.8616,-0.8588,-0.8463,-0.8166,-0.7992,-0.7918,-0.7634,-0.7518,-0.7518,-0.7518,-0.7518,-0.7518,-0.7518,-0.7518,-0.7518,-0.7518,-0.7518,-0.7518,-0.7518,-0.7561,-0.7718,-0.7761,-0.7991,-0.8479,-0.9198,-1.0051,-1.0989,-1.2027,-1.2987,-1.377,-1.4524,-1.509,-1.5298,-1.5389,-1.5491,-1.5752,-1.606,-1.6433,-1.6859,-1.7062,-1.7223,-1.7311,-1.7286,-1.7426,-1.7675,-1.8133,-1.8673,-1.9417,-2.0102,-2.0789,-2.1562,-2.2132,-2.2495,-2.2671,-2.2882,-2.3013,-2.3057,-2.3047,-2.3101,-2.3101,-2.3101,-2.3188,-2.3373,-2.3493,-2.3537,-2.3667,-2.3937,-2.4067,-2.4077,-2.4239,-2.4368,-2.4325,-2.4368,-2.4454,-2.4507,-2.4507,-2.4497,-2.4507,-2.4497,-2.4583,-2.4743,-2.4786,-2.4861,-0.1566,-0.1566,-0.1566,-0.1566,-0.1566,-0.1566,-0.1617,-0.1667,-0.1615,-0.165,-0.1721,-0.1875,-0.1934,-0.2039,-0.3133,-0.3637,-0.381,-0.4565,-0.5008,-0.5144,-0.5985,-0.6428,-0.6517,-0.718,-0.7533,-0.7533,-0.7981,-0.834,-0.8568,-0.8612,-0.8616,-0.8616,-0.8616,-0.8522,-0.8312,-0.8117,-0.7935,-0.782,-0.7586,-0.7518,-0.7518,-0.7518,-0.7518,-0.7518,-0.7518,-0.7518,-0.7518,-0.7518,-0.7518,-0.7518,-0.7518,-0.7518,-0.7518,-0.768,-0.8025,-0.8589,-0.8889,-0.9522,-1.0534,-1.1526,-1.2432,-1.33,-1.4206,-1.4824,-1.5131,-1.5298,-1.5411,-1.5467,-1.576,-1.6162,-1.6734,-1.691,-1.7071,-1.7252,-1.7318,-1.7426,-1.7628,-1.79,-1.845,-1.905,-1.9646,-2.0382,-2.1463,-2.1741,-2.1998,-2.2309,-2.2618,-2.2794,-2.2847,-2.2969,-2.3057,-2.3091,-2.3091,-2.3101,-2.3144,-2.3276,-2.345,-2.3537,-2.3667,-2.3851,-2.3841,-2.3841,-2.4024,-2.411,-2.4153,-2.4292,-2.4421,-2.4497,-2.4454,-2.4454,-2.4454,-2.454,-2.4615,-2.454,-2.4583,-0.1566,-0.1566,-0.1566,-0.1566,-0.1566,-0.1566,-0.1566,-0.1564,-0.1596,-0.1582,-0.1613,-0.1614,-0.163,-0.1618,-0.2173,-0.2602,-0.296,-0.3585,-0.3941,-0.421,-0.5055,-0.55,-0.5586,-0.6384,-0.6782,-0.6915,-0.7441,-0.7933,-0.834,-0.834,-0.8432,-0.8568,-0.8616,-0.8522,-0.8288,-0.8101,-0.7931,-0.7796,-0.7616,-0.7518,-0.7518,-0.7518,-0.7518,-0.7518,-0.7518,-0.7518,-0.7518,-0.7518,-0.7518,-0.7518,-0.7518,-0.7518,-0.7518,-0.7561,-0.7757,-0.8102,-0.8441,-0.9121,-1.02,-1.1124,-1.2142,-1.3236,-1.3966,-1.4538,-1.4964,-1.5173,-1.5257,-1.5411,-1.5476,-1.5818,-1.6206,-1.6653,-1.6947,-1.7018,-1.7208,-1.7326,-1.7481,-1.7667,-1.7994,-1.8496,-1.9196,-2.0056,-2.0826,-2.132,-2.1597,-2.1909,-2.2309,-2.2485,-2.2574,-2.275,-2.2925,-2.2925,-2.3003,-2.3101,-2.3101,-2.3178,-2.3276,-2.3319,-2.3416,-2.3547,-2.359,-2.3711,-2.3841,-2.3894,-2.3937,-2.398,-2.411,-2.4153,-2.4143,-2.4282,-2.4282,-2.4368,-2.4497,-2.4411,-2.4421,-0.1566,-0.1566,-0.1566,-0.1566,-0.1566,-0.1566,-0.1611,-0.16,-0.158,-0.161,-0.1538,-0.1508,-0.1485,-0.1513,-0.1636,-0.185,-0.22,-0.2691,-0.3048,-0.3318,-0.4166,-0.4565,-0.4699,-0.5497,-0.5941,-0.6077,-0.6738,-0.7445,-0.7933,-0.7977,-0.8157,-0.8476,-0.8476,-0.8395,-0.8219,-0.8073,-0.7906,-0.7691,-0.7584,-0.7518,-0.7518,-0.7518,-0.7518,-0.7518,-0.7518,-0.7518,-0.7518,-0.7518,-0.7518,-0.7518,-0.7518,-0.7518,-0.7518,-0.7518,-0.7599,-0.7799,-0.8068,-0.8698,-0.9737,-1.0581,-1.1565,-1.2814,-1.3519,-1.4166,-1.479,-1.4999,-1.5166,-1.5347,-1.5389,-1.554,-1.5789,-1.6235,-1.6668,-1.6859,-1.7047,-1.7223,-1.7264,-1.7473,-1.7714,-1.8133,-1.8819,-1.96,-2.0238,-2.0772,-2.1141,-2.1419,-2.19,-2.2176,-2.2309,-2.2485,-2.2662,-2.2671,-2.274,-2.2882,-2.2925,-2.3013,-2.3101,-2.3188,-2.3232,-2.3329,-2.3416,-2.3537,-2.3624,-2.3667,-2.3711,-2.3711,-2.3754,-2.3797,-2.3894,-2.4024,-2.4067,-2.41,-2.4196,-2.4239,-2.4239,-0.1566,-0.1566,-0.1566,-0.1566,-0.1566,-0.1566,-0.16,-0.158,-0.1573,-0.1593,-0.1557,-0.1513,-0.1446,-0.1454,-0.1512,-0.1509,-0.1619,-0.2154,-0.2469,-0.2603,-0.3274,-0.3631,-0.3676,-0.4565,-0.5097,-0.5186,-0.5941,-0.6738,-0.7401,-0.7489,-0.7713,-0.8113,-0.8181,-0.8103,-0.8024,-0.7996,-0.7829,-0.7573,-0.7526,-0.7518,-0.7518,-0.7518,-0.7518,-0.7518,-0.7518,-0.7518,-0.7518,-0.7518,-0.7518,-0.7518,-0.7518,-0.7518,-0.7518,-0.7518,-0.7561,-0.7723,-0.7842,-0.833,-0.9287,-0.9887,-1.0739,-1.1926,-1.2869,-1.3646,-1.4321,-1.479,-1.5131,-1.5305,-1.5389,-1.5452,-1.5504,-1.5767,-1.617,-1.6763,-1.6859,-1.696,-1.7179,-1.7257,-1.752,-1.7986,-1.8504,-1.9004,-1.95,-2.0011,-2.0419,-2.0871,-2.132,-2.1731,-2.1919,-2.2132,-2.2353,-2.2397,-2.2485,-2.2618,-2.2715,-2.2803,-2.2925,-2.3013,-2.3101,-2.3188,-2.3188,-2.3319,-2.3363,-2.3406,-2.345,-2.3493,-2.3537,-2.358,-2.3677,-2.3807,-2.3797,-2.3841,-2.3927,-2.4024,-2.3937,-0.1566,-0.1566,-0.1566,-0.1566,-0.1566,-0.1566,-0.1611,-0.16,-0.1581,-0.1609,-0.1544,-0.1531,-0.1504,-0.1475,-0.1477,-0.1464,-0.1437,-0.166,-0.184,-0.2109,-0.2603,-0.2871,-0.3005,-0.363,-0.4389,-0.4966,-0.5275,-0.5897,-0.6605,-0.6738,-0.7092,-0.7606,-0.7776,-0.7781,-0.7781,-0.7813,-0.7751,-0.7551,-0.7518,-0.7518,-0.7518,-0.7518,-0.7518,-0.7518,-0.7518,-0.7518,-0.7518,-0.7518,-0.7518,-0.7518,-0.7518,-0.7518,-0.7518,-0.7518,-0.7518,-0.7599,-0.7723,-0.8125,-0.8918,-0.953,-1.0336,-1.1425,-1.23,-1.3075,-1.3815,-1.4356,-1.479,-1.5131,-1.5305,-1.5389,-1.5411,-1.5469,-1.5782,-1.6162,-1.6396,-1.6602,-1.6711,-1.6879,-1.7237,-1.7723,-1.7955,-1.8272,-1.8765,-1.9271,-1.9683,-2.0048,-2.0591,-2.1051,-2.1195,-2.1597,-2.1909,-2.1909,-2.2132,-2.2309,-2.2451,-2.2495,-2.2618,-2.2838,-2.296,-2.3047,-2.3101,-2.3101,-2.3188,-2.3232,-2.3232,-2.3276,-2.3319,-2.3406,-2.345,-2.3547,-2.358,-2.3667,-2.3754,-2.3754,-2.3711,-0.1566,-0.1566,-0.1566,-0.1566,-0.1566,-0.1566,-0.161,-0.1598,-0.158,-0.1566,-0.1553,-0.1547,-0.1519,-0.149,-0.1492,-0.1473,-0.1393,-0.1391,-0.148,-0.166,-0.2064,-0.2244,-0.2334,-0.2871,-0.3631,-0.4342,-0.4476,-0.4966,-0.5855,-0.5897,-0.6293,-0.698,-0.7206,-0.7309,-0.7443,-0.76,-0.7584,-0.7393,-0.7446,-0.7518,-0.7518,-0.7518,-0.7518,-0.7518,-0.7518,-0.7518,-0.7518,-0.7518,-0.7518,-0.7518,-0.7518,-0.7518,-0.7518,-0.7518,-0.7518,-0.7518,-0.765,-0.7957,-0.8523,-0.9054,-0.9831,-1.0892,-1.1713,-1.2566,-1.3402,-1.4026,-1.4496,-1.5006,-1.5215,-1.5298,-1.5389,-1.5396,-1.5491,-1.5666,-1.6016,-1.6235,-1.6404,-1.6595,-1.6897,-1.7277,-1.7474,-1.7726,-1.8133,-1.8627,-1.905,-1.9417,-1.992,-2.0419,-2.0564,-2.088,-2.1105,-2.1284,-2.1454,-2.1722,-2.2043,-2.2176,-2.2299,-2.252,-2.2784,-2.296,-2.3047,-2.3091,-2.3144,-2.3144,-2.3188,-2.3188,-2.3232,-2.3188,-2.3232,-2.3319,-2.3363,-2.3406,-2.345,-2.3493,-2.345,-0.1566,-0.1566,-0.1566,-0.1566,-0.1566,-0.1566,-0.1603,-0.158,-0.1577,-0.1563,-0.1547,-0.156,-0.1538,-0.15,-0.1507,-0.1438,-0.1398,-0.1391,-0.1391,-0.148,-0.1705,-0.184,-0.1974,-0.2333,-0.2871,-0.3497,-0.3542,-0.4034,-0.4875,-0.4905,-0.5398,-0.621,-0.642,-0.6648,-0.6901,-0.721,-0.7246,-0.72,-0.733,-0.7484,-0.748,-0.7518,-0.7518,-0.7518,-0.7518,-0.7518,-0.7518,-0.7518,-0.7518,-0.7518,-0.7518,-0.7518,-0.7518,-0.7518,-0.7518,-0.7518,-0.7518,-0.772,-0.809,-0.8515,-0.9221,-1.0207,-1.1091,-1.2081,-1.3031,-1.362,-1.4201,-1.4838,-1.5006,-1.5131,-1.5305,-1.5389,-1.5411,-1.5425,-1.5723,-1.5987,-1.6331,-1.6382,-1.6543,-1.6831,-1.7077,-1.7272,-1.7633,-1.8095,-1.8534,-1.8958,-1.9325,-1.9646,-1.9965,-2.0147,-2.0374,-2.0555,-2.0772,-2.1096,-2.1454,-2.1353,-2.1467,-2.1895,-2.2176,-2.2413,-2.2737,-2.2863,-2.2955,-2.2964,-2.2916,-2.2974,-2.3013,-2.2945,-2.3023,-2.3178,-2.3178,-2.3091,-2.3135,-2.3212,-2.3246,-0.1111,-0.1313,-0.1313,-0.1415,-0.1566,-0.1566,-0.1562,-0.1605,-0.1604,-0.1597,-0.1591,-0.1577,-0.155,-0.1515,-0.1498,-0.1471,-0.1398,-0.1391,-0.1391,-0.1391,-0.1436,-0.1615,-0.175,-0.193,-0.2243,-0.2738,-0.2826,-0.323,-0.3892,-0.3974,-0.4422,-0.5275,-0.5524,-0.5767,-0.6186,-0.6591,-0.6769,-0.6841,-0.7099,-0.7257,-0.7296,-0.7403,-0.7518,-0.7518,-0.7484,-0.748,-0.7518,-0.7518,-0.7518,-0.7518,-0.7518,-0.7518,-0.7518,-0.7518,-0.7518,-0.7518,-0.7522,-0.7577,-0.7845,-0.8151,-0.8675,-0.9396,-1.03,-1.1135,-1.2075,-1.2856,-1.3584,-1.4201,-1.4496,-1.4741,-1.509,-1.5173,-1.5264,-1.5396,-1.5491,-1.5701,-1.595,-1.6045,-1.6155,-1.6477,-1.658,-1.6795,-1.7107,-1.7385,-1.7728,-1.8134,-1.8535,-1.8866,-1.918,-1.9443,-1.9645,-1.9894,-2.0184,-2.0555,-2.0764,-2.058,-2.0694,-2.1172,-2.1404,-2.1549,-2.2002,-2.2414,-2.251,-2.258,-2.2376,-2.2347,-2.2545,-2.2637,-2.2822,-2.2939,-2.2945,-2.2886,-2.3013,-2.3096,-2.3066,-0.0707,-0.0859,-0.096,-0.1111,-0.1263,-0.1364,-0.1415,-0.1465,-0.1566,-0.1566,-0.161,-0.1585,-0.1555,-0.1477,-0.1494,-0.1464,-0.1393,-0.1391,-0.1391,-0.1391,-0.1391,-0.148,-0.1615,-0.1615,-0.184,-0.2155,-0.22,-0.2557,-0.304,-0.3161,-0.3606,-0.4263,-0.4641,-0.499,-0.5347,-0.5819,-0.6096,-0.6209,-0.6479,-0.6718,-0.6949,-0.7061,-0.7215,-0.7334,-0.7373,-0.7407,-0.7484,-0.7518,-0.7518,-0.7518,-0.7518,-0.7518,-0.7518,-0.7518,-0.7518,-0.7518,-0.7518,-0.7561,-0.7654,-0.7866,-0.8225,-0.8855,-0.9632,-1.0486,-1.138,-1.2258,-1.3052,-1.3695,-1.4075,-1.4412,-1.4748,-1.4957,-1.5131,-1.5264,-1.5347,-1.5469,-1.5701,-1.5673,-1.5855,-1.6067,-1.6199,-1.6345,-1.6661,-1.689,-1.7159,-1.7482,-1.791,-1.818,-1.8396,-1.8662,-1.887,-1.9052,-1.9126,-1.9296,-1.9548,-1.9511,-1.9627,-2.0118,-2.0406,-2.061,-2.1146,-2.1693,-2.1911,-2.1926,-2.1816,-2.179,-2.2026,-2.2214,-2.2314,-2.2432,-2.2588,-2.2646,-2.2676,-2.275,-2.275,-0.0202,-0.0303,-0.0556,-0.0657,-0.0808,-0.101,-0.1111,-0.1212,-0.1415,-0.1513,-0.1553,-0.1579,-0.1545,-0.1473,-0.1484,-0.1459,-0.1391,-0.1391,-0.1391,-0.1391,-0.1391,-0.1436,-0.1436,-0.1436,-0.157,-0.175,-0.175,-0.2013,-0.2397,-0.262,-0.2894,-0.3406,-0.3831,-0.4174,-0.4506,-0.4951,-0.5302,-0.5473,-0.5783,-0.6093,-0.6405,-0.6521,-0.6714,-0.7065,-0.7223,-0.7334,-0.7446,-0.7518,-0.7518,-0.7518,-0.7518,-0.7518,-0.7518,-0.7518,-0.7518,-0.7518,-0.7518,-0.7518,-0.7518,-0.7697,-0.7944,-0.8457,-0.9122,-0.9958,-1.0819,-1.1629,-1.2383,-1.313,-1.3652,-1.399,-1.4405,-1.4748,-1.4957,-1.5048,-1.5215,-1.5298,-1.534,-1.5389,-1.5506,-1.5768,-1.5819,-1.6009,-1.6323,-1.6595,-1.6853,-1.6965,-1.7295,-1.7432,-1.7568,-1.7749,-1.786,-1.7926,-1.7948,-1.7866,-1.8132,-1.8378,-1.8615,-1.8948,-1.9276,-1.9594,-2.0204,-2.0749,-2.1106,-2.1237,-2.1118,-2.1238,-2.1523,-2.1702,-2.1763,-2.196,-2.2123,-2.2048,-2.1982,-2.2187,-2.2266,0.111,0.0556,0.0505,0.0101,-0.0455,-0.0556,-0.0707,-0.0859,-0.1162,-0.1254,-0.1333,-0.1453,-0.1473,-0.1491,-0.1418,-0.1395,-0.1391,-0.1391,-0.1391,-0.1391,-0.1391,-0.1391,-0.1391,-0.1391,-0.1436,-0.1525,-0.148,-0.1646,-0.1926,-0.2018,-0.2139,-0.2599,-0.3033,-0.3259,-0.3529,-0.4245,-0.4659,-0.4753,-0.5126,-0.5473,-0.578,-0.5938,-0.6212,-0.6679,-0.7026,-0.7296,-0.7446,-0.7518,-0.7518,-0.7518,-0.7518,-0.7518,-0.7518,-0.7518,-0.7518,-0.7518,-0.7518,-0.7518,-0.7518,-0.7561,-0.7693,-0.7996,-0.8523,-0.9096,-0.9907,-1.0689,-1.1477,-1.2171,-1.2741,-1.3349,-1.4039,-1.4363,-1.4573,-1.4699,-1.4824,-1.4866,-1.4915,-1.5173,-1.5398,-1.5484,-1.5528,-1.5608,-1.5957,-1.6082,-1.6309,-1.6514,-1.6669,-1.6713,-1.6847,-1.6966,-1.7003,-1.7105,-1.7062,-1.7051,-1.727,-1.7472,-1.7657,-1.7878,-1.8154,-1.8544,-1.9179,-1.9675,-2.003,-2.0273,-2.0398,-2.0642,-2.0924,-2.1084,-2.1144,-2.1407,-2.1663,-2.1658,-2.1641,-2.1738,-2.1807,0.2118,0.1716,0.1464,0.111,0.0707,0.0303,0.005,-0.0101,-0.0455,-0.0703,-0.0842,-0.0966,-0.1043,-0.1171,-0.1138,-0.1122,-0.1256,-0.1346,-0.1391,-0.1391,-0.1391,-0.1391,-0.1391,-0.1391,-0.1391,-0.139,-0.1391,-0.1507,-0.1563,-0.1656,-0.1832,-0.1996,-0.2399,-0.271,-0.2876,-0.3474,-0.3788,-0.3983,-0.4249,-0.4577,-0.5004,-0.516,-0.5589,-0.6212,-0.6679,-0.7026,-0.7334,-0.7369,-0.7407,-0.748,-0.7518,-0.7518,-0.7518,-0.7518,-0.7518,-0.7518,-0.7518,-0.7518,-0.7518,-0.7518,-0.7561,-0.7646,-0.8082,-0.8591,-0.9232,-0.9937,-1.0615,-1.13,-1.1972,-1.2705,-1.3532,-1.3822,-1.4026,-1.4237,-1.444,-1.4573,-1.4615,-1.4957,-1.5264,-1.5305,-1.5369,-1.5476,-1.5643,-1.5739,-1.5921,-1.6198,-1.647,-1.6522,-1.647,-1.6521,-1.6388,-1.6386,-1.6281,-1.6332,-1.6464,-1.6641,-1.6768,-1.6929,-1.7145,-1.7549,-1.8097,-1.8548,-1.8926,-1.929,-1.9755,-1.9974,-2.0214,-2.0353,-2.0529,-2.0766,-2.0962,-2.116,-2.125,-2.1172,-2.1299,0.3077,0.2927,0.2471,0.2218,0.2018,0.1363,0.101,0.0909,0.0404,0.0101,-0.015,-0.0242,-0.0428,-0.0564,-0.0639,-0.0763,-0.0987,-0.1121,-0.1166,-0.1346,-0.1346,-0.1346,-0.1391,-0.1391,-0.1385,-0.1385,-0.1425,-0.1408,-0.1423,-0.1522,-0.1606,-0.1625,-0.1921,-0.2201,-0.2441,-0.2707,-0.3032,-0.3357,-0.3427,-0.3698,-0.4192,-0.4345,-0.4851,-0.5709,-0.6173,-0.6637,-0.6949,-0.7103,-0.718,-0.7407,-0.7446,-0.7446,-0.7446,-0.7518,-0.7518,-0.7518,-0.7518,-0.7518,-0.7518,-0.7518,-0.7522,-0.7492,-0.7805,-0.8179,-0.8688,-0.9284,-0.9848,-1.0522,-1.1187,-1.2063,-1.2796,-1.3137,-1.3349,-1.3603,-1.4019,-1.423,-1.4356,-1.4664,-1.488,-1.5041,-1.5082,-1.5209,-1.5316,-1.5466,-1.5625,-1.5834,-1.6104,-1.6235,-1.617,-1.6089,-1.5978,-1.589,-1.5843,-1.5841,-1.5973,-1.6349,-1.6392,-1.6453,-1.6534,-1.6881,-1.7294,-1.7615,-1.8134,-1.8731,-1.9139,-1.9338,-1.9545,-1.9739,-1.9937,-2.0117,-2.0341,-2.0592,-2.0634,-2.0557,-2.0791,0.4386,0.3781,0.3681,0.3278,0.2675,0.227,0.2018,0.1765,0.1261,0.1,0.0935,0.053,0.0283,0.0139,-0.0045,-0.0269,-0.0448,-0.0583,-0.0762,-0.1076,-0.1121,-0.1166,-0.1341,-0.134,-0.1375,-0.1403,-0.1395,-0.1379,-0.1311,-0.1365,-0.1421,-0.1402,-0.1638,-0.1818,-0.1943,-0.2224,-0.2557,-0.2783,-0.2868,-0.3155,-0.3499,-0.3839,-0.4348,-0.524,-0.5586,-0.6054,-0.6521,-0.6679,-0.6795,-0.698,-0.7138,-0.7219,-0.7296,-0.7407,-0.7484,-0.7518,-0.7518,-0.7518,-0.7518,-0.7518,-0.7518,-0.7526,-0.7602,-0.7818,-0.8202,-0.8577,-0.911,-0.9653,-1.0371,-1.1214,-1.21,-1.237,-1.2747,-1.3088,-1.3392,-1.3603,-1.3688,-1.399,-1.4412,-1.4573,-1.4741,-1.4866,-1.5007,-1.5133,-1.5275,-1.5375,-1.5511,-1.5676,-1.5675,-1.5652,-1.5564,-1.554,-1.5489,-1.5474,-1.5509,-1.5978,-1.6244,-1.6325,-1.643,-1.6672,-1.6961,-1.6964,-1.7347,-1.7858,-1.8353,-1.8603,-1.8843,-1.9112,-1.939,-1.9587,-1.9784,-2.0029,-2.0177,-2.0333,-2.045,0.5186,0.4834,0.4686,0.4384,0.3982,0.3479,0.3176,0.2975,0.2471,0.2047,0.1813,0.1489,0.1178,0.097,0.0814,0.0538,0.0224,0.0045,-0.0269,-0.0628,-0.0762,-0.0935,-0.115,-0.1193,-0.1264,-0.1328,-0.1353,-0.1341,-0.1325,-0.1311,-0.1326,-0.1354,-0.1466,-0.1528,-0.166,-0.1896,-0.2154,-0.2275,-0.2371,-0.2531,-0.2829,-0.3173,-0.3876,-0.4462,-0.4888,-0.5354,-0.5935,-0.6089,-0.6325,-0.6633,-0.683,-0.6911,-0.7061,-0.7215,-0.7365,-0.7442,-0.748,-0.7518,-0.7518,-0.7518,-0.7518,-0.7518,-0.7518,-0.7647,-0.7892,-0.8228,-0.8564,-0.9115,-0.9572,-1.0306,-1.108,-1.1446,-1.1889,-1.2339,-1.2747,-1.2997,-1.3137,-1.3483,-1.3779,-1.4104,-1.4447,-1.465,-1.4734,-1.4838,-1.488,-1.4957,-1.4992,-1.5082,-1.5215,-1.5257,-1.5257,-1.5298,-1.5305,-1.5347,-1.5391,-1.5744,-1.6056,-1.6173,-1.6297,-1.6543,-1.6523,-1.6522,-1.6556,-1.6827,-1.727,-1.7789,-1.8282,-1.8594,-1.8834,-1.9063,-1.939,-1.9666,-1.9942,-2.0098,-2.0216,0.5737,0.5636,0.5438,0.534,0.519,0.4535,0.4234,0.4131,0.3665,0.3132,0.274,0.2535,0.2204,0.1892,0.1679,0.148,0.0987,0.0852,0.0448,-0.0045,-0.0178,-0.0397,-0.0786,-0.0907,-0.0983,-0.1172,-0.1239,-0.1262,-0.1304,-0.1294,-0.1318,-0.1312,-0.1329,-0.1394,-0.158,-0.1646,-0.177,-0.184,-0.1901,-0.1979,-0.2289,-0.2665,-0.3212,-0.3802,-0.4073,-0.4496,-0.5157,-0.5312,-0.5589,-0.5977,-0.6286,-0.644,-0.6633,-0.6907,-0.7138,-0.7292,-0.7407,-0.748,-0.7518,-0.7518,-0.7518,-0.7518,-0.7518,-0.7604,-0.7733,-0.7961,-0.8253,-0.8792,-0.9101,-0.9458,-1.0101,-1.0497,-1.0942,-1.1437,-1.1972,-1.2474,-1.2607,-1.2881,-1.3179,-1.3603,-1.411,-1.4321,-1.4314,-1.4608,-1.4657,-1.4741,-1.4783,-1.4866,-1.4999,-1.4999,-1.5041,-1.5124,-1.5173,-1.5222,-1.5351,-1.5589,-1.5855,-1.6014,-1.6124,-1.6336,-1.6201,-1.605,-1.6137,-1.6208,-1.6451,-1.7009,-1.7505,-1.804,-1.8273,-1.8554,-1.8913,-1.9271,-1.9578,-1.9824,-1.9942,0.6187,0.5942,0.5889,0.5789,0.5534,0.5181,0.5035,0.497,0.4404,0.413,0.3893,0.3451,0.3154,0.2941,0.2758,0.2423,0.2108,0.1884,0.1433,0.0713,0.0617,0.0218,-0.039,-0.0469,-0.0668,-0.0902,-0.1017,-0.114,-0.1213,-0.1275,-0.1304,-0.1304,-0.1323,-0.1347,-0.1398,-0.143,-0.154,-0.1686,-0.1718,-0.1887,-0.2142,-0.2285,-0.2678,-0.3069,-0.3306,-0.3626,-0.4263,-0.4501,-0.4726,-0.4984,-0.5479,-0.5702,-0.5854,-0.6367,-0.6602,-0.6868,-0.7138,-0.7518,-0.748,-0.748,-0.7518,-0.7518,-0.7518,-0.7496,-0.76,-0.7737,-0.7942,-0.8175,-0.8429,-0.8737,-0.9223,-0.9652,-1.0058,-1.0549,-1.1151,-1.155,-1.1815,-1.2257,-1.2572,-1.2881,-1.3328,-1.362,-1.3773,-1.4146,-1.444,-1.4524,-1.4566,-1.4657,-1.4783,-1.4824,-1.4824,-1.495,-1.4992,-1.5041,-1.5175,-1.5411,-1.5576,-1.577,-1.5908,-1.6017,-1.5892,-1.5738,-1.5755,-1.5895,-1.6035,-1.6229,-1.6763,-1.7261,-1.7635,-1.8,-1.8353,-1.8785,-1.9301,-1.946,-1.9587,0.633,0.6239,0.6237,0.6153,0.595,0.5699,0.5566,0.5417,0.508,0.4743,0.4549,0.4154,0.3769,0.35,0.3326,0.3094,0.2825,0.2732,0.2313,0.1631,0.1436,0.1029,0.0336,0.0124,-0.0082,-0.0482,-0.0638,-0.0796,-0.0993,-0.1228,-0.1297,-0.1299,-0.131,-0.1327,-0.1298,-0.1326,-0.1383,-0.1469,-0.147,-0.1624,-0.1846,-0.1956,-0.2159,-0.2608,-0.2644,-0.3005,-0.3489,-0.3709,-0.4002,-0.4334,-0.4827,-0.503,-0.5218,-0.5625,-0.6012,-0.6089,-0.6633,-0.7061,-0.7296,-0.7407,-0.7484,-0.748,-0.748,-0.7522,-0.7539,-0.7588,-0.7649,-0.7758,-0.7946,-0.8202,-0.8533,-0.8947,-0.928,-0.9717,-1.0285,-1.0559,-1.0966,-1.1548,-1.1966,-1.2241,-1.2505,-1.2795,-1.3102,-1.3536,-1.3898,-1.411,-1.4237,-1.4405,-1.4531,-1.4692,-1.4734,-1.4734,-1.4776,-1.4776,-1.493,-1.512,-1.529,-1.544,-1.544,-1.5511,-1.5505,-1.5461,-1.543,-1.5469,-1.557,-1.5824,-1.6113,-1.6517,-1.7009,-1.7383,-1.7757,-1.8193,-1.8665,-1.8825,-1.8993,0.6274,0.6298,0.635,0.6298,0.6225,0.6026,0.5885,0.5766,0.5492,0.5248,0.4954,0.4595,0.4225,0.3913,0.3808,0.3618,0.3333,0.3336,0.2898,0.2514,0.2222,0.1761,0.1192,0.0891,0.06,-0.0079,-0.0039,-0.0315,-0.0709,-0.0982,-0.114,-0.1297,-0.13,-0.131,-0.1327,-0.1304,-0.1358,-0.1331,-0.1333,-0.145,-0.1562,-0.1603,-0.1809,-0.2019,-0.2191,-0.2398,-0.2852,-0.3028,-0.3325,-0.3539,-0.3966,-0.4174,-0.4367,-0.4792,-0.5198,-0.5389,-0.5896,-0.6405,-0.6795,-0.7103,-0.7369,-0.7446,-0.748,-0.7518,-0.7518,-0.7518,-0.7522,-0.7543,-0.7671,-0.7823,-0.7999,-0.8352,-0.8617,-0.8966,-0.9413,-0.9645,-0.9938,-1.0624,-1.1098,-1.1285,-1.1549,-1.1998,-1.2355,-1.2868,-1.3255,-1.3613,-1.3864,-1.4055,-1.4245,-1.442,-1.4441,-1.4434,-1.4455,-1.4496,-1.465,-1.4824,-1.4956,-1.5055,-1.5055,-1.5077,-1.5106,-1.5071,-1.507,-1.5097,-1.5166,-1.5249,-1.5484,-1.5899,-1.6345,-1.6804,-1.7261,-1.7587,-1.7951,-1.8112,-1.8434,0.6102,0.6111,0.6111,0.6108,0.6097,0.61,0.6092,0.5998,0.5683,0.5547,0.5377,0.4946,0.4676,0.4523,0.4281,0.4026,0.3792,0.3745,0.3394,0.3034,0.2809,0.2414,0.1975,0.1632,0.1378,0.0707,0.0589,0.0275,-0.0236,-0.0511,-0.0864,-0.1218,-0.1258,-0.1298,-0.131,-0.1331,-0.1303,-0.1314,-0.1316,-0.1304,-0.1369,-0.1401,-0.148,-0.1636,-0.1667,-0.1779,-0.202,-0.2231,-0.2412,-0.2601,-0.3044,-0.3313,-0.3476,-0.3981,-0.4343,-0.4574,-0.5082,-0.5589,-0.6018,-0.6718,-0.7146,-0.7296,-0.7407,-0.7518,-0.7518,-0.7518,-0.7518,-0.7518,-0.7561,-0.7565,-0.7671,-0.776,-0.8065,-0.8295,-0.8657,-0.8892,-0.9237,-0.9751,-1.0197,-1.0284,-1.0637,-1.115,-1.1506,-1.1964,-1.2589,-1.2974,-1.3358,-1.3594,-1.3785,-1.3944,-1.4011,-1.4087,-1.4114,-1.4169,-1.4337,-1.4454,-1.4474,-1.4572,-1.4641,-1.467,-1.4733,-1.4699,-1.4741,-1.4783,-1.4866,-1.4824,-1.4866,-1.536,-1.585,-1.6353,-1.6722,-1.6968,-1.7302,-1.7587,-1.791,0.6345,0.6272,0.6136,0.6047,0.5975,0.5975,0.5934,0.5823,0.5729,0.5575,0.5478,0.526,0.5015,0.4861,0.4586,0.4376,0.4204,0.402,0.3701,0.3476,0.3262,0.2983,0.263,0.233,0.208,0.1529,0.1372,0.0981,0.0314,0.0039,-0.0393,-0.0746,-0.11,-0.1297,-0.1307,-0.1324,-0.1297,-0.1307,-0.1318,-0.132,-0.1318,-0.1313,-0.1354,-0.1396,-0.1436,-0.1558,-0.1767,-0.1859,-0.1973,-0.212,-0.2439,-0.2583,-0.2678,-0.3192,-0.3487,-0.3717,-0.4304,-0.4813,-0.5321,-0.6135,-0.6911,-0.7219,-0.7369,-0.748,-0.748,-0.7518,-0.7518,-0.7518,-0.7518,-0.7518,-0.7522,-0.7607,-0.7687,-0.7806,-0.7965,-0.8212,-0.8545,-0.9042,-0.9288,-0.9418,-0.9938,-1.0472,-1.0757,-1.1035,-1.174,-1.2372,-1.2741,-1.3113,-1.3335,-1.3484,-1.3523,-1.3619,-1.3625,-1.364,-1.379,-1.3851,-1.3925,-1.4075,-1.422,-1.4267,-1.4378,-1.4489,-1.4531,-1.4566,-1.4608,-1.4657,-1.4741,-1.4901,-1.5269,-1.5692,-1.594,-1.618,-1.6558,-1.7017,-1.7302,0.6533,0.6446,0.6315,0.6107,0.5977,0.5852,0.5739,0.5648,0.5634,0.5561,0.5406,0.5318,0.5187,0.494,0.4722,0.4527,0.4404,0.4182,0.3983,0.3806,0.3645,0.3382,0.3153,0.2901,0.2705,0.2273,0.2038,0.1648,0.1021,0.0667,0.0196,-0.0314,-0.0786,-0.0983,-0.1302,-0.1316,-0.1329,-0.1296,-0.1307,-0.1321,-0.1317,-0.1316,-0.1313,-0.1312,-0.1309,-0.139,-0.1513,-0.1601,-0.1646,-0.1796,-0.1947,-0.2056,-0.2191,-0.2404,-0.2707,-0.3056,-0.3485,-0.4034,-0.4657,-0.567,-0.6602,-0.6949,-0.7257,-0.7369,-0.7407,-0.748,-0.7518,-0.7518,-0.7518,-0.7518,-0.7518,-0.7522,-0.7522,-0.7645,-0.7679,-0.7871,-0.7962,-0.8338,-0.8443,-0.8583,-0.9118,-0.9572,-0.976,-1.0071,-1.1044,-1.1726,-1.2302,-1.2643,-1.2885,-1.2972,-1.2986,-1.3066,-1.314,-1.3134,-1.3127,-1.3347,-1.3561,-1.3662,-1.379,-1.3924,-1.4026,-1.417,-1.4294,-1.4321,-1.4363,-1.4489,-1.4524,-1.4559,-1.4734,-1.4957,-1.5284,-1.5609,-1.585,-1.627,-1.6525,0.6646,0.6581,0.6639,0.6416,0.6151,0.5819,0.5659,0.5602,0.5553,0.5499,0.5381,0.5162,0.5076,0.4987,0.4809,0.467,0.4524,0.4322,0.4143,0.404,0.3872,0.3653,0.353,0.3409,0.3176,0.2824,0.2588,0.2314,0.1843,0.1295,0.0746,0.0275,-0.0157,-0.0668,-0.1218,-0.1298,-0.1298,-0.1299,-0.1304,-0.1308,-0.1311,-0.1312,-0.1313,-0.1314,-0.1315,-0.1357,-0.1362,-0.1375,-0.1419,-0.1497,-0.1577,-0.1652,-0.1728,-0.1899,-0.2123,-0.2314,-0.2666,-0.3175,-0.3839,-0.5398,-0.6138,-0.6525,-0.683,-0.7142,-0.7219,-0.733,-0.7442,-0.7407,-0.7446,-0.7484,-0.7484,-0.7518,-0.7518,-0.7518,-0.7561,-0.7565,-0.7701,-0.7786,-0.794,-0.8082,-0.8266,-0.8507,-0.8703,-0.9134,-1.0239,-1.1089,-1.174,-1.2141,-1.2351,-1.2406,-1.2349,-1.2486,-1.259,-1.2635,-1.2667,-1.2995,-1.32,-1.326,-1.3367,-1.354,-1.3707,-1.3843,-1.3951,-1.4037,-1.4011,-1.4001,-1.4046,-1.4097,-1.4336,-1.4573,-1.4859,-1.5151,-1.5318,-1.5519,-1.5775,0.7477,0.7473,0.7312,0.7212,0.701,0.6381,0.6011,0.5855,0.5723,0.5574,0.5418,0.5288,0.5288,0.5186,0.4997,0.4819,0.4703,0.4451,0.4321,0.4277,0.4077,0.396,0.3882,0.3724,0.3567,0.3331,0.3136,0.2901,0.247,0.1922,0.1529,0.1137,0.0392,-0.0314,-0.0904,-0.1179,-0.1297,-0.1297,-0.1298,-0.1298,-0.1297,-0.1297,-0.1297,-0.1297,-0.1297,-0.1297,-0.1297,-0.1313,-0.1316,-0.1317,-0.1436,-0.1435,-0.1435,-0.1613,-0.173,-0.1884,-0.2198,-0.2665,-0.3368,-0.4421,-0.5279,-0.5822,-0.6405,-0.6756,-0.6834,-0.6984,-0.7138,-0.7253,-0.7292,-0.7334,-0.7446,-0.748,-0.7518,-0.7518,-0.7518,-0.7518,-0.7569,-0.7607,-0.7658,-0.7744,-0.7868,-0.8174,-0.8403,-0.8518,-0.9391,-0.9978,-1.0578,-1.1144,-1.1464,-1.1562,-1.1582,-1.1847,-1.1998,-1.2068,-1.2183,-1.2505,-1.2674,-1.2719,-1.2995,-1.332,-1.3434,-1.348,-1.354,-1.3587,-1.354,-1.3507,-1.3621,-1.3748,-1.3956,-1.4184,-1.4441,-1.4706,-1.4901,-1.4985,-1.511,0.7986,0.795,0.7833,0.7713,0.7567,0.6849,0.6379,0.6125,0.588,0.5697,0.5566,0.5488,0.5401,0.5294,0.5173,0.4975,0.4922,0.4661,0.4504,0.4504,0.4309,0.4192,0.4114,0.3999,0.3843,0.3724,0.3526,0.3292,0.302,0.2588,0.2117,0.1568,0.0902,0.0275,-0.0314,-0.0629,-0.1022,-0.1061,-0.114,-0.1218,-0.1258,-0.1297,-0.1297,-0.1297,-0.1297,-0.1297,-0.1297,-0.1297,-0.1297,-0.1297,-0.1297,-0.1297,-0.1336,-0.1415,-0.1493,-0.161,-0.1883,-0.2313,-0.286,-0.3485,-0.4185,-0.4611,-0.5622,-0.617,-0.6363,-0.6595,-0.683,-0.6945,-0.7026,-0.718,-0.733,-0.7369,-0.7403,-0.7403,-0.748,-0.748,-0.748,-0.7522,-0.7518,-0.7561,-0.7599,-0.7906,-0.8102,-0.8217,-0.8564,-0.8971,-0.9337,-0.9954,-1.0556,-1.0738,-1.0887,-1.1161,-1.1428,-1.1534,-1.1696,-1.1979,-1.2132,-1.2189,-1.2498,-1.289,-1.3021,-1.3061,-1.3121,-1.3167,-1.3234,-1.3313,-1.33,-1.34,-1.3635,-1.3795,-1.3972,-1.422,-1.4461,-1.4573,-1.4657,0.8106,0.814,0.8106,0.8043,0.7738,0.7262,0.682,0.6418,0.6126,0.596,0.5918,0.5749,0.5608,0.5383,0.5329,0.5224,0.5037,0.4823,0.4742,0.4662,0.4504,0.4462,0.4345,0.4231,0.4114,0.396,0.3802,0.3604,0.345,0.3057,0.2547,0.1999,0.1491,0.0982,0.0589,0.0196,-0.0314,-0.0668,-0.0904,-0.1022,-0.114,-0.1297,-0.1297,-0.1297,-0.1297,-0.1297,-0.1297,-0.1297,-0.1297,-0.1297,-0.1297,-0.1297,-0.1297,-0.1297,-0.1297,-0.1414,-0.1687,-0.1961,-0.2234,-0.2821,-0.3093,-0.356,-0.4572,-0.5234,-0.5664,-0.5977,-0.6209,-0.644,-0.6556,-0.6868,-0.7099,-0.7176,-0.7215,-0.7292,-0.7407,-0.7446,-0.7446,-0.7484,-0.7518,-0.7518,-0.7518,-0.7676,-0.7795,-0.791,-0.8063,-0.8293,-0.867,-0.8975,-0.9576,-1.0067,-1.0218,-1.0443,-1.0706,-1.0999,-1.1222,-1.1446,-1.1646,-1.1746,-1.1999,-1.2337,-1.2499,-1.2596,-1.2622,-1.2739,-1.3001,-1.3087,-1.3014,-1.3081,-1.3307,-1.346,-1.3688,-1.3964,-1.4225,-1.4237,-1.4292,0.8518,0.8513,0.8513,0.8475,0.8412,0.8095,0.7606,0.6974,0.6848,0.6679,0.637,0.6328,0.6099,0.5747,0.5709,0.5515,0.5321,0.5126,0.5012,0.4896,0.4737,0.4659,0.4543,0.4426,0.4309,0.4231,0.4075,0.388,0.3843,0.3489,0.302,0.255,0.2237,0.1922,0.1569,0.1333,0.0549,-0.0157,-0.0471,-0.0746,-0.0983,-0.1179,-0.1218,-0.1258,-0.1297,-0.1297,-0.1297,-0.1297,-0.1297,-0.1297,-0.1297,-0.1297,-0.1297,-0.1297,-0.1297,-0.1336,-0.1532,-0.1728,-0.1845,-0.2196,-0.2469,-0.2586,-0.3405,-0.4068,-0.4613,-0.5085,-0.5473,-0.5741,-0.5973,-0.6209,-0.6556,-0.671,-0.6868,-0.7057,-0.7176,-0.7257,-0.7292,-0.7407,-0.7442,-0.7518,-0.7518,-0.7518,-0.7638,-0.7638,-0.7791,-0.791,-0.8102,-0.8331,-0.8675,-0.9203,-0.9539,-0.9765,-1.0105,-1.04,-1.0663,-1.0879,-1.1092,-1.1328,-1.1539,-1.1746,-1.1923,-1.2043,-1.2081,-1.2208,-1.2465,-1.2588,-1.2673,-1.2784,-1.2876,-1.3234,-1.344,-1.3754,-1.3975,-1.4015,-1.4075,0.8899,0.8822,0.8827,0.8784,0.8703,0.8551,0.8208,0.7791,0.7561,0.7292,0.7096,0.698,0.6714,0.6367,0.6286,0.6054,0.5553,0.544,0.5287,0.509,0.4896,0.4857,0.474,0.4621,0.4543,0.4465,0.4348,0.4192,0.4116,0.3802,0.337,0.3096,0.302,0.2668,0.2314,0.2038,0.1568,0.0745,0.0118,-0.0314,-0.0668,-0.0943,-0.11,-0.114,-0.1179,-0.1297,-0.1297,-0.1297,-0.1297,-0.1297,-0.1297,-0.1297,-0.1297,-0.1297,-0.1297,-0.1336,-0.1375,-0.1493,-0.1532,-0.1766,-0.1923,-0.2079,-0.239,-0.286,-0.3563,-0.4109,-0.4616,-0.5043,-0.524,-0.5434,-0.586,-0.6247,-0.6479,-0.6749,-0.6868,-0.6988,-0.7142,-0.7253,-0.7369,-0.748,-0.7518,-0.7518,-0.7518,-0.7518,-0.7518,-0.7676,-0.7757,-0.791,-0.8217,-0.8637,-0.8899,-0.9084,-0.9468,-0.9841,-1.0067,-1.0293,-1.0513,-1.07,-1.0798,-1.1016,-1.1298,-1.1509,-1.1596,-1.1721,-1.1869,-1.2022,-1.2208,-1.2258,-1.2399,-1.2765,-1.3035,-1.32,-1.3518,-1.3893,-1.3995,0.9198,0.8988,0.8993,0.8898,0.8751,0.8765,0.8742,0.8665,0.8169,0.7863,0.7787,0.7633,0.7365,0.7019,0.6899,0.6518,0.6057,0.575,0.5479,0.5282,0.5054,0.494,0.4898,0.482,0.474,0.4662,0.4543,0.4387,0.4309,0.4036,0.3724,0.3526,0.3333,0.3059,0.2862,0.2705,0.2273,0.1764,0.0981,0.0393,-0.0157,-0.055,-0.0864,-0.0864,-0.1061,-0.1258,-0.1258,-0.1258,-0.1297,-0.1297,-0.1297,-0.1297,-0.1297,-0.1297,-0.1297,-0.1289,-0.1325,-0.1318,-0.1353,-0.1503,-0.1548,-0.1669,-0.176,-0.2065,-0.264,-0.3205,-0.3756,-0.4185,-0.4382,-0.4693,-0.5118,-0.5392,-0.5664,-0.5973,-0.6247,-0.6444,-0.6637,-0.6865,-0.7173,-0.7288,-0.7288,-0.7288,-0.733,-0.7292,-0.7369,-0.7446,-0.7561,-0.7642,-0.7795,-0.814,-0.8331,-0.8479,-0.8861,-0.9241,-0.9392,-0.9614,-0.9879,-1.0067,-1.018,-1.0406,-1.0738,-1.0962,-1.1149,-1.126,-1.1409,-1.1558,-1.1702,-1.1839,-1.1985,-1.2183,-1.2454,-1.259,-1.2949,-1.3457,-1.3765,0.9183,0.899,0.899,0.899,0.8936,0.9095,0.916,0.9132,0.8861,0.8518,0.8284,0.8174,0.794,0.7595,0.7442,0.7057,0.6483,0.6096,0.5631,0.5362,0.5132,0.5018,0.5018,0.494,0.4898,0.4859,0.474,0.4543,0.4384,0.4153,0.3999,0.3921,0.3726,0.3489,0.3333,0.3214,0.2938,0.2549,0.196,0.1177,0.055,-0.0039,-0.0471,-0.055,-0.0746,-0.0943,-0.1022,-0.1179,-0.1258,-0.1297,-0.1297,-0.1297,-0.1297,-0.1296,-0.1284,-0.1267,-0.1224,-0.1251,-0.1241,-0.1311,-0.1349,-0.1392,-0.1474,-0.156,-0.188,-0.2371,-0.282,-0.321,-0.36,-0.3951,-0.4302,-0.4538,-0.4851,-0.5237,-0.5589,-0.5857,-0.6131,-0.6518,-0.6903,-0.7019,-0.7019,-0.7057,-0.7099,-0.7138,-0.7219,-0.7334,-0.7484,-0.7522,-0.7522,-0.7714,-0.7868,-0.8059,-0.8365,-0.8632,-0.8746,-0.8975,-0.9279,-0.9539,-0.969,-0.9916,-1.018,-1.0443,-1.0663,-1.0812,-1.0925,-1.1074,-1.126,-1.1571,-1.1721,-1.174,-1.1936,-1.2107,-1.2324,-1.2757,-1.3178,0.9207,0.8944,0.8867,0.8831,0.8872,0.9074,0.917,0.9148,0.9125,0.9018,0.8789,0.8594,0.836,0.8093,0.794,0.7561,0.6984,0.6556,0.6093,0.5631,0.5285,0.5093,0.5054,0.5018,0.4979,0.494,0.4898,0.474,0.4543,0.4465,0.435,0.4233,0.4036,0.3882,0.3724,0.3604,0.3409,0.3098,0.2666,0.2118,0.1374,0.0746,0.0157,-0.0039,-0.0314,-0.055,-0.0746,-0.0943,-0.11,-0.1179,-0.1218,-0.1297,-0.1292,-0.1281,-0.1229,-0.1213,-0.12,-0.1184,-0.117,-0.1198,-0.1198,-0.1243,-0.1268,-0.1403,-0.1411,-0.1894,-0.2155,-0.2547,-0.2743,-0.3054,-0.3483,-0.3795,-0.4146,-0.4535,-0.4885,-0.5198,-0.5625,-0.6128,-0.6398,-0.6553,-0.663,-0.6672,-0.6714,-0.6834,-0.6949,-0.7061,-0.7211,-0.7211,-0.7249,-0.7292,-0.7407,-0.7599,-0.7906,-0.8102,-0.8221,-0.8446,-0.8713,-0.8937,-0.916,-0.9354,-0.9582,-0.9916,-1.0143,-1.025,-1.0363,-1.0519,-1.0738,-1.0999,-1.1074,-1.1065,-1.132,-1.1664,-1.1833,-1.2035,-1.2478,0.9287,0.8924,0.8709,0.8649,0.8679,0.8913,0.9041,0.9077,0.9177,0.922,0.912,0.8815,0.8604,0.8513,0.8365,0.8021,0.7561,0.7022,0.6518,0.6018,0.5556,0.5285,0.5132,0.5015,0.5018,0.5018,0.4979,0.4859,0.474,0.4662,0.4545,0.4423,0.427,0.4157,0.3999,0.3802,0.3567,0.345,0.3176,0.2943,0.2276,0.1569,0.1021,0.0589,0.0196,-0.0118,-0.0275,-0.0471,-0.0707,-0.0943,-0.106,-0.1173,-0.1243,-0.1189,-0.1206,-0.1154,-0.117,-0.1157,-0.1147,-0.1178,-0.1182,-0.1194,-0.1189,-0.1206,-0.125,-0.1386,-0.1717,-0.1884,-0.204,-0.2314,-0.2743,-0.3093,-0.3444,-0.3795,-0.4185,-0.4577,-0.5121,-0.5589,-0.5819,-0.6012,-0.6128,-0.6209,-0.6328,-0.6447,-0.6598,-0.671,-0.6826,-0.6822,-0.6822,-0.6903,-0.7022,-0.7176,-0.7369,-0.7565,-0.7684,-0.7953,-0.8217,-0.8331,-0.8518,-0.8746,-0.9013,-0.9236,-0.9463,-0.9652,-0.9803,-0.9954,-1.0105,-1.0293,-1.0331,-1.0438,-1.0747,-1.1031,-1.1169,-1.1391,-1.1776,0.9444,0.9056,0.8926,0.8829,0.8861,0.9069,0.917,0.914,0.9005,0.899,0.8954,0.8785,0.8692,0.8861,0.8522,0.8185,0.7854,0.7397,0.6942,0.6447,0.5902,0.5515,0.5285,0.5129,0.5018,0.5018,0.5018,0.4979,0.4859,0.4779,0.4701,0.4621,0.4423,0.4348,0.4309,0.4112,0.3919,0.3802,0.3645,0.3372,0.3096,0.243,0.1844,0.1412,0.1021,0.0668,0.0393,0.0196,-0.0079,-0.0432,-0.0745,-0.0933,-0.0998,-0.1059,-0.1077,-0.105,-0.1067,-0.1088,-0.108,-0.1109,-0.1144,-0.1148,-0.1143,-0.1181,-0.1236,-0.1271,-0.148,-0.1492,-0.1689,-0.1846,-0.2199,-0.2353,-0.2665,-0.3056,-0.3407,-0.3954,-0.4499,-0.4813,-0.5085,-0.5279,-0.5434,-0.5553,-0.5709,-0.5825,-0.6018,-0.6131,-0.6282,-0.6282,-0.636,-0.6479,-0.6598,-0.6714,-0.6872,-0.6984,-0.7099,-0.7446,-0.7714,-0.7791,-0.7906,-0.8212,-0.8403,-0.8518,-0.8742,-0.9008,-0.9203,-0.9397,-0.9544,-0.9614,-0.9803,-0.9911,-1.0175,-1.0385,-1.0498,-1.0752,-1.1155]}]]